[[{"header":{"parameterUnit":"m.s-1","parameterCategory":1,"la1":31.0,"la2":29.5877,"lo1":-88.7671,"lo2":-86.6584,"dy":0.0162,"dx":0.0185,"nx":115,"ny":88,"refTime":"2024-04-20T12:00:00:Z","depth":0,"parameterNumber":2,"parameterNumberName":"U-component_of_WINDS"},"data":[0.0,0.0,0.0,0.0,0.0,0.0,0.0,0.0,0.0,0.0,0.0,0.0,0.0,0.0,0.0,0.0,0.0,0.0,0.0,0.0,0.0,0.0,0.0,0.0,0.0,0.0,0.0,0.0,0.0,0.0,0.0,0.0,0.0,0.0,0.0,0.0,0.0,0.0,0.0,0.0,0.0,0.0,0.0,0.0,0.0,0.0,0.0,0.0,0.0,0.0,0.0,0.0,0.0,0.0,0.0,0.0,0.0,0.0,0.0,0.0,0.0,0.0,0.0,0.0,0.0,0.0,0.0,0.0,0.0,0.0,0.0,0.0,0.0,0.0,0.0,0.0,0.0,0.0,0.0,0.0,0.0,0.0,0.0,0.0,0.0,0.0,0.0,0.0,0.0,0.0,0.0,0.0,0.0,0.0,0.0,0.0,0.0,0.0,0.0,0.0,0.0,0.0,0.0,0.0,0.0,0.0,0.0,0.0,0.0,0.0,0.0,0.0,0.0,0.0,0.0,0.0,0.0,0.0,0.0,0.0,0.0,0.0,0.0,0.0,0.0,0.0,0.0,0.0,0.0,0.0,0.0,0.0,0.0,0.0,0.0,0.0,0.0,0.0,0.0,0.0,0.0,0.0,0.0,0.0,0.0,0.0,0.0,0.0,0.0,0.0,0.0,0.0,0.0,0.0,0.0,0.0,0.0,0.0,0.0,0.0,0.0,0.0,0.0,0.0,0.0,0.0,0.0,0.0,0.0,0.0,0.0,0.0,0.0,0.0,0.0,0.0,0.0,0.0,0.0,0.0,0.0,0.0,0.0,0.0,0.0,0.0,0.0,0.0,0.0,0.0,0.0,0.0,0.0,0.0,0.0,0.0,0.0,0.0,0.0,0.0,0.0,0.0,0.0,0.0,0.0,0.0,0.0,0.0,0.0,0.0,0.0,0.0,0.0,0.0,0.0,0.0,0.0,0.0,0.0,0.0,0.0,0.0,0.0,0.0,0.0,0.0,0.0,0.0,0.0,0.0,0.0,0.0,0.0,0.0,0.0,0.0,0.0,0.0,0.0,0.0,0.0,0.0,0.0,0.0,0.0,0.0,0.0,0.0,0.0,0.0,0.0,0.0,0.0,0.0,0.0,0.0,0.0,0.0,0.0,0.0,0.0,0.0,0.0,0.0,0.0,0.0,0.0,0.0,0.0,0.0,0.0,0.0,0.0,0.0,0.0,0.0,0.0,0.0,0.0,0.0,0.0,0.0,0.0,0.0,0.0,0.0,0.0,0.0,0.0,0.0,0.0,0.0,0.0,0.0,0.0,0.0,0.0,0.0,0.0,0.0,0.0,0.0,0.0,0.0,0.0,0.0,0.0,0.0,0.0,0.0,0.0,0.0,0.0,0.0,0.0,0.0,0.0,0.0,0.0,0.0,0.0,0.0,0.0,0.0,0.0,0.0,0.0,0.0,0.0,0.0,0.0,0.0,0.0,0.0,0.0,0.0,0.0,0.0,0.0,0.0,0.0,0.0,0.0,0.0,0.0,0.0,0.0,0.0,0.0,0.0,0.0,0.0,0.0,0.0,0.0,0.0,0.0,0.0,0.0,0.0,0.0,0.0,0.0,0.0,0.0,0.0,0.0,0.0,0.0,0.0,0.0,0.0,0.0,0.0,0.0,0.0,0.0,0.0,0.0,0.0,0.0,0.0,0.0,0.0,0.0,0.0,0.0,0.0,0.0,0.0,0.0,0.0,0.0,0.0,0.0,0.0,0.0,0.0,0.0,0.0,0.0,0.0,0.0,0.0,0.0,0.0,0.0,0.0,0.0,0.0,0.0,0.0,0.0,0.0,0.0,0.0,0.0,0.0,0.0,0.0,0.0,0.0,0.0,0.0,0.0,0.0,0.0,0.0,0.0,0.0,0.0,0.0,0.0,0.0,0.0,0.0,0.0,0.0,0.0,0.0,0.0,0.0,0.0,0.0,0.0,0.0,0.0,0.0,0.0,0.0,0.0,0.0,0.0,0.0,0.0,0.0,0.0,0.0,0.0,0.0,0.0,0.0,0.0,0.0,0.0,0.0,0.0,0.0,0.0,0.0,0.0,0.0,0.0,0.0,0.0,0.0,0.0,0.0,0.0,0.0,0.0,0.0,0.0,0.0,0.0,0.0,0.0,0.0,0.0,0.0,0.0,0.0,0.0,0.0,0.0,0.0,0.0,0.0,0.0,0.0,0.0,0.0,0.0,0.0,0.0,0.0,0.0,0.0,0.0,0.0,0.0,0.0,0.0,0.0,0.0,0.0,0.0,0.0,0.0,0.0,0.0,0.0,0.0,0.0,0.0,0.0,0.0,0.0,0.0,0.0,0.0,0.0,0.0,0.0,0.0,0.0,0.0,0.0,0.0,0.0,0.0,0.0,0.0,0.0,0.0,0.0,0.0,0.0,0.0,0.0,0.0,0.0,0.0,0.0,0.0,0.0,0.0,0.0,0.0,0.0,0.0,0.0,0.0,0.0,0.0,0.0,0.0,0.0,0.0,0.0,0.0,0.0,0.0,0.0,0.0,0.0,0.0,0.0,0.0,0.0,0.0,0.0,0.0,0.0,0.0,0.0,0.0,0.0,0.0,0.0,0.0,0.0,0.0,0.0,0.0,0.0,0.0,0.0,0.0,0.0,0.0,0.0,0.0,0.0,0.0,0.0,0.0,0.0,0.0,0.0,0.0,0.0,0.0,0.0,0.0,0.0,0.0,0.0,0.0,0.0,0.0,0.0,0.0,0.0,0.0,0.0,0.0,0.0,0.0,0.0,0.0,0.0,0.0,0.0,0.0,0.0,0.0,0.0,0.0,0.0,0.0,0.0,0.0,0.0,0.0,0.0,0.0,0.0,0.0,0.0,0.0,0.0,0.0,0.0,0.0,0.0,0.0,0.0,0.0,0.0,0.0,0.0,0.0,0.0,0.0,0.0,0.0,0.0,0.0,0.0,0.0,0.0,0.0,0.0,0.0,0.0,0.0,0.0,0.0,0.0,0.0,0.0,0.0,0.0,0.0,0.0,0.0,0.0,0.0,0.0,0.0,0.0,0.0,0.0,0.0,0.0,0.0,0.0,0.0,0.0,0.0,0.0,0.0,0.0,0.0,0.0,0.0,0.0,0.0,0.0,0.0,0.0,0.0,0.0,0.0,0.0,0.0,0.0,0.0,0.0,0.0,0.0,0.0,0.0,0.0,0.0,0.0,0.0,0.0,0.0,0.0,0.0,0.0,0.0,0.0,0.0,0.0,0.0,0.0,0.0,0.0,0.0,0.0,0.0,0.0,0.0,0.0,0.0,0.0,0.0,0.0,0.0,0.0,0.0,0.0,0.0,0.0,0.0,0.0,0.0,0.0,0.0,0.0,0.0,0.0,0.0,0.0,0.0,0.0,0.0,0.0,0.0,0.0,0.0,0.0,0.0,0.0,0.0,0.0,0.0,0.0,0.0,0.0,0.0,0.0,0.0,0.0,0.0,0.0,0.0,0.0,0.0,0.0,0.0,0.0,0.0,0.0,0.0,0.0,0.0,0.0,0.0,0.0,0.0,0.0,0.0,0.0,0.0,0.0,0.0,0.0,0.0,0.0,0.0,0.0,0.0,0.0,0.0,0.0,0.0,0.0,0.0,0.0,0.0,0.0,0.0,0.0,0.0,0.0,0.0,0.0,0.0,0.0,0.0,0.0,0.0,0.0,0.0,0.0,0.0,0.0,0.0,0.0,0.0,0.0,0.0,0.0,0.0,0.0,0.0,0.0,0.0,0.0,0.0,0.0,0.0,0.0,0.0,0.0,0.0,0.0,0.0,0.0,0.0,0.0,0.0,0.0,0.0,0.0,0.0,0.0,0.0,0.0,0.0,0.0,0.0,0.0,0.0,0.0,0.0,0.0,0.0,0.0,0.0,0.0,0.0,0.0,0.0,0.0,0.0,0.0,0.0,0.0,0.0,0.0,0.0,0.0,0.0,0.0,0.0,0.0,0.0,0.0,0.0,0.0,0.0,0.0,0.0,0.0,0.0,0.0,0.0,0.0,0.0,0.0,0.0,0.0,0.0,0.0,0.0,0.0,0.0,0.0,0.0,0.0,0.0,0.0,0.0,0.0,0.0,0.0,0.0,0.0,0.0,0.0,0.0,0.0,0.0,0.0,0.0,0.0,0.0,0.0,0.0,0.0,0.0,0.0,0.0,0.0,0.0,0.0,0.0,0.0,0.0,0.0,0.0,0.0,0.0,0.0,0.0,0.0,0.0,0.0,0.0,0.0,0.0,-1.9583,0.0,0.0,0.0,0.0,0.0,0.0,0.0,0.0,0.0,0.0,0.0,0.0,0.0,0.0,0.0,0.0,0.0,0.0,0.0,0.0,0.0,0.0,0.0,0.0,0.0,0.0,0.0,0.0,0.0,0.0,0.0,0.0,0.0,0.0,0.0,0.0,0.0,0.0,0.0,0.0,0.0,0.0,0.0,0.0,0.0,0.0,0.0,0.0,0.0,0.0,0.0,0.0,0.0,0.0,0.0,0.0,0.0,0.0,0.0,0.0,0.0,0.0,0.0,0.0,0.0,0.0,0.0,0.0,0.0,0.0,0.0,0.0,0.0,0.0,0.0,0.0,0.0,0.0,0.0,0.0,0.0,0.0,0.0,0.0,0.0,0.0,0.0,0.0,0.0,0.0,0.0,0.0,0.0,0.0,0.0,0.0,0.0,0.0,0.0,0.0,0.0,0.0,0.0,0.0,0.0,0.0,0.0,0.0,0.0,0.0,-1.9583,-1.9583,-1.9583,-1.9583,-1.9583,0.0,0.0,0.0,0.0,0.0,0.0,0.0,0.0,0.0,0.0,0.0,0.0,0.0,0.0,0.0,0.0,0.0,0.0,0.0,0.0,0.0,0.0,0.0,0.0,0.0,0.0,0.0,0.0,0.0,0.0,0.0,0.0,0.0,0.0,0.0,0.0,0.0,0.0,0.0,0.0,0.0,0.0,0.0,0.0,0.0,0.0,0.0,0.0,0.0,0.0,0.0,0.0,0.0,0.0,0.0,0.0,0.0,0.0,0.0,0.0,0.0,0.0,0.0,0.0,0.0,0.0,0.0,0.0,0.0,0.0,0.0,0.0,0.0,0.0,0.0,0.0,0.0,0.0,0.0,0.0,0.0,0.0,0.0,0.0,0.0,0.0,0.0,0.0,0.0,0.0,0.0,0.0,0.0,0.0,0.0,0.0,0.0,0.0,0.0,0.0,0.0,0.0,0.0,0.0,0.0,0.0,0.0,0.0,0.0,0.0,0.0,0.0,-1.9583,-1.9583,-1.9583,0.0,0.0,0.0,0.0,0.0,0.0,0.0,0.0,0.0,0.0,0.0,0.0,0.0,0.0,0.0,0.0,0.0,0.0,0.0,0.0,0.0,0.0,0.0,0.0,0.0,0.0,0.0,0.0,0.0,0.0,0.0,0.0,0.0,0.0,0.0,0.0,0.0,0.0,0.0,0.0,0.0,0.0,0.0,0.0,0.0,0.0,0.0,0.0,0.0,0.0,0.0,0.0,0.0,0.0,0.0,0.0,0.0,0.0,0.0,0.0,0.0,0.0,0.0,0.0,0.0,0.0,0.0,0.0,0.0,0.0,0.0,0.0,0.0,0.0,0.0,0.0,0.0,0.0,0.0,0.0,0.0,0.0,0.0,0.0,0.0,0.0,0.0,0.0,0.0,0.0,0.0,0.0,0.0,0.0,0.0,0.0,0.0,0.0,0.0,0.0,0.0,0.0,0.0,0.0,0.0,0.0,0.0,0.0,0.0,0.0,-1.9583,-1.9583,-1.9583,0.0,-1.9583,0.0,0.0,0.0,0.0,0.0,0.0,0.0,0.0,0.0,0.0,0.0,0.0,0.0,0.0,0.0,0.0,0.0,0.0,0.0,0.0,0.0,0.0,0.0,0.0,0.0,0.0,0.0,0.0,0.0,0.0,0.0,0.0,0.0,0.0,0.0,0.0,0.0,0.0,0.0,0.0,0.0,0.0,0.0,0.0,0.0,0.0,0.0,0.0,0.0,0.0,0.0,0.0,0.0,0.0,0.0,0.0,0.0,0.0,0.0,0.0,0.0,0.0,0.0,0.0,0.0,0.0,0.0,0.0,0.0,0.0,0.0,0.0,0.0,0.0,0.0,0.0,0.0,0.0,0.0,0.0,0.0,0.0,0.0,0.0,0.0,0.0,0.0,0.0,0.0,0.0,0.0,0.0,0.0,0.0,0.0,0.0,0.0,0.0,0.0,0.0,0.0,0.0,0.0,0.0,0.0,0.0,0.0,0.0,0.0,0.0,-1.9583,-1.9583,-1.9583,-1.9583,0.0,0.0,0.0,0.0,0.0,0.0,0.0,0.0,0.0,0.0,0.0,0.0,0.0,0.0,0.0,0.0,0.0,0.0,0.0,0.0,0.0,0.0,0.0,0.0,0.0,0.0,0.0,0.0,0.0,0.0,0.0,0.0,0.0,0.0,0.0,0.0,0.0,0.0,0.0,0.0,0.0,0.0,0.0,0.0,0.0,0.0,0.0,0.0,0.0,0.0,0.0,0.0,0.0,0.0,0.0,0.0,0.0,0.0,0.0,0.0,0.0,0.0,0.0,0.0,0.0,0.0,0.0,0.0,0.0,0.0,0.0,0.0,0.0,0.0,0.0,0.0,0.0,0.0,0.0,0.0,0.0,0.0,0.0,0.0,0.0,0.0,0.0,0.0,0.0,0.0,0.0,0.0,0.0,0.0,0.0,0.0,0.0,0.0,0.0,0.0,0.0,0.0,0.0,0.0,0.0,0.0,0.0,0.0,0.0,0.0,-2.027,-2.0166,-1.9936,-1.9924,-1.9824,-1.9602,0.0,0.0,0.0,0.0,0.0,0.0,0.0,0.0,0.0,0.0,0.0,0.0,0.0,0.0,0.0,0.0,0.0,0.0,0.0,0.0,0.0,0.0,0.0,0.0,0.0,0.0,0.0,0.0,0.0,0.0,0.0,0.0,0.0,0.0,0.0,0.0,0.0,0.0,0.0,0.0,0.0,0.0,0.0,0.0,0.0,0.0,0.0,0.0,0.0,0.0,0.0,0.0,0.0,0.0,0.0,0.0,0.0,0.0,0.0,0.0,0.0,0.0,0.0,0.0,0.0,0.0,0.0,0.0,0.0,0.0,0.0,0.0,0.0,0.0,0.0,0.0,0.0,0.0,0.0,0.0,0.0,0.0,0.0,0.0,0.0,0.0,0.0,0.0,0.0,0.0,0.0,0.0,0.0,0.0,0.0,0.0,0.0,0.0,0.0,0.0,0.0,0.0,0.0,0.0,0.0,0.0,0.0,0.0,-2.1885,-2.1866,-2.1513,-2.079,-2.076,-2.0407,0.0,0.0,0.0,0.0,0.0,0.0,0.0,0.0,0.0,0.0,0.0,0.0,0.0,0.0,0.0,0.0,0.0,0.0,0.0,0.0,0.0,0.0,0.0,0.0,0.0,0.0,0.0,0.0,0.0,0.0,0.0,0.0,0.0,0.0,0.0,0.0,0.0,0.0,0.0,0.0,0.0,0.0,0.0,0.0,0.0,0.0,0.0,0.0,0.0,0.0,0.0,0.0,0.0,0.0,0.0,0.0,0.0,0.0,0.0,0.0,0.0,0.0,0.0,0.0,0.0,0.0,0.0,0.0,0.0,0.0,0.0,0.0,0.0,0.0,0.0,0.0,0.0,0.0,0.0,0.0,0.0,0.0,0.0,0.0,0.0,0.0,0.0,0.0,0.0,0.0,0.0,0.0,0.0,0.0,0.0,0.0,0.0,0.0,0.0,0.0,0.0,0.0,0.0,0.0,0.0,0.0,0.0,0.0,0.0,-2.1996,-2.1996,-2.1866,-2.1588,-2.1569,-2.1205,0.0,0.0,0.0,0.0,0.0,0.0,0.0,0.0,0.0,0.0,0.0,0.0,0.0,0.0,0.0,0.0,0.0,0.0,0.0,0.0,0.0,0.0,0.0,0.0,0.0,0.0,0.0,0.0,0.0,0.0,0.0,0.0,0.0,0.0,0.0,0.0,0.0,0.0,0.0,0.0,0.0,0.0,0.0,0.0,0.0,0.0,0.0,0.0,0.0,0.0,0.0,0.0,0.0,0.0,0.0,0.0,0.0,0.0,0.0,0.0,0.0,0.0,0.0,0.0,0.0,0.0,0.0,0.0,0.0,0.0,0.0,0.0,0.0,0.0,0.0,0.0,0.0,0.0,0.0,0.0,0.0,0.0,0.0,0.0,0.0,0.0,0.0,0.0,0.0,0.0,0.0,0.0,0.0,0.0,0.0,0.0,0.0,0.0,0.0,0.0,0.0,0.0,0.0,0.0,0.0,0.0,0.0,0.0,0.0,-2.2802,0.0,-2.2672,-2.2404,-2.2386,-2.2015,0.0,0.0,0.0,0.0,0.0,0.0,0.0,0.0,0.0,0.0,0.0,0.0,0.0,0.0,0.0,0.0,0.0,0.0,0.0,0.0,0.0,0.0,0.0,0.0,0.0,0.0,0.0,0.0,0.0,0.0,0.0,0.0,0.0,0.0,0.0,0.0,0.0,0.0,0.0,0.0,0.0,0.0,0.0,0.0,0.0,0.0,0.0,0.0,0.0,0.0,0.0,0.0,0.0,0.0,0.0,0.0,0.0,0.0,0.0,0.0,0.0,0.0,0.0,0.0,0.0,0.0,0.0,0.0,0.0,0.0,0.0,0.0,0.0,0.0,0.0,0.0,0.0,0.0,0.0,0.0,0.0,0.0,0.0,0.0,0.0,0.0,0.0,0.0,0.0,0.0,0.0,0.0,0.0,0.0,0.0,0.0,0.0,0.0,0.0,0.0,0.0,0.0,0.0,0.0,0.0,0.0,0.0,0.0,-2.4462,-2.4481,-2.4462,-2.4008,-2.3258,-2.3203,-2.2831,0.0,0.0,0.0,0.0,0.0,0.0,0.0,0.0,0.0,0.0,0.0,0.0,0.0,0.0,0.0,0.0,0.0,0.0,0.0,0.0,0.0,0.0,0.0,0.0,0.0,0.0,0.0,0.0,0.0,0.0,0.0,0.0,0.0,0.0,0.0,0.0,0.0,0.0,0.0,0.0,0.0,0.0,0.0,0.0,0.0,0.0,0.0,0.0,0.0,0.0,0.0,0.0,0.0,0.0,0.0,0.0,0.0,0.0,0.0,0.0,0.0,0.0,0.0,0.0,0.0,0.0,0.0,0.0,0.0,0.0,0.0,0.0,0.0,0.0,0.0,0.0,0.0,0.0,0.0,0.0,0.0,0.0,0.0,0.0,0.0,0.0,0.0,0.0,0.0,0.0,0.0,0.0,0.0,0.0,0.0,0.0,0.0,0.0,0.0,0.0,0.0,0.0,0.0,0.0,0.0,0.0,0.0,0.0,0.0,-2.45,-2.45,-2.4369,-2.4101,-2.4101,-2.3702,0.0,0.0,0.0,0.0,0.0,0.0,0.0,0.0,0.0,0.0,0.0,0.0,0.0,0.0,0.0,0.0,0.0,0.0,0.0,0.0,0.0,0.0,0.0,0.0,0.0,0.0,0.0,0.0,0.0,0.0,0.0,0.0,0.0,0.0,0.0,0.0,0.0,0.0,0.0,0.0,0.0,0.0,0.0,0.0,0.0,0.0,0.0,0.0,0.0,0.0,0.0,0.0,0.0,0.0,0.0,0.0,0.0,0.0,0.0,0.0,0.0,0.0,0.0,0.0,0.0,0.0,0.0,0.0,0.0,0.0,0.0,0.0,0.0,0.0,0.0,0.0,0.0,0.0,0.0,0.0,0.0,0.0,0.0,0.0,0.0,0.0,0.0,0.0,0.0,0.0,0.0,0.0,0.0,0.0,0.0,0.0,0.0,0.0,0.0,0.0,0.0,0.0,0.0,0.0,0.0,0.0,0.0,0.0,0.0,-2.4937,-2.4946,-2.4946,-2.4964,-2.4946,-2.4547,-2.3721,0.0,0.0,0.0,0.0,0.0,0.0,0.0,0.0,0.0,0.0,0.0,0.0,0.0,0.0,0.0,0.0,0.0,0.0,0.0,0.0,0.0,0.0,0.0,0.0,0.0,0.0,0.0,0.0,0.0,0.0,0.0,0.0,0.0,0.0,0.0,0.0,0.0,0.0,0.0,0.0,0.0,0.0,0.0,0.0,0.0,0.0,0.0,0.0,0.0,0.0,0.0,0.0,0.0,0.0,0.0,0.0,0.0,0.0,0.0,0.0,0.0,0.0,0.0,0.0,0.0,0.0,0.0,0.0,0.0,0.0,0.0,0.0,0.0,0.0,0.0,0.0,0.0,0.0,0.0,0.0,0.0,0.0,0.0,0.0,0.0,0.0,0.0,0.0,0.0,0.0,0.0,0.0,0.0,0.0,0.0,0.0,0.0,0.0,0.0,0.0,0.0,0.0,0.0,0.0,0.0,0.0,0.0,0.0,-2.5764,-2.5819,-2.581,-2.5764,-2.5699,-2.5336,0.0,0.0,0.0,0.0,0.0,0.0,0.0,0.0,0.0,0.0,0.0,0.0,0.0,0.0,0.0,0.0,0.0,0.0,0.0,0.0,0.0,0.0,0.0,0.0,0.0,0.0,0.0,0.0,0.0,0.0,0.0,0.0,0.0,0.0,0.0,0.0,0.0,0.0,0.0,0.0,0.0,0.0,0.0,0.0,0.0,0.0,0.0,0.0,0.0,0.0,0.0,0.0,0.0,0.0,0.0,0.0,0.0,0.0,0.0,0.0,0.0,0.0,0.0,0.0,0.0,0.0,0.0,0.0,0.0,0.0,0.0,0.0,0.0,0.0,0.0,0.0,0.0,0.0,0.0,0.0,0.0,0.0,0.0,0.0,0.0,0.0,0.0,0.0,0.0,0.0,0.0,0.0,0.0,0.0,0.0,0.0,0.0,0.0,0.0,0.0,0.0,0.0,0.0,0.0,0.0,0.0,0.0,0.0,0.0,-2.6572,-2.7148,-2.7185,-2.66,-2.6024,-2.5596,0.0,0.0,0.0,0.0,0.0,0.0,0.0,0.0,0.0,0.0,0.0,0.0,0.0,0.0,0.0,0.0,0.0,0.0,0.0,0.0,0.0,0.0,0.0,0.0,0.0,0.0,0.0,0.0,0.0,0.0,0.0,0.0,0.0,0.0,0.0,0.0,0.0,0.0,0.0,0.0,0.0,0.0,0.0,0.0,0.0,0.0,0.0,0.0,0.0,0.0,0.0,0.0,0.0,0.0,0.0,0.0,0.0,0.0,0.0,0.0,0.0,0.0,0.0,0.0,0.0,0.0,0.0,0.0,0.0,0.0,0.0,0.0,0.0,0.0,0.0,0.0,0.0,0.0,0.0,0.0,0.0,0.0,0.0,0.0,0.0,0.0,0.0,0.0,0.0,0.0,0.0,0.0,0.0,0.0,0.0,0.0,0.0,0.0,0.0,0.0,0.0,0.0,0.0,0.0,0.0,0.0,0.0,0.0,-2.6423,-2.6907,-2.804,-2.8412,-2.7947,-2.6814,-2.6033,0.0,0.0,0.0,0.0,0.0,0.0,0.0,0.0,0.0,0.0,0.0,0.0,0.0,0.0,0.0,0.0,0.0,0.0,0.0,0.0,0.0,0.0,0.0,0.0,0.0,0.0,0.0,0.0,0.0,0.0,0.0,0.0,0.0,0.0,0.0,0.0,0.0,0.0,0.0,0.0,0.0,0.0,0.0,0.0,0.0,0.0,0.0,0.0,0.0,0.0,0.0,0.0,0.0,0.0,0.0,0.0,0.0,0.0,0.0,0.0,0.0,0.0,0.0,0.0,0.0,0.0,0.0,0.0,0.0,0.0,0.0,0.0,0.0,0.0,0.0,0.0,0.0,0.0,0.0,0.0,0.0,0.0,0.0,0.0,0.0,0.0,0.0,0.0,0.0,0.0,0.0,0.0,0.0,0.0,0.0,0.0,0.0,0.0,0.0,0.0,0.0,0.0,0.0,0.0,0.0,0.0,0.0,0.0,-2.6944,-2.7055,-2.856,-2.9388,-2.9351,-2.778,-2.6553,0.0,0.0,0.0,0.0,0.0,0.0,0.0,0.0,0.0,0.0,0.0,0.0,0.0,0.0,0.0,0.0,0.0,0.0,0.0,0.0,0.0,0.0,0.0,0.0,0.0,0.0,0.0,0.0,0.0,0.0,0.0,0.0,0.0,0.0,0.0,0.0,0.0,0.0,0.0,0.0,0.0,0.0,0.0,0.0,0.0,0.0,0.0,0.0,0.0,0.0,0.0,0.0,0.0,0.0,0.0,0.0,0.0,0.0,0.0,0.0,0.0,0.0,0.0,0.0,0.0,0.0,0.0,0.0,0.0,0.0,0.0,0.0,0.0,0.0,0.0,0.0,0.0,0.0,0.0,0.0,0.0,0.0,0.0,0.0,0.0,0.0,0.0,0.0,0.0,0.0,0.0,0.0,0.0,0.0,0.0,0.0,0.0,0.0,0.0,0.0,0.0,0.0,0.0,0.0,0.0,0.0,0.0,0.0,-2.7222,-2.7854,-2.8876,-2.9388,-2.9388,-2.779,-2.6814,0.0,0.0,0.0,0.0,0.0,0.0,0.0,0.0,0.0,0.0,0.0,0.0,0.0,0.0,0.0,0.0,0.0,0.0,0.0,0.0,0.0,0.0,0.0,0.0,0.0,0.0,0.0,0.0,0.0,0.0,0.0,0.0,0.0,0.0,0.0,0.0,0.0,0.0,0.0,0.0,0.0,0.0,0.0,0.0,0.0,0.0,0.0,0.0,-2.0212,0.0,0.0,0.0,0.0,0.0,0.0,0.0,0.0,0.0,0.0,0.0,0.0,0.0,0.0,0.0,0.0,0.0,0.0,0.0,0.0,0.0,0.0,0.0,0.0,0.0,0.0,0.0,0.0,0.0,0.0,0.0,0.0,0.0,0.0,0.0,0.0,0.0,0.0,0.0,0.0,0.0,0.0,0.0,0.0,0.0,0.0,0.0,0.0,0.0,0.0,0.0,0.0,0.0,0.0,0.0,0.0,0.0,0.0,0.0,-2.7278,-2.8096,-2.8951,-2.9388,-2.9351,-2.8133,-2.7278,0.0,0.0,0.0,0.0,0.0,0.0,0.0,0.0,0.0,0.0,0.0,0.0,0.0,0.0,0.0,0.0,0.0,0.0,0.0,0.0,0.0,0.0,0.0,0.0,0.0,0.0,0.0,0.0,0.0,0.0,0.0,0.0,0.0,0.0,0.0,0.0,0.0,0.0,0.0,0.0,0.0,0.0,0.0,0.0,0.0,0.0,0.0,0.0,0.0,0.0,0.0,0.0,0.0,0.0,0.0,0.0,0.0,0.0,0.0,0.0,0.0,0.0,0.0,0.0,0.0,0.0,0.0,0.0,0.0,0.0,0.0,0.0,0.0,0.0,0.0,0.0,0.0,0.0,0.0,0.0,0.0,0.0,0.0,0.0,0.0,0.0,0.0,0.0,0.0,0.0,0.0,0.0,0.0,0.0,0.0,0.0,0.0,0.0,0.0,0.0,0.0,0.0,0.0,0.0,0.0,0.0,0.0,-2.6953,-2.7724,-2.8653,-2.9396,-2.9768,-2.975,-2.882,-2.7929,-2.7111,0.0,0.0,0.0,0.0,0.0,0.0,0.0,0.0,0.0,0.0,0.0,0.0,0.0,0.0,0.0,0.0,0.0,0.0,0.0,0.0,0.0,0.0,0.0,0.0,0.0,0.0,0.0,0.0,0.0,0.0,0.0,0.0,0.0,0.0,0.0,0.0,0.0,0.0,-2.01,-1.9881,0.0,0.0,0.0,0.0,0.0,0.0,0.0,0.0,-2.0023,0.0,0.0,0.0,0.0,0.0,0.0,0.0,0.0,0.0,0.0,0.0,0.0,0.0,0.0,0.0,0.0,0.0,0.0,0.0,0.0,0.0,0.0,0.0,0.0,0.0,0.0,0.0,0.0,0.0,0.0,0.0,0.0,0.0,0.0,0.0,0.0,0.0,0.0,0.0,0.0,0.0,0.0,0.0,0.0,0.0,0.0,0.0,0.0,0.0,0.0,0.0,0.0,0.0,0.0,0.0,0.0,-2.8756,-2.8924,-2.9712,-3.1143,-3.1329,-3.1403,-3.1366,-2.9954,-2.8783,-2.7891,0.0,0.0,0.0,0.0,0.0,0.0,0.0,0.0,0.0,0.0,0.0,0.0,0.0,0.0,0.0,0.0,0.0,0.0,0.0,0.0,0.0,0.0,0.0,0.0,0.0,0.0,0.0,0.0,0.0,0.0,0.0,0.0,0.0,0.0,0.0,0.0,0.0,0.0,0.0,-2.0139,-1.9963,0.0,0.0,0.0,0.0,0.0,0.0,0.0,0.0,-2.0662,0.0,0.0,0.0,0.0,0.0,0.0,0.0,0.0,0.0,0.0,0.0,0.0,0.0,0.0,0.0,0.0,0.0,0.0,0.0,0.0,0.0,0.0,0.0,0.0,0.0,0.0,0.0,0.0,0.0,0.0,0.0,0.0,0.0,0.0,0.0,0.0,0.0,0.0,0.0,0.0,0.0,0.0,0.0,0.0,0.0,0.0,0.0,0.0,0.0,0.0,0.0,0.0,0.0,0.0,0.0,-2.9322,-2.9805,-3.0615,-3.1756,-3.1801,-3.1801,-3.1775,-3.0641,-2.9402,0.0,0.0,0.0,0.0,0.0,0.0,0.0,0.0,0.0,0.0,0.0,0.0,0.0,0.0,0.0,0.0,0.0,0.0,0.0,0.0,0.0,0.0,0.0,0.0,0.0,0.0,0.0,0.0,0.0,0.0,0.0,0.0,0.0,0.0,0.0,0.0,0.0,0.0,0.0,0.0,-2.0469,-2.0497,-2.1276,0.0,0.0,0.0,0.0,0.0,0.0,-2.0719,-2.0591,0.0,0.0,0.0,0.0,0.0,0.0,0.0,0.0,0.0,0.0,0.0,0.0,0.0,0.0,0.0,0.0,0.0,0.0,0.0,0.0,0.0,0.0,0.0,0.0,0.0,0.0,0.0,0.0,0.0,0.0,0.0,0.0,0.0,0.0,0.0,0.0,0.0,0.0,0.0,0.0,0.0,0.0,0.0,0.0,0.0,0.0,0.0,0.0,0.0,0.0,0.0,0.0,0.0,0.0,0.0,-2.9861,-3.0679,-3.1478,-3.224,-3.2295,-3.2277,-3.2277,-3.1199,-2.9916,0.0,0.0,0.0,0.0,0.0,0.0,0.0,0.0,0.0,0.0,0.0,0.0,0.0,0.0,0.0,0.0,0.0,0.0,0.0,0.0,0.0,0.0,0.0,0.0,0.0,0.0,0.0,0.0,0.0,0.0,0.0,0.0,0.0,0.0,0.0,0.0,0.0,0.0,0.0,0.0,0.0,-2.1008,-2.1776,-2.1066,0.0,0.0,0.0,0.0,-2.0709,-2.0752,0.0,0.0,0.0,0.0,0.0,0.0,0.0,0.0,0.0,0.0,0.0,0.0,0.0,0.0,0.0,0.0,0.0,0.0,0.0,0.0,0.0,0.0,0.0,0.0,0.0,0.0,0.0,0.0,0.0,0.0,0.0,0.0,0.0,0.0,0.0,0.0,0.0,0.0,0.0,0.0,0.0,0.0,0.0,0.0,0.0,0.0,0.0,0.0,0.0,0.0,0.0,0.0,0.0,0.0,0.0,0.0,-3.1496,-3.2332,-3.312,-3.3863,-3.3918,-3.393,-3.3881,-3.1775,-3.0435,0.0,0.0,0.0,0.0,0.0,0.0,0.0,0.0,0.0,0.0,0.0,0.0,0.0,0.0,0.0,0.0,0.0,0.0,0.0,0.0,0.0,0.0,0.0,0.0,0.0,0.0,0.0,0.0,0.0,0.0,0.0,0.0,0.0,0.0,0.0,0.0,0.0,0.0,0.0,0.0,0.0,-2.0915,-2.148,-2.0835,-2.0318,0.0,0.0,0.0,-2.1379,-2.1958,0.0,0.0,0.0,0.0,0.0,0.0,0.0,0.0,0.0,0.0,0.0,0.0,0.0,0.0,0.0,0.0,0.0,0.0,0.0,0.0,0.0,0.0,0.0,0.0,0.0,0.0,0.0,0.0,0.0,0.0,0.0,0.0,0.0,0.0,0.0,0.0,0.0,0.0,0.0,0.0,0.0,0.0,0.0,0.0,0.0,0.0,0.0,0.0,0.0,0.0,0.0,0.0,0.0,0.0,0.0,-3.1106,-3.1812,-3.3039,-3.3844,-3.4179,-3.4216,-3.4216,-3.4197,-3.2279,-3.0973,0.0,0.0,0.0,0.0,0.0,0.0,0.0,0.0,0.0,0.0,0.0,0.0,0.0,0.0,0.0,0.0,0.0,0.0,0.0,0.0,0.0,0.0,0.0,0.0,0.0,0.0,0.0,0.0,0.0,0.0,0.0,0.0,0.0,0.0,0.0,0.0,0.0,0.0,0.0,0.0,0.0,0.0,-2.1479,-2.1196,0.0,0.0,0.0,-2.1323,-2.088,0.0,0.0,0.0,0.0,0.0,0.0,0.0,0.0,0.0,0.0,0.0,0.0,0.0,0.0,0.0,0.0,0.0,0.0,0.0,0.0,0.0,0.0,0.0,0.0,0.0,0.0,0.0,0.0,0.0,0.0,0.0,0.0,0.0,0.0,0.0,0.0,0.0,0.0,0.0,0.0,0.0,0.0,0.0,0.0,0.0,0.0,0.0,0.0,0.0,0.0,0.0,0.0,0.0,0.0,0.0,0.0,0.0,-3.1831,-3.338,-3.4216,-3.4216,-3.4216,-3.4216,-3.4179,-3.2776,0.0,0.0,0.0,0.0,0.0,0.0,0.0,0.0,0.0,0.0,0.0,0.0,0.0,0.0,0.0,0.0,0.0,0.0,0.0,0.0,0.0,0.0,0.0,0.0,0.0,0.0,0.0,-1.9075,0.0,0.0,0.0,0.0,0.0,0.0,0.0,0.0,0.0,0.0,0.0,0.0,0.0,0.0,-2.1625,-2.1514,-2.1486,-2.1586,0.0,0.0,-2.1359,-2.0961,-2.2075,-2.2437,0.0,0.0,0.0,0.0,0.0,0.0,0.0,0.0,0.0,0.0,0.0,0.0,0.0,0.0,0.0,0.0,0.0,0.0,0.0,0.0,0.0,0.0,0.0,0.0,0.0,0.0,0.0,0.0,0.0,0.0,0.0,0.0,0.0,0.0,0.0,0.0,0.0,0.0,0.0,0.0,0.0,0.0,0.0,0.0,0.0,0.0,0.0,0.0,0.0,0.0,0.0,0.0,0.0,0.0,0.0,-3.1849,-3.3392,-3.4216,-3.4216,-3.4216,-3.4216,-3.4179,-3.3343,-3.2413,0.0,0.0,0.0,0.0,0.0,0.0,0.0,0.0,0.0,0.0,0.0,0.0,0.0,0.0,0.0,0.0,0.0,0.0,0.0,0.0,0.0,0.0,0.0,0.0,0.0,0.0,0.0,0.0,0.0,0.0,0.0,0.0,0.0,0.0,0.0,0.0,0.0,0.0,0.0,0.0,0.0,-2.158,-2.1514,-2.1486,-2.1757,0.0,0.0,-2.1731,-2.2427,-2.3198,-2.3208,-2.1676,0.0,0.0,0.0,0.0,0.0,0.0,0.0,0.0,0.0,0.0,0.0,0.0,0.0,0.0,0.0,0.0,0.0,0.0,0.0,0.0,0.0,0.0,0.0,0.0,0.0,0.0,0.0,0.0,0.0,0.0,0.0,0.0,0.0,0.0,0.0,0.0,0.0,0.0,0.0,0.0,0.0,0.0,0.0,0.0,0.0,0.0,0.0,0.0,0.0,0.0,0.0,0.0,0.0,-3.1801,-3.1819,-3.3344,-3.4155,-3.4117,-3.4099,-3.4086,-3.4074,-3.326,-3.2416,0.0,0.0,0.0,0.0,0.0,0.0,0.0,0.0,0.0,0.0,0.0,0.0,0.0,0.0,0.0,0.0,0.0,0.0,0.0,0.0,0.0,0.0,0.0,0.0,0.0,0.0,0.0,0.0,-2.0491,-2.0501,-2.0055,0.0,0.0,0.0,0.0,0.0,0.0,0.0,0.0,0.0,0.0,-2.1593,-2.2098,-2.2131,0.0,0.0,-2.2397,-2.2116,-2.1975,-2.2608,-2.2572,-2.1025,-2.0753,0.0,0.0,0.0,0.0,0.0,0.0,0.0,0.0,0.0,0.0,0.0,0.0,0.0,0.0,0.0,0.0,0.0,0.0,0.0,0.0,0.0,0.0,0.0,0.0,0.0,0.0,0.0,0.0,0.0,0.0,0.0,0.0,0.0,0.0,0.0,0.0,0.0,0.0,0.0,0.0,0.0,0.0,0.0,0.0,0.0,0.0,0.0,0.0,0.0,0.0,0.0,0.0,-3.2491,-3.2491,-3.3802,-3.445,-3.4468,-3.4153,-3.3998,-3.3979,-3.3412,-3.2736,0.0,0.0,0.0,0.0,0.0,0.0,0.0,0.0,0.0,0.0,0.0,0.0,0.0,0.0,0.0,0.0,0.0,0.0,0.0,0.0,0.0,0.0,0.0,0.0,0.0,0.0,0.0,0.0,-2.0644,-2.0573,-2.0055,0.0,0.0,0.0,0.0,0.0,0.0,0.0,0.0,0.0,0.0,-2.1754,-2.2154,-2.2376,-2.252,-2.2612,-2.26,-2.2473,-2.2217,-2.2462,-2.2281,-2.1196,0.0,0.0,0.0,0.0,0.0,0.0,0.0,0.0,0.0,0.0,0.0,0.0,0.0,0.0,0.0,0.0,0.0,0.0,0.0,0.0,0.0,0.0,0.0,0.0,0.0,0.0,0.0,0.0,0.0,0.0,-2.6521,0.0,0.0,0.0,0.0,0.0,0.0,0.0,0.0,0.0,0.0,0.0,0.0,0.0,0.0,0.0,0.0,0.0,0.0,0.0,0.0,0.0,0.0,0.0,-3.4037,-3.4824,-3.5277,-3.524,-3.446,-3.4053,-3.4016,-3.3979,-3.3554,-3.2667,0.0,0.0,0.0,0.0,0.0,0.0,0.0,0.0,0.0,0.0,0.0,0.0,0.0,0.0,0.0,0.0,0.0,0.0,0.0,0.0,0.0,0.0,0.0,0.0,0.0,0.0,-1.9011,-1.9573,-2.0037,0.0,0.0,0.0,0.0,0.0,0.0,0.0,0.0,0.0,0.0,-2.1378,-2.2116,-2.1458,-2.2006,-2.2535,-2.2566,-2.2527,-2.28,-2.3577,-2.3079,-2.2602,0.0,0.0,0.0,0.0,0.0,0.0,0.0,0.0,0.0,0.0,0.0,0.0,0.0,0.0,0.0,0.0,0.0,0.0,0.0,0.0,0.0,0.0,0.0,0.0,0.0,0.0,0.0,-2.7897,-2.742,0.0,0.0,0.0,0.0,0.0,0.0,0.0,0.0,0.0,0.0,0.0,-3.139,-3.1665,0.0,0.0,0.0,0.0,0.0,0.0,0.0,0.0,0.0,0.0,0.0,0.0,-3.4086,-3.4103,-3.5348,-3.604,-3.6021,-3.5722,-3.5253,-3.4669,-3.4669,-3.3945,-3.2406,0.0,0.0,0.0,0.0,0.0,0.0,0.0,0.0,0.0,0.0,0.0,0.0,0.0,0.0,0.0,0.0,0.0,0.0,0.0,0.0,0.0,0.0,0.0,0.0,0.0,-1.9895,0.0,0.0,0.0,0.0,0.0,0.0,0.0,0.0,0.0,0.0,0.0,-2.0172,-2.0664,-2.1182,-2.168,-2.2024,-2.2747,-2.3458,0.0,0.0,0.0,0.0,0.0,0.0,0.0,0.0,0.0,0.0,0.0,0.0,0.0,0.0,-2.0536,-2.0061,-2.0488,-2.1008,-2.1183,0.0,0.0,0.0,0.0,0.0,0.0,0.0,0.0,0.0,0.0,0.0,0.0,0.0,0.0,0.0,0.0,-2.9769,0.0,0.0,0.0,0.0,0.0,0.0,0.0,0.0,-3.2063,-3.2711,-3.3426,-3.3445,-3.3728,0.0,-3.4007,-3.3198,0.0,0.0,0.0,0.0,0.0,0.0,0.0,0.0,-3.4871,-3.4887,-3.6122,-3.6779,-3.6761,-3.646,-3.6046,-3.5463,-3.5169,-3.4426,-3.3199,-3.2042,-3.0986,0.0,0.0,0.0,0.0,0.0,0.0,0.0,0.0,0.0,0.0,0.0,0.0,0.0,0.0,0.0,0.0,0.0,0.0,0.0,0.0,0.0,0.0,0.0,-2.0912,0.0,0.0,0.0,0.0,0.0,0.0,0.0,0.0,0.0,-2.0912,-2.1036,-2.1411,-2.1864,-2.2178,-2.2361,-2.2421,0.0,0.0,0.0,0.0,0.0,0.0,0.0,-2.2973,-2.2602,-2.2625,-2.2847,-2.3289,-2.3187,-2.2885,-2.2351,0.0,0.0,-2.097,-2.1252,-2.1739,-2.1873,-2.1927,-2.2044,-2.2329,-2.2395,-2.2413,0.0,0.0,0.0,0.0,0.0,0.0,0.0,0.0,-3.3788,-3.333,0.0,-3.3403,0.0,0.0,0.0,0.0,0.0,0.0,0.0,0.0,-3.5385,-3.5811,-3.5096,-3.5096,-3.5096,-3.5064,-3.4394,-3.4412,-3.5023,-3.4447,0.0,0.0,0.0,0.0,0.0,0.0,-3.6417,-3.6421,-3.7154,-3.7529,-3.7511,-3.6795,-3.6372,-3.6321,-3.55,-3.5009,-3.4903,-3.3221,-3.2244,-3.2111,-3.0116,0.0,0.0,0.0,0.0,0.0,0.0,0.0,0.0,0.0,0.0,0.0,0.0,0.0,0.0,0.0,0.0,0.0,0.0,0.0,0.0,-2.235,0.0,0.0,0.0,0.0,0.0,0.0,0.0,0.0,0.0,0.0,-2.2457,-2.2981,-2.3452,-2.3416,0.0,0.0,0.0,0.0,-2.4212,-2.2771,-2.3216,-2.3827,-2.3959,-2.3959,-2.4216,-2.4849,0.0,0.0,-2.4835,-2.4275,-2.384,-2.3786,-2.4411,-2.432,-2.2119,-2.1908,-2.1971,-2.1924,-2.209,-2.2097,-2.2237,-2.2471,-2.247,-3.7129,0.0,0.0,0.0,0.0,-3.3715,-3.3903,-3.4656,-3.4656,-3.4546,-3.4325,-3.4546,0.0,0.0,0.0,0.0,0.0,0.0,-3.41,-3.4656,-3.5151,-3.5866,-3.678,-3.6776,-3.7074,-3.7624,-3.7404,-3.7422,-3.7609,-3.7434,-3.6489,-3.4838,0.0,0.0,0.0,0.0,-3.6665,-3.7191,-3.7951,-3.8358,-3.8358,-3.8138,-3.7734,-3.7162,-3.6358,-3.5524,-3.4666,-3.4123,-3.3105,-3.157,-3.0885,0.0,0.0,0.0,0.0,0.0,0.0,0.0,0.0,0.0,0.0,0.0,0.0,0.0,0.0,0.0,0.0,0.0,0.0,0.0,-2.2346,-2.3332,-2.341,0.0,0.0,0.0,0.0,0.0,0.0,0.0,0.0,0.0,-2.4783,-2.3517,-2.2653,0.0,0.0,-2.2843,-2.2422,-2.4175,-2.5619,-2.5781,0.0,0.0,0.0,-2.741,-2.6932,-2.6541,-2.6506,-2.6345,-2.5739,-2.5949,-2.6015,-2.5458,-2.5582,-2.5538,-2.4989,-2.4846,-2.4728,-2.4378,-2.4291,-2.4183,-2.3876,-2.3894,-2.4001,-4.0744,-3.9732,-3.8006,-3.7129,-3.689,-3.6431,-3.6688,-3.7426,-3.7426,-3.7077,-3.649,-3.6802,-3.5958,-3.427,-3.427,0.0,0.0,0.0,-3.5697,-3.6454,-3.6472,-3.7019,-3.7918,-3.7955,-3.823,-3.8689,-3.8707,-3.8707,-3.8689,-3.8377,-3.7511,-3.6135,0.0,0.0,-3.5643,-3.643,-3.7059,-3.7511,-3.8285,-3.8707,-3.8707,-3.8707,-3.8469,-3.7988,-3.7217,-3.6432,-3.5705,-3.4915,-3.3893,-3.2553,-3.1659,-3.0673,0.0,0.0,0.0,0.0,0.0,0.0,0.0,0.0,0.0,0.0,0.0,-2.3734,0.0,0.0,0.0,0.0,-2.4146,-2.4051,-2.3638,-2.4266,0.0,0.0,0.0,0.0,0.0,0.0,0.0,-2.4415,-2.5235,-2.5925,-2.6193,-2.5033,-2.4296,-2.4587,-2.4641,-2.4653,-2.4706,0.0,-2.7365,-2.757,-2.8035,-2.8501,-2.8958,-2.8945,-2.8779,-2.8569,-2.8528,-2.8367,-2.7906,-2.7986,-2.7923,-2.751,-2.7178,-2.7018,-2.7,-2.7079,-2.6783,-2.587,-2.5648,-2.5557,-2.5281,-2.5338,-2.5454,-4.3552,-4.3259,-4.0322,-3.9478,-4.0084,-4.0029,-4.0396,-4.1095,-4.1077,-4.027,-3.8982,-3.9662,-3.8322,-3.5518,-3.55,0.0,0.0,-3.7786,-3.8175,-3.8909,-3.8891,-3.8891,-3.8909,-3.8875,-3.8891,-3.8894,-3.8891,-3.8891,-3.8872,-3.8098,-3.7658,-3.7603,-3.7529,-3.7107,-3.6376,-3.7033,-3.7437,-3.7511,-3.823,-3.8652,-3.8707,-3.8707,-3.8707,-3.8689,-3.7958,-3.7488,-3.7381,-3.5633,-3.456,-3.4321,-3.2456,-3.1317,-3.1126,0.0,0.0,0.0,0.0,0.0,0.0,0.0,0.0,0.0,0.0,0.0,0.0,0.0,0.0,0.0,-2.545,0.0,-2.5681,-2.5176,0.0,0.0,0.0,-2.5014,-2.5704,-2.5847,-2.5877,-2.589,0.0,0.0,0.0,0.0,-2.7496,-2.8356,-2.832,-2.8196,-2.8196,-2.8838,-2.9212,-2.8548,-2.8586,-2.868,-2.9056,-2.947,-3.0004,-3.0506,-3.0645,-3.0383,-3.0294,-2.9941,-2.9589,-2.9482,-2.9035,-2.8609,-2.8577,-2.8643,-2.8234,-2.6814,-2.6403,-2.6316,-2.6344,-2.6382,-2.6479,-4.4013,-4.3374,-4.2655,-4.2121,-4.168,-4.1075,-4.093,-4.1095,-4.1113,-4.0875,-4.0545,-4.0744,-4.038,-3.9646,-3.9646,-3.9866,-4.0233,-4.0267,-4.0359,-4.0524,-4.0508,-4.0526,-4.0543,-4.0524,-4.0508,-4.0526,-4.0508,-4.0526,-4.0487,-3.9717,-3.9001,-3.8414,-3.7804,-3.7107,-3.634,-3.6486,-3.6905,-3.7511,-3.7694,-3.8083,-3.867,-3.8707,-3.8707,-3.8707,-3.8218,-3.7557,-3.6692,-3.6213,-3.5118,-3.3386,-3.3073,-3.2319,-3.0872,-2.9817,0.0,0.0,0.0,0.0,0.0,0.0,0.0,0.0,0.0,-2.4229,-2.306,0.0,-2.4656,0.0,-2.5571,-2.6384,-2.6356,-2.6225,0.0,0.0,-2.5345,-2.5345,-2.5627,-2.6202,-2.6597,-2.671,-2.725,-2.7928,-2.8713,-2.8816,-2.9333,-3.0636,-2.9319,-2.8196,-2.8231,-2.939,-3.0175,-3.0101,-3.0936,-3.1788,-3.1681,-3.1476,-3.1312,-3.1433,-3.102,-3.0624,-3.0511,-3.0477,-3.0363,-3.0269,-3.0266,-3.0184,-3.0105,-3.0198,-2.9904,-2.9016,-2.7947,-2.694,-2.6418,-2.6418,-2.6549,-4.4858,-4.4455,-4.4125,-4.3756,-4.3314,-4.2506,-4.2176,-4.2176,-4.2176,-4.1957,-4.1609,-4.126,-4.1113,-4.1113,-4.1113,-4.1113,-4.1113,-4.1113,-4.1113,-4.1113,-4.1113,-4.1113,-4.1113,-4.1113,-4.1113,-4.1113,-4.1113,-4.1113,-4.1077,-4.0653,-4.0194,-3.9756,-3.9313,-3.8524,-3.7386,-3.667,-3.6505,-3.696,-3.7309,-3.7896,-3.867,-3.8707,-3.8542,-3.8175,-3.7951,-3.713,-3.5665,-3.5088,-3.4002,-3.2248,-3.1882,-3.1237,-3.0214,-2.9437,-2.8834,0.0,0.0,0.0,0.0,0.0,0.0,0.0,0.0,0.0,0.0,0.0,-2.5582,0.0,-2.6449,0.0,-2.6588,-2.6251,-2.6023,-2.5935,-2.5935,-2.6223,-2.6975,-2.7465,-2.7896,-2.8304,-2.8805,-2.9435,-3.0178,-3.0362,-3.085,-3.2063,-3.11,-3.0297,-3.035,-3.1064,-3.1564,-3.1617,-3.2347,-3.29,-3.29,-3.2574,-3.2271,-3.2204,-3.1931,-3.1645,-3.1579,-3.1324,-3.1124,-3.1043,-3.0838,-3.065,-3.0638,-3.0682,-3.0611,-3.0186,-2.9512,-2.8598,-2.7514,-2.7349,-2.7465,-4.5788,-4.5717,-4.5041,-4.4766,-4.4747,-4.4086,-4.3681,-4.3479,-4.3479,-4.3094,-4.2415,-4.1717,-4.1407,-4.1389,-4.1423,-4.1389,-4.1389,-4.1407,-4.1407,-4.1407,-4.1407,-4.1407,-4.1407,-4.1423,-4.1405,-4.1407,-4.1407,-4.1407,-4.1389,-4.1297,-4.1187,-4.1095,-4.102,-4.0196,-3.8707,-3.7312,-3.6505,-3.6321,-3.7074,-3.7841,-3.8505,-3.845,-3.8046,-3.7401,-3.7283,-3.6456,-3.4764,-3.373,-3.261,-3.1351,-3.0385,-2.9834,-2.9782,-2.9006,-2.8627,0.0,-2.804,0.0,0.0,0.0,0.0,0.0,0.0,0.0,0.0,-2.6751,-2.6802,-2.7624,-2.7602,-2.7344,-2.6938,-2.6324,-2.6215,-2.6892,-2.6965,-2.7537,-2.8813,-2.9022,-2.9302,-3.0056,-3.0307,-3.0684,-3.1389,-3.1746,-3.2214,-3.287,-3.3048,-3.2995,-3.3132,-3.3061,-3.3025,-3.315,-3.3186,-3.3382,-3.3311,-3.3168,-3.3061,-3.3043,-3.2864,-3.29,-3.2811,-3.2293,-3.1865,-3.1811,-3.1365,-3.0936,-3.0814,-3.093,-3.0975,-3.0864,-3.0855,-3.0427,-2.9248,-2.8744,-2.8851,-4.6318,-4.5641,-4.5589,-4.5497,-4.5423,-4.5388,-4.4656,-4.3497,-4.3479,-4.3423,-4.3259,-4.3112,-4.3039,-4.3039,-4.3039,-4.3057,-4.3039,-4.3039,-4.3057,-4.3057,-4.3039,-4.3039,-4.3039,-4.3039,-4.3039,-4.3056,-4.3039,-4.3039,-4.302,-4.2378,-4.1737,-4.1095,-4.0451,-3.9662,-3.8744,0.0,0.0,0.0,-3.7088,-3.7566,-3.7694,-3.7107,-3.667,-3.6523,-3.6234,0.0,-3.5124,-3.4879,-3.381,-3.1826,-3.1795,0.0,0.0,0.0,0.0,0.0,0.0,0.0,0.0,0.0,0.0,0.0,-2.8351,-2.7643,-2.7316,-2.7192,-2.7433,-2.8157,-2.8227,-2.8417,-2.8883,-2.8814,-2.8796,-2.8934,-2.8951,-2.9139,-2.9583,-2.9633,-2.9963,-3.0846,-3.1019,-3.1299,-3.2036,-3.2721,-3.3265,-3.3578,-3.4145,-3.4568,-3.4706,-3.4223,-3.4115,-3.4615,-3.4633,-3.4722,-3.4775,-3.424,-3.3865,-3.3812,-3.3293,-3.2971,-3.2936,-3.2894,-3.2715,-3.2648,-3.2574,-3.2447,-3.2434,-3.2454,-3.2235,-3.1709,-3.1631,-3.1386,-3.0626,-2.9985,-2.9598,-4.7514,0.0,-4.6426,-4.63,0.0,-4.5937,-4.537,-4.4619,-4.4251,-4.3864,-4.3479,-4.3479,-4.3479,-4.3479,-4.3479,-4.3479,-4.3479,-4.3479,-4.3479,-4.3479,-4.3479,-4.3479,-4.3479,-4.3479,-4.3479,-4.3479,-4.3479,-4.3479,-4.3478,-4.3075,-4.269,-4.2286,-4.1881,-4.1258,-4.0506,-4.0102,-3.9093,-3.7496,-3.7881,-3.8102,-3.8065,-3.7509,-3.6997,-3.6596,0.0,0.0,0.0,0.0,0.0,0.0,0.0,0.0,0.0,0.0,0.0,-3.1731,-3.0731,-3.0248,-3.0593,-3.03,-3.0248,-3.061,-3.0282,-2.9592,-2.8472,-2.9075,-2.9679,-3.0024,-2.9748,-2.9696,-3.0041,-2.9748,-2.9506,-2.9506,-2.9506,-2.9696,-3.0145,-3.0248,-3.0578,-3.1377,-3.19,-3.2336,-3.2703,-3.3528,-3.4056,-3.4181,-3.4499,-3.4958,-3.5331,-3.5012,-3.4829,-3.515,-3.5204,-3.5186,-3.5168,-3.4919,-3.4634,-3.4562,-3.4311,-3.3901,-3.3544,-3.3523,-3.3432,-3.3025,-3.2932,-3.2932,-3.2916,-3.29,-3.2791,-3.2465,-3.2373,-3.2312,-3.1918,-3.107,-3.031,-4.8829,-4.8047,-4.7456,-4.7191,-4.7105,-4.6448,-4.6119,-4.5955,0.0,0.0,0.0,-4.3791,-4.3699,-4.3681,-4.357,-4.3479,-4.3479,-4.3479,-4.3479,-4.3479,-4.3479,-4.3479,-4.3479,-4.3479,-4.3479,-4.3479,-4.3479,-4.3479,-4.3479,-4.3479,-4.3479,-4.3479,-4.3479,-4.3149,-4.2525,-4.1847,-4.0769,-3.9292,-3.9025,-3.8854,-3.871,-3.8223,-3.762,-3.6821,-3.6408,-3.5403,-3.3811,-3.3652,-3.3103,-3.206,-3.199,-3.2059,-3.2196,-3.2076,-3.211,-3.2352,-3.1696,-3.1507,-3.1938,-3.142,-3.1282,-3.1765,-3.18,-3.1248,-2.9972,-3.1076,-3.18,-3.18,-3.1231,-3.0886,-3.0904,-3.0317,-2.9903,-2.9903,-2.9903,-3.0231,-3.0973,-3.1094,-3.1421,-3.2147,-3.2882,-3.3358,-3.3393,-3.4131,-3.4732,-3.477,-3.4963,-3.5174,-3.5795,-3.5792,-3.5687,-3.5757,-3.5846,-3.5703,-3.5632,-3.549,-3.5453,-3.5418,-3.5275,-3.4972,-3.4473,-3.4294,-3.3972,-3.3294,-3.3114,-3.3061,-3.2936,-3.29,-3.29,-3.29,-3.2932,-3.2997,-3.289,-3.2023,-3.12,-4.9592,-4.894,-4.8813,-4.8398,-4.7761,-4.7698,-4.7378,-4.6779,-4.5992,-4.5608,-4.5516,-4.4837,-4.4544,-4.4488,-4.3809,-4.3479,-4.3479,-4.3479,-4.3479,0.0,-4.3479,-4.3479,-4.3479,-4.3479,-4.3479,-4.3479,-4.3479,-4.3479,-4.3479,-4.3479,-4.3479,-4.3479,-4.3479,-4.3424,-4.3314,-4.3204,-4.2517,-4.1216,-4.0233,-3.9405,-3.8726,-3.7964,-3.7216,-3.6432,-3.6009,-3.5544,-3.4975,-3.4604,-3.3924,-3.2802,-3.2748,-3.3059,-3.3697,-3.3145,-3.3317,-3.4542,-3.4007,-3.3388,-3.28,-3.2662,-3.2352,-3.1852,-3.18,-3.1696,-3.1507,-3.1679,-3.18,-3.18,-3.1679,-3.1645,-3.1645,-3.1507,-3.142,-3.1455,-3.1472,-3.1783,-3.2455,-3.2559,-3.2817,-3.3561,-3.3854,-3.398,-3.4051,-3.4659,-3.5206,-3.5412,-3.5782,-3.6437,-3.6652,-3.6935,-3.7071,-3.7219,-3.7274,-3.7274,-3.7023,-3.6631,-3.6292,-3.6238,-3.5703,-3.5328,-3.5097,-3.5061,-3.4793,-3.4062,-3.3919,-3.3669,-3.3114,-3.29,-3.2936,-3.2936,-3.2916,-3.2916,-3.2932,-3.2628,-3.2368,-5.0402,-4.9637,-4.9247,-4.8883,-4.8502,-4.8127,-4.7808,-4.7504,-4.7158,-4.6558,-4.5828,-4.5498,-4.5369,-4.5333,-4.4966,-4.48,-4.48,-4.4782,-4.4562,-4.4158,-4.4158,-4.392,-4.3516,-4.3479,-4.3479,-4.3479,-4.3479,-4.3479,-4.3479,-4.3479,-4.3479,-4.3479,-4.3479,-4.3479,-4.3479,-4.3479,-4.3191,-4.263,-4.1689,-4.0583,-3.9336,-3.8557,-3.7875,-3.7291,-3.6468,-3.5978,-3.5787,-3.561,-3.5292,-3.4749,-3.4749,-3.4921,-3.5249,-3.4938,-3.5059,-3.5714,-3.5094,-3.4545,-3.418,-3.3369,-3.2748,-3.2421,-3.2024,-3.18,-3.18,-3.18,-3.18,-3.18,-3.18,-3.18,-3.1817,-3.2162,-3.2386,-3.2386,-3.2748,-3.3179,-3.3473,-3.3542,-3.3697,-3.4079,-3.4458,-3.47,-3.47,-3.5335,-3.5821,-3.5942,-3.6309,-3.6547,-3.6788,-3.6906,-3.7085,-3.7372,-3.7522,-3.7595,-3.7559,-3.7327,-3.7059,-3.7059,-3.6738,-3.6328,-3.5989,-3.5846,-3.5525,-3.4882,-3.4687,-3.4401,-3.3687,-3.3544,-3.34,-3.2936,-3.29,-3.29,-3.29,-3.29,-3.2822,-5.1193,-5.0329,-4.9818,-4.9407,-4.9029,-4.8306,-4.8006,-4.7988,-4.7893,-4.7279,-4.6375,-4.6213,-4.6177,-4.6159,-4.5975,-4.5847,-4.5791,-4.5865,-4.5517,-4.4858,-4.4912,-4.4654,-4.4065,-4.3864,-4.3773,-4.3736,-4.3606,-4.3479,-4.3479,-4.3479,-4.3463,-4.3339,-4.3268,-4.3268,-4.3375,-4.3357,-4.3322,-4.3195,-4.2682,-4.1705,-4.0244,-3.9561,-3.8906,-3.8181,-3.7251,-3.662,-3.6447,-3.6343,-3.6284,-3.6284,-3.6284,-3.6284,-3.6284,-3.6284,-3.6284,-3.6232,-3.5766,-3.537,-3.5128,-3.3938,-3.3179,-3.3145,-3.2645,-3.2317,-3.2317,-3.2317,-3.2231,-3.2093,-3.2076,-3.2145,-3.2403,-3.2835,-3.3162,-3.3214,-3.3697,-3.4093,-3.432,-3.4355,-3.4421,-3.4614,-3.5094,-3.5456,-3.5542,-3.5939,-3.6232,-3.6249,-3.6284,-3.6402,-3.6582,-3.6643,-3.6846,-3.7066,-3.7317,-3.7429,-3.7466,-3.7485,-3.7468,-3.7539,-3.7523,-3.7202,-3.6809,-3.6667,-3.6345,-3.5703,-3.5471,-3.515,-3.4543,-3.4151,-3.3847,-3.3364,-3.3096,-3.29,-3.29,-3.29,-3.2898,-5.1923,-5.123,-5.1072,-5.0304,-4.9095,-4.8528,-4.8179,-4.7915,-4.7606,-4.7617,-4.7627,-4.7239,-4.6965,-4.6892,-4.6269,-4.579,-4.5426,-4.5698,-4.5661,-4.5263,-4.5589,-4.5736,-4.5462,-4.4893,-4.4581,-4.4471,-4.3848,-4.3518,-4.3518,-4.348,-4.3303,-4.2939,-4.2537,-4.2557,-4.2901,-4.2939,-4.275,-4.234,-4.2658,-4.2394,-4.1486,-4.1018,-4.0071,-3.8588,-3.8146,-3.7577,-3.6869,-3.6492,-3.6284,-3.6284,-3.6284,-3.6284,-3.6284,-3.6284,-3.6284,-3.6284,-3.6215,-3.5921,-3.5249,-3.4438,-3.3992,-3.3992,-3.3889,-3.3783,-3.382,-3.3837,-3.3542,-3.3024,-3.2817,-3.3076,-3.3785,-3.3941,-3.3973,-3.399,-3.4148,-3.4355,-3.4938,-3.5094,-3.5335,-3.6025,-3.6025,-3.6197,-3.6128,-3.6215,-3.6266,-3.6284,-3.6284,-3.6322,-3.6364,-3.6544,-3.6664,-3.6766,-3.6946,-3.7046,-3.7087,-3.722,-3.7316,-3.7371,-3.7484,-3.7469,-3.7362,-3.7345,-3.7238,-3.6488,-3.6274,-3.5989,-3.524,-3.4598,-3.4204,-3.3972,-3.3525,-3.2936,-3.29,-3.29,-3.2916,-5.2299,-5.1955,-5.1484,-5.0695,-4.9717,-4.9454,-4.9086,-4.8569,-4.8121,-4.7789,-4.7467,-4.6938,-4.7104,-4.7754,-4.7423,-4.7181,-4.7028,-4.6908,-4.6515,-4.5938,-4.5843,-4.5547,-4.5057,-4.4768,-4.4568,-4.4536,-4.4047,-4.3815,-4.3724,-4.3342,-4.305,-4.2882,-4.2438,-4.2279,-4.2478,-4.2478,-4.2378,-4.2216,-4.2115,-4.1875,-4.1535,-4.0964,-4.0204,-3.9279,-3.8272,-3.7613,-3.7248,-3.6665,-3.6284,-3.6284,-3.6284,-3.6284,-3.6284,-3.6284,-3.6284,-3.6284,-3.6284,-3.618,-3.587,-3.5163,-3.4749,-3.4769,-3.4355,-3.4096,-3.4096,-3.4096,-3.413,-3.4214,-3.3852,-3.3785,-3.4113,-3.4493,-3.4749,-3.4821,-3.5131,-3.5508,-3.5783,-3.5835,-3.599,-3.6249,-3.6284,-3.6301,-3.6284,-3.6284,-3.6284,-3.6284,-3.6301,-3.637,-3.6339,-3.6402,-3.6461,-3.6482,-3.6547,-3.671,-3.6928,-3.7066,-3.7163,-3.7278,-3.7372,-3.7447,-3.7558,-3.7595,-3.7452,-3.7131,-3.7059,-3.6738,-3.606,-3.5721,-3.5364,-3.4882,-3.4151,-3.3507,-3.3007,-3.29,-3.29,-5.2024,-5.1958,-5.1537,-5.0917,-5.0195,-5.0218,-4.9901,-4.93,-4.8662,-4.8023,-4.7465,-4.6955,-4.7106,-4.7715,-4.7772,-4.7793,-4.7754,-4.7436,-4.6912,-4.6295,-4.6038,-4.5682,-4.5187,-4.4898,-4.4826,-4.4749,-4.4363,-4.4101,-4.3925,-4.3222,-4.2791,-4.2668,-4.2133,-4.1885,-4.199,-4.2029,-4.2011,-4.1969,-4.1666,-4.1468,-4.1286,-4.0809,-4.0269,-3.9675,-3.8686,-3.803,-3.7806,-3.7232,-3.6835,-3.6628,-3.6611,-3.6525,-3.6318,-3.6284,-3.6284,-3.6284,-3.6284,-3.6284,-3.6284,-3.5801,-3.549,-3.5456,-3.4973,-3.4697,-3.4717,-3.4697,-3.4921,-3.5335,-3.5007,-3.4734,-3.4786,-3.518,-3.5473,-3.5542,-3.6008,-3.6284,-3.6266,-3.6284,-3.637,-3.6559,-3.6697,-3.6715,-3.6887,-3.6991,-3.7042,-3.7042,-3.6991,-3.6922,-3.6922,-3.6991,-3.7012,-3.6904,-3.6822,-3.6669,-3.6821,-3.6869,-3.6987,-3.7085,-3.7161,-3.7297,-3.7466,-3.7503,-3.7558,-3.7326,-3.7523,-3.7434,-3.6827,-3.6595,-3.6131,-3.5418,-3.4757,-3.4151,-3.3473,-3.3293,-3.3114,-5.0778,-5.0885,-5.1353,-5.109,-5.0394,-5.0461,-5.0293,-4.9884,-4.9023,-4.844,-4.8138,-4.7671,-4.7132,-4.6631,-4.6831,-4.6724,-4.6642,-4.6707,-4.646,-4.6,-4.6348,-4.6682,-4.6743,-4.6012,-4.561,-4.5427,-4.4782,-4.4313,-4.3974,-4.3148,-4.2538,-4.2246,-4.1458,-4.1186,-4.149,-4.1556,-4.1516,-4.1512,-4.1468,-4.1288,-4.0971,-4.0907,-4.0492,-3.9819,-3.9595,-3.9181,-3.8651,-3.853,-3.8146,-3.7478,-3.7443,-3.7133,-3.6439,-3.6335,-3.6353,-3.6301,-3.6301,-3.6284,-3.6284,-3.6215,-3.6197,-3.6215,-3.6056,-3.6125,-3.5969,-3.5952,-3.6021,-3.6215,-3.6146,-3.6128,-3.6128,-3.6094,-3.6197,-3.6249,-3.6284,-3.6353,-3.6387,-3.6542,-3.668,-3.7232,-3.7443,-3.765,-3.8284,-3.8491,-3.8336,-3.8318,-3.8405,-3.8353,-3.8205,-3.8313,-3.8301,-3.8141,-3.7784,-3.7202,-3.6588,-3.6547,-3.6702,-3.6823,-3.6985,-3.7085,-3.7201,-3.7334,-3.7411,-3.7503,-3.7522,-3.7487,-3.7398,-3.6952,-3.6256,-3.5685,-3.5418,-3.4847,-3.4169,-3.4079,-3.383,-5.1061,-5.0707,-5.0911,-5.0858,-5.0602,-5.0593,-5.0272,-4.9674,-4.903,-4.838,-4.7832,-4.7336,-4.7126,-4.7169,-4.6957,-4.6716,-4.6442,-4.6158,-4.591,-4.5767,-4.5674,-4.5641,-4.564,-4.5379,-4.53,-4.5304,-4.4868,-4.4451,-4.4046,-4.3164,-4.2587,-4.2254,-4.1383,-4.0989,-4.1111,-4.1117,-4.1088,-4.0995,-4.0977,-4.0877,-4.0704,-4.0721,-4.0614,-4.0339,-3.991,-3.956,-3.9301,-3.8853,-3.8474,-3.8203,-3.818,-3.8055,-3.7657,-3.7188,-3.6711,-3.6302,-3.6259,-3.6284,-3.6284,-3.6255,-3.6233,-3.6212,-3.6148,-3.6178,-3.6127,-3.617,-3.6229,-3.6337,-3.6814,-3.7025,-3.6939,-3.6611,-3.6508,-3.6978,-3.7077,-3.7249,-3.7646,-3.7784,-3.7905,-3.8151,-3.8203,-3.8341,-3.8577,-3.8612,-3.8594,-3.8594,-3.8612,-3.8556,-3.834,-3.8437,-3.859,-3.8328,-3.8213,-3.8116,-3.7892,-3.6899,-3.6482,-3.6643,-3.6786,-3.6926,-3.7044,-3.7085,-3.7182,-3.7353,-3.7392,-3.7467,-3.7415,-3.7398,-3.6649,-3.6238,-3.5971,-3.565,-3.4972,-3.4865,-3.4436,-5.0706,-5.022,-5.0359,-5.0425,-5.047,-5.0643,-5.0399,-4.9836,-4.9351,-4.8717,-4.8002,-4.7406,-4.724,-4.7307,-4.7077,-4.6809,-4.6473,-4.5943,-4.5613,-4.539,-4.5096,-4.4968,-4.5005,-4.5022,-4.5059,-4.5108,-4.4906,-4.4649,-4.4302,-4.3506,-4.2869,-4.2393,-4.1529,-4.1016,-4.0827,-4.0799,-4.0769,-4.0673,-4.0673,-4.0648,-4.0534,-4.0583,-4.0648,-4.0563,-4.0188,-3.9984,-4.0031,-3.9525,-3.913,-3.8917,-3.8866,-3.8745,-3.8374,-3.7883,-3.7369,-3.6911,-3.6886,-3.6956,-3.6956,-3.6903,-3.6899,-3.6903,-3.6816,-3.6693,-3.6732,-3.6798,-3.682,-3.7002,-3.7381,-3.7787,-3.7661,-3.7283,-3.724,-3.7749,-3.7858,-3.8047,-3.853,-3.8577,-3.8681,-3.8922,-3.9232,-3.9319,-3.9319,-3.9353,-3.941,-3.9359,-3.9341,-3.9175,-3.8894,-3.8924,-3.9082,-3.8789,-3.876,-3.8832,-3.867,-3.7978,-3.7154,-3.7161,-3.7085,-3.707,-3.6931,-3.6956,-3.7003,-3.7161,-3.7278,-3.7392,-3.7485,-3.7558,-3.7309,-3.6845,-3.6738,-3.6524,-3.6024,-3.5632,-3.5169,-4.9585,-4.9199,-4.9627,-4.989,-4.9959,-5.0359,-5.0626,-5.0365,-4.9987,-4.9321,-4.8621,-4.8141,-4.7627,-4.7052,-4.7115,-4.6925,-4.6787,-4.6317,-4.5744,-4.5131,-4.4922,-4.496,-4.507,-4.4985,-4.4968,-4.5022,-4.4971,-4.4862,-4.462,-4.4061,-4.333,-4.2438,-4.1845,-4.1235,-4.0585,-4.07,-4.0648,-4.0558,-4.06,-4.06,-4.051,-4.0493,-4.0493,-4.051,-4.0441,-4.048,-4.0604,-4.0594,-4.0151,-3.9549,-3.9476,-3.9146,-3.8568,-3.8294,-3.8196,-3.806,-3.8111,-3.8208,-3.8265,-3.8111,-3.8037,-3.8083,-3.8134,-3.7928,-3.7877,-3.7951,-3.7991,-3.7974,-3.822,-3.8368,-3.83,-3.8363,-3.8437,-3.8572,-3.855,-3.8579,-3.875,-3.8681,-3.8905,-3.9612,-4.0215,-4.0808,-4.0843,-4.0565,-4.0472,-4.049,-4.0459,-4.0257,-3.9832,-3.9798,-4.0127,-3.9942,-3.9508,-3.9197,-3.9208,-3.9077,-3.8353,-3.7789,-3.7642,-3.7521,-3.7106,-3.698,-3.696,-3.7068,-3.7161,-3.7278,-3.7411,-3.7503,-3.7558,-3.7273,-3.7309,-3.7219,-3.6773,-3.6257,-3.59,-4.9168,-4.9032,-4.9199,-4.9273,-4.9303,-4.9466,-4.9521,-4.9538,-4.9333,-4.9137,-4.8937,-4.8738,-4.8511,-4.8359,-4.8308,-4.8037,-4.7564,-4.7323,-4.6878,-4.6213,-4.5687,-4.5462,-4.5388,-4.4975,-4.4776,-4.4858,-4.4968,-4.4912,-4.4685,-4.4177,-4.3596,-4.31,-4.2116,-4.1502,-4.1195,-4.0825,-4.0485,-4.0362,-4.0404,-4.0362,-4.0263,-4.0313,-4.0362,-4.0362,-4.0461,-4.0485,-4.0412,-4.051,-4.0414,-4.0127,-4.0175,-3.9826,-3.9116,-3.8915,-3.8618,-3.8148,-3.815,-3.8213,-3.8253,-3.8178,-3.8142,-3.8148,-3.8071,-3.8007,-3.799,-3.8078,-3.8125,-3.8199,-3.8651,-3.9063,-3.9108,-3.9542,-3.959,-3.9244,-3.9006,-3.9211,-3.9806,-4.0031,-4.0273,-4.048,-4.0756,-4.0894,-4.0823,-4.0721,-4.0534,-4.0461,-4.0279,-3.9935,-3.9582,-3.9696,-3.9653,-3.942,-3.9335,-3.948,-3.9564,-3.9617,-3.9317,-3.8677,-3.8362,-3.7969,-3.7508,-3.718,-3.7116,-3.703,-3.7091,-3.7143,-3.7316,-3.7428,-3.7466,-3.754,-3.7469,-3.7307,-3.7109,-3.6807,-3.6452,-4.9199,-4.9001,-4.9018,-4.9018,-4.9018,-4.9018,-4.9001,-4.9018,-4.9018,-4.9018,-4.9001,-4.9001,-4.9018,-4.9018,-4.9018,-4.8765,-4.8311,-4.8294,-4.8071,-4.7496,-4.6532,-4.6126,-4.6024,-4.5348,-4.4891,-4.481,-4.4831,-4.4831,-4.4786,-4.4371,-4.3926,-4.3413,-4.2685,-4.1946,-4.1512,-4.1052,-4.0669,-4.0306,-4.028,-4.0255,-4.0163,-4.0188,-4.023,-4.0238,-4.0313,-4.0296,-4.0238,-4.0313,-4.0345,-4.0345,-4.0362,-4.0099,-3.9659,-3.9559,-3.9297,-3.8948,-3.8877,-3.8966,-3.8973,-3.8928,-3.8812,-3.8846,-3.8773,-3.8734,-3.8759,-3.8764,-3.8771,-3.8897,-3.935,-3.973,-3.9749,-4.0105,-4.0205,-3.986,-3.9654,-3.9785,-4.0358,-4.0195,-4.0128,-4.0128,-4.0311,-4.0468,-4.051,-4.0534,-4.0313,-4.0213,-3.9978,-3.9549,-3.9249,-3.9249,-3.9115,-3.9061,-3.9166,-3.9475,-3.9902,-4.0043,-4.0156,-3.9672,-3.9144,-3.8614,-3.8072,-3.7767,-3.7595,-3.7276,-3.7231,-3.702,-3.7124,-3.7278,-3.7372,-3.7447,-3.7484,-3.7376,-3.7212,-3.7266,-3.6983,-4.9496,-4.9032,-4.9018,-4.9018,-4.9018,-4.9018,-4.9018,-4.9018,-4.9018,-4.9018,-4.9018,-4.9018,-4.9018,-4.9018,-4.9018,-4.8951,-4.8984,-4.8917,-4.8866,-4.8494,-4.7614,-4.6938,-4.6599,-4.5923,-4.5337,-4.4975,-4.4749,-4.4699,-4.4748,-4.4597,-4.4215,-4.3633,-4.3362,-4.2743,-4.1747,-4.1418,-4.0968,-4.04,-4.0281,-4.0213,-4.0096,-4.0113,-4.0096,-4.0113,-4.0121,-4.0121,-4.0138,-4.0138,-4.0138,-4.0096,-4.0138,-4.0154,-4.0204,-4.0146,-4.0019,-3.9918,-4.0045,-4.0035,-4.017,-3.9934,-3.9943,-4.0,-3.9909,-4.0096,-3.9893,-3.9791,-3.9833,-3.9867,-4.001,-4.0053,-3.9961,-3.9961,-4.0037,-4.0129,-4.0018,-4.0011,-3.9551,-3.9086,-3.9113,-3.9252,-3.9428,-3.9662,-3.9927,-4.0062,-4.0028,-3.9876,-3.9722,-3.9259,-3.9034,-3.8816,-3.8914,-3.8914,-3.8843,-3.9071,-3.9401,-3.9653,-3.9775,-3.9774,-3.9382,-3.8952,-3.8448,-3.8127,-3.7876,-3.758,-3.7238,-3.7021,-3.6939,-3.7128,-3.7175,-3.7164,-3.7203,-3.7278,-3.7278,-3.7257,-3.7184,-4.9155,-4.9018,-4.9018,-4.9018,-4.9018,-4.9018,-4.9018,-4.9018,-4.9018,-4.9018,-4.9018,-4.9018,-4.9018,-4.9018,-4.9018,-4.9018,-4.9018,-4.9018,-4.9018,-4.8968,-4.8663,-4.775,-4.6836,-4.6075,-4.5647,-4.5388,-4.4919,-4.4643,-4.4654,-4.4643,-4.4496,-4.4265,-4.3707,-4.3284,-4.276,-4.1805,-4.1205,-4.0849,-4.0375,-4.0155,-4.0096,-4.0113,-4.0113,-4.0113,-4.0113,-4.0113,-4.0113,-4.0113,-4.0113,-4.0113,-4.0113,-4.0096,-4.0163,-4.0121,-4.0113,-4.0113,-4.0113,-4.0113,-4.0138,-4.0138,-4.0138,-4.0138,-4.0121,-4.0113,-4.0113,-4.0113,-4.0113,-4.002,-3.9773,-3.9497,-3.9391,-3.9135,-3.893,-3.8887,-3.9385,-3.9437,-3.8767,-3.8624,-3.8745,-3.8843,-3.887,-3.8978,-3.9032,-3.8968,-3.8865,-3.8701,-3.8535,-3.8311,-3.8298,-3.8258,-3.8286,-3.8331,-3.8343,-3.8551,-3.8827,-3.9115,-3.9355,-3.9568,-3.9377,-3.9084,-3.8587,-3.8145,-3.7963,-3.7774,-3.7291,-3.7002,-3.6964,-3.705,-3.7004,-3.7046,-3.7046,-3.7142,-3.7005,-3.6946,-3.6946,-4.9018,-4.9018,-4.9018,-4.9018,-4.9018,-4.9018,-4.9018,-4.9018,-4.9018,-4.9018,-4.9018,-4.9018,-4.9018,-4.9018,-4.9018,-4.9018,-4.9018,-4.9018,-4.9018,-4.9018,-4.8968,-4.8325,-4.7394,-4.6769,-4.6329,-4.5686,-4.528,-4.4919,-4.4649,-4.4598,-4.4598,-4.453,-4.4147,-4.3741,-4.3274,-4.2632,-4.1779,-4.1255,-4.073,-4.0426,-4.0146,-4.0113,-4.0113,-4.0113,-4.0113,-4.0113,-4.0113,-4.0113,-4.0113,-4.0113,-4.0113,-4.0113,-4.0113,-4.0113,-4.0113,-4.0113,-4.0113,-4.0113,-4.0113,-4.0113,-4.0113,-4.0113,-4.0113,-4.0113,-4.0113,-4.0113,-4.0113,-4.0045,-3.954,-3.9259,-3.9098,-3.8673,-3.8238,-3.8067,-3.8362,-3.8435,-3.7857,-3.7735,-3.7851,-3.7953,-3.8096,-3.8222,-3.8334,-3.821,-3.8112,-3.8042,-3.7956,-3.7812,-3.7725,-3.7711,-3.7711,-3.7786,-3.7844,-3.7985,-3.8226,-3.8507,-3.8799,-3.9038,-3.9156,-3.8931,-3.8724,-3.8288,-3.8228,-3.799,-3.7424,-3.7104,-3.7195,-3.7212,-3.7145,-3.7144,-3.7091,-3.6921,-3.6798,-3.6725,-3.6725,-4.9018,-4.9018,-4.9018,-4.9018,-4.9018,-4.9018,-4.9018,-4.9018,-4.9018,-4.9018,-4.9018,-4.9018,-4.9018,-4.9018,-4.9018,-4.9018,-4.9018,-4.9018,-4.9018,-4.9018,-4.8968,-4.8612,-4.8058,-4.772,-4.7124,-4.6227,-4.5872,-4.5331,-4.4891,-4.4716,-4.4598,-4.4581,-4.4564,-4.4215,-4.3707,-4.3358,-4.2675,-4.1796,-4.1424,-4.095,-4.0485,-4.035,-4.0299,-4.0113,-4.0113,-4.0113,-4.0113,-4.0113,-4.0113,-4.0113,-4.0113,-4.0113,-4.0113,-4.0113,-4.0113,-4.0113,-4.0113,-4.0113,-4.0113,-4.0113,-4.0113,-4.0113,-4.0113,-4.0045,-3.9952,-3.9901,-3.985,-3.9679,-3.9339,-3.8838,-3.8601,-3.8294,-3.7838,-3.7431,-3.7342,-3.7328,-3.7208,-3.6846,-3.6616,-3.6908,-3.721,-3.7447,-3.7695,-3.7911,-3.7982,-3.746,-3.7387,-3.7358,-3.7344,-3.7373,-3.7373,-3.7403,-3.7433,-3.7433,-3.7695,-3.7924,-3.821,-3.849,-3.8673,-3.8646,-3.8717,-3.8504,-3.8508,-3.827,-3.7811,-3.7635,-3.7704,-3.7617,-3.7404,-3.7283,-3.7249,-3.6911,-3.6638,-3.6596,-3.6564,-4.9018,-4.9018,-4.9018,-4.9018,-4.9018,-4.9018,-4.9018,-4.9018,-4.9018,-4.9018,-4.9018,-4.9018,-4.9018,-4.9018,-4.9018,-4.9018,-4.9018,-4.9018,-4.9018,-4.9018,-4.9018,-4.8951,-4.8629,-4.8257,-4.7767,-4.7158,-4.6194,-4.5652,-4.5365,-4.4891,-4.4598,-4.4615,-4.4581,-4.4513,-4.4265,-4.3724,-4.3308,-4.2817,-4.2354,-4.1694,-4.1085,-4.0882,-4.0612,-4.018,-4.0113,-4.0113,-4.0113,-4.0113,-4.0113,-4.0113,-4.0113,-4.0113,-4.0113,-4.0113,-4.0113,-4.0113,-4.0113,-4.0113,-4.0113,-4.0113,-4.0113,-4.0113,-4.007,-3.9876,-3.9418,-3.9418,-3.9189,-3.8739,-3.8169,-3.7754,-3.7342,-3.7043,-3.6922,-3.68,-3.6754,-3.6754,-3.6693,-3.6569,-3.6569,-3.6616,-3.6708,-3.6754,-3.68,-3.6952,-3.6937,-3.6831,-3.6861,-3.6907,-3.6968,-3.7075,-3.7059,-3.7043,-3.7134,-3.7164,-3.7224,-3.749,-3.7783,-3.7998,-3.8157,-3.827,-3.8362,-3.8442,-3.8368,-3.8311,-3.8213,-3.8164,-3.8128,-3.7752,-3.7465,-3.743,-3.7393,-3.7072,-3.6822,-3.6638,-3.636,-4.9018,-4.9018,-4.9018,-4.9018,-4.9018,-4.9018,-4.9018,-4.9018,-4.9018,-4.9018,-4.9018,-4.9018,-4.9018,-4.9018,-4.9018,-4.9018,-4.9018,-4.9018,-4.9018,-4.9018,-4.9018,-4.9018,-4.8968,-4.8629,-4.8291,-4.7868,-4.7192,-4.6481,-4.5771,-4.5314,-4.497,-4.4632,-4.4598,-4.4581,-4.4598,-4.4147,-4.3792,-4.3358,-4.3047,-4.2455,-4.183,-4.1339,-4.0849,-4.0248,-4.0113,-4.0113,-4.0113,-4.0113,-4.0113,-4.0113,-4.0113,-4.0113,-4.0113,-4.0113,-4.0113,-4.0113,-4.0113,-4.0113,-4.0113,-4.0113,-4.0113,-4.0113,-4.0113,-3.9747,-3.9365,-3.9189,-3.892,-3.8351,-3.7767,-3.7194,-3.6585,-3.6523,-3.6492,-3.6492,-3.6492,-3.6492,-3.6492,-3.6492,-3.6492,-3.6492,-3.6523,-3.6523,-3.6492,-3.6492,-3.6523,-3.6662,-3.6662,-3.6708,-3.6677,-3.677,-3.677,-3.6785,-3.6877,-3.6907,-3.6862,-3.7059,-3.7373,-3.7565,-3.7695,-3.7799,-3.7825,-3.7956,-3.8055,-3.8112,-3.8204,-3.846,-3.8401,-3.798,-3.7753,-3.7917,-3.7821,-3.7396,-3.6996,-3.6728,-3.6373,-4.9018,-4.9018,-4.9018,-4.9018,-4.9018,-4.9018,-4.9018,-4.9018,-4.9018,-4.9018,-4.9018,-4.9018,-4.9018,-4.9018,-4.9018,-4.9018,-4.9018,-4.9018,-4.9018,-4.9018,-4.9018,-4.9018,-4.8984,-4.8883,-4.8663,-4.8075,-4.7787,-4.7094,-4.638,-4.5771,-4.5331,-4.4869,-4.4615,-4.4615,-4.4598,-4.4581,-4.4265,-4.3758,-4.3656,-4.3217,-4.2557,-4.1948,-4.1373,-4.079,-4.0417,-4.04,-4.035,-4.0231,-4.0113,-4.0113,-4.0113,-4.0113,-4.0113,-4.0113,-4.0113,-4.0113,-4.0113,-4.0113,-4.0113,-4.0113,-4.0113,-4.0113,-3.9969,-3.967,-3.9189,-3.881,-3.8407,-3.7982,-3.7431,-3.6997,-3.6585,-3.6492,-3.6492,-3.6492,-3.6492,-3.6492,-3.6492,-3.6492,-3.6492,-3.6492,-3.6492,-3.6492,-3.6492,-3.6492,-3.6492,-3.6492,-3.6492,-3.6492,-3.6492,-3.6523,-3.6554,-3.6585,-3.6677,-3.6723,-3.6677,-3.6708,-3.7029,-3.721,-3.7344,-3.7387,-3.7462,-3.7623,-3.7799,-3.8033,-3.8206,-3.8402,-3.8487,-3.8215,-3.8154,-3.8411,-3.8187,-3.77,-3.7259,-3.6814,-3.6417,-4.9018,-4.9018,-4.9018,-4.9018,-4.9018,-4.9018,-4.9018,-4.9018,-4.9018,-4.9018,-4.9018,-4.9018,-4.9018,-4.9018,-4.9018,-4.9018,-4.9018,-4.9018,-4.9018,-4.9018,-4.9018,-4.9018,-4.9018,-4.9001,-4.89,-4.8697,-4.8277,-4.772,-4.7162,-4.638,-4.5805,-4.5449,-4.4942,-4.4682,-4.4615,-4.4598,-4.4547,-4.4265,-4.4231,-4.3876,-4.3335,-4.2946,-4.2472,-4.1745,-4.1238,-4.1052,-4.0865,-4.0468,-4.0113,-4.0113,-4.0113,-4.0146,-4.0265,-4.0265,-4.0214,-4.007,-4.002,-3.9995,-3.9995,-4.002,-4.007,-3.9995,-3.9627,-3.9082,-3.8518,-3.8055,-3.765,-3.7148,-3.6861,-3.66,-3.6523,-3.6492,-3.6492,-3.6492,-3.6492,-3.6492,-3.6492,-3.6492,-3.6492,-3.6492,-3.6492,-3.6492,-3.6492,-3.6492,-3.6492,-3.6492,-3.6492,-3.6492,-3.6492,-3.6492,-3.6523,-3.6523,-3.6523,-3.6554,-3.6523,-3.6554,-3.6693,-3.6923,-3.7059,-3.7164,-3.7224,-3.7342,-3.7535,-3.761,-3.7815,-3.8026,-3.8088,-3.8177,-3.8389,-3.8556,-3.8275,-3.7958,-3.7561,-3.7111,-3.6547,-4.9018,-4.9018,-4.9018,-4.9018,-4.9018,-4.9018,-4.9018,-4.9018,-4.9018,-4.9018,-4.9018,-4.9018,-4.9018,-4.9018,-4.9018,-4.9018,-4.9018,-4.9018,-4.9018,-4.9018,-4.9018,-4.9018,-4.9018,-4.9018,-4.9018,-4.8917,-4.8629,-4.8223,-4.7902,-4.7259,-4.643,-4.5737,-4.5297,-4.4993,-4.4682,-4.4598,-4.4598,-4.4598,-4.4564,-4.4429,-4.3978,-4.369,-4.302,-4.2405,-4.2016,-4.1796,-4.1694,-4.1508,-4.128,-4.128,-4.1264,-4.1221,-4.1187,-4.1145,-4.0865,-4.0265,-3.9892,-3.9661,-3.9566,-3.9375,-3.9135,-3.9135,-3.8925,-3.8463,-3.7969,-3.7549,-3.7166,-3.6739,-3.6492,-3.6492,-3.6492,-3.6522,-3.6492,-3.6492,-3.6492,-3.6492,-3.6492,-3.6492,-3.6492,-3.6492,-3.6492,-3.6492,-3.6492,-3.6492,-3.6492,-3.6492,-3.6492,-3.6492,-3.6492,-3.6492,-3.6492,-3.6492,-3.6492,-3.6492,-3.6492,-3.6523,-3.6523,-3.6708,-3.68,-3.6907,-3.6938,-3.7013,-3.6983,-3.6952,-3.7208,-3.7578,-3.7854,-3.8019,-3.8355,-3.8628,-3.8499,-3.8249,-3.7854,-3.7378,-3.6787,-4.9018,-4.9018,-4.9018,-4.9018,-4.9018,-4.9018,-4.9018,-4.9018,-4.9018,-4.9018,-4.9018,-4.9018,-4.9018,-4.9018,-4.9018,-4.9018,-4.9018,-4.9018,-4.9018,-4.9018,-4.9018,-4.9018,-4.9018,-4.9018,-4.9018,-4.9001,-4.8951,-4.8697,-4.8274,-4.7821,-4.709,-4.6261,-4.5855,-4.5331,-4.4767,-4.4598,-4.4598,-4.4598,-4.4598,-4.4598,-4.4445,-4.3978,-4.3403,-4.2777,-4.2608,-4.2506,-4.2506,-4.2219,-4.2134,-4.2134,-4.2168,-4.2219,-4.2269,-4.2286,-4.1675,-4.0557,-3.9867,-3.969,-3.9534,-3.918,-3.9113,-3.9129,-3.8694,-3.8302,-3.8011,-3.7898,-3.7467,-3.7017,-3.6969,-3.703,-3.7092,-3.6815,-3.6753,-3.6692,-3.663,-3.6492,-3.6492,-3.6492,-3.6492,-3.6492,-3.6492,-3.6492,-3.6492,-3.6492,-3.6492,-3.6492,-3.6492,-3.6492,-3.6492,-3.6492,-3.6492,-3.6492,-3.6492,-3.6492,-3.6492,-3.6492,-3.6523,-3.6554,-3.6616,-3.6677,-3.6616,-3.6616,-3.6585,-3.6631,-3.68,-3.7178,-3.7535,-3.7799,-3.7943,-3.8173,-3.8539,-3.8416,-3.7799,-3.7384,-3.6926,-4.9018,-4.9018,-4.9018,-4.9018,-4.9018,-4.9018,-4.9018,-4.9018,-4.9018,-4.9018,-4.9018,-4.9018,-4.9018,-4.9018,-4.9018,-4.9018,-4.9018,-4.9018,-4.9018,-4.9018,-4.9018,-4.9018,-4.9018,-4.9018,-4.9018,-4.9018,-4.9018,-4.8984,-4.868,-4.8193,-4.7564,-4.6752,-4.6041,-4.5365,-4.4835,-4.4649,-4.4598,-4.4598,-4.4598,-4.4598,-4.4581,-4.4462,-4.431,-4.409,-4.3656,-4.3284,-4.3217,-4.2878,-4.2557,-4.2472,-4.2405,-4.2337,-4.2303,-4.2303,-4.1913,-4.1394,-4.1094,-4.1021,-4.0708,-4.0001,-3.9601,-3.9466,-3.932,-3.9233,-3.8795,-3.8449,-3.8192,-3.8294,-3.82,-3.8092,-3.7908,-3.7661,-3.7461,-3.7183,-3.6999,-3.6753,-3.663,-3.6967,-3.6906,-3.6707,-3.6769,-3.6599,-3.6538,-3.6507,-3.6492,-3.6492,-3.6492,-3.6492,-3.6492,-3.6492,-3.6492,-3.6492,-3.6492,-3.6492,-3.6492,-3.6492,-3.6492,-3.6492,-3.6492,-3.6492,-3.6492,-3.6492,-3.6492,-3.6585,-3.6693,-3.6785,-3.7089,-3.7329,-3.7462,-3.7711,-3.8014,-3.7915,-3.7546,-3.7211,-3.7037,-4.9018,-4.9018,-4.9018,-4.9018,-4.9018,-4.9018,-4.9018,-4.9018,-4.9018,-4.9018,-4.9018,-4.9018,-4.9018,-4.9018,-4.9018,-4.9018,-4.9018,-4.9018,-4.9018,-4.9018,-4.9018,-4.9018,-4.9018,-4.9018,-4.9018,-4.9018,-4.9018,-4.9001,-4.8866,-4.868,-4.8173,-4.7394,-4.6684,-4.5991,-4.5145,-4.4801,-4.4649,-4.4598,-4.4598,-4.4598,-4.4598,-4.4598,-4.4598,-4.4598,-4.4215,-4.4079,-4.3944,-4.3842,-4.3616,-4.3517,-4.3289,-4.2974,-4.2844,-4.2659,-4.2246,-4.2021,-4.1567,-4.0995,-4.0244,-3.969,-3.9519,-3.933,-3.9091,-3.8837,-3.8819,-3.8735,-3.8569,-3.8492,-3.8508,-3.8554,-3.8569,-3.8246,-3.8073,-3.7826,-3.7517,-3.7424,-3.7301,-3.7441,-3.7533,-3.7274,-3.7046,-3.6922,-3.6768,-3.6614,-3.6568,-3.6492,-3.6492,-3.6492,-3.6492,-3.6492,-3.6492,-3.6492,-3.6492,-3.6492,-3.6492,-3.6492,-3.6492,-3.6492,-3.6492,-3.6492,-3.6492,-3.6492,-3.6492,-3.6492,-3.6585,-3.6677,-3.6754,-3.6923,-3.718,-3.7373,-3.7519,-3.7417,-3.7314,-3.7383,-3.7061,-4.9018,-4.9018,-4.9018,-4.9018,-4.9018,-4.9018,-4.9018,-4.9018,-4.9018,-4.9018,-4.9018,-4.9018,-4.9018,-4.9018,-4.9018,-4.9018,-4.9018,-4.9018,-4.9018,-4.9018,-4.9018,-4.9018,-4.9018,-4.9018,-4.9018,-4.9018,-4.9018,-4.9018,-4.9018,-4.8883,-4.8562,-4.7906,-4.7314,-4.6532,-4.5771,-4.5213,-4.4874,-4.4598,-4.4598,-4.4598,-4.4598,-4.4598,-4.4598,-4.4598,-4.4598,-4.4598,-4.4598,-4.453,-4.453,-4.4367,-4.3793,-4.3385,-4.3313,-4.2815,-4.2341,-4.2059,-4.1645,-4.0988,-4.0209,-3.9551,-3.9049,-3.9016,-3.9016,-3.9267,-3.9172,-3.9016,-3.9031,-3.9185,-3.917,-3.9123,-3.8936,-3.889,-3.8606,-3.8415,-3.818,-3.8177,-3.8147,-3.804,-3.7903,-3.7646,-3.7466,-3.7393,-3.7178,-3.6859,-3.6675,-3.6553,-3.6492,-3.646,-3.646,-3.6429,-3.6414,-3.6383,-3.6492,-3.6492,-3.6492,-3.6492,-3.6492,-3.6492,-3.6492,-3.6492,-3.6492,-3.6492,-3.6492,-3.6492,-3.6492,-3.6523,-3.6631,-3.677,-3.6923,-3.7029,-3.7104,-3.7164,-3.7164,-3.7238,-3.7062,-4.9018,-4.9018,-4.9018,-4.9018,-4.9018,-4.9018,-4.9018,-4.9018,-4.9018,-4.9018,-4.9018,-4.9018,-4.9018,-4.9018,-4.9018,-4.9018,-4.9018,-4.9018,-4.9018,-4.9018,-4.9001,-4.9001,-4.9001,-4.9018,-4.9018,-4.9018,-4.9018,-4.9018,-4.9018,-4.9001,-4.8562,-4.7939,-4.7736,-4.6904,-4.616,-4.5669,-4.5094,-4.475,-4.4598,-4.4598,-4.4598,-4.4598,-4.4598,-4.4598,-4.4598,-4.4598,-4.4598,-4.4598,-4.4468,-4.444,-4.3735,-4.3257,-4.3045,-4.252,-4.1981,-4.1608,-4.1475,-4.0921,-4.0349,-4.0164,-4.0278,-4.0305,-4.0228,-4.0059,-3.9997,-4.0228,-4.0305,-4.012,-3.9932,-4.0055,-3.9914,-3.9692,-3.9222,-3.8948,-3.8728,-3.8508,-3.8447,-3.8326,-3.8174,-3.801,-3.7925,-3.7854,-3.7613,-3.7294,-3.69,-3.6733,-3.6382,-3.6336,-3.6258,-3.6258,-3.6242,-3.6274,-3.6414,-3.646,-3.646,-3.6492,-3.6492,-3.6492,-3.6492,-3.6492,-3.6492,-3.6492,-3.6492,-3.6492,-3.6492,-3.6492,-3.6492,-3.6616,-3.6708,-3.6647,-3.6708,-3.6846,-3.6907,-3.6907,-3.6687,-4.9018,-4.9018,-4.9018,-4.9018,-4.9018,-4.9018,-4.9018,-4.9018,-4.9018,-4.9018,-4.9018,-4.9018,-4.9018,-4.9001,-4.9001,-4.9018,-4.9018,-4.9018,-4.9001,-4.8987,-4.8925,-4.894,-4.8956,-4.8956,-4.8925,-4.897,-4.9001,-4.9018,-4.9018,-4.9018,-4.89,-4.8545,-4.8142,-4.7686,-4.7022,-4.6109,-4.5314,-4.4807,-4.4615,-4.4598,-4.4598,-4.4598,-4.4598,-4.4598,-4.4598,-4.4598,-4.4598,-4.4598,-4.4338,-4.3885,-4.3273,-4.2831,-4.2332,-4.1706,-4.1276,-4.0956,-4.0938,-4.0783,-4.0627,-4.0489,-4.0489,-4.0489,-4.0474,-4.0505,-4.0505,-4.0489,-4.0436,-4.037,-4.0381,-4.0366,-4.0115,-3.9878,-3.9656,-3.9475,-3.9238,-3.8942,-3.8786,-3.8696,-3.8625,-3.8508,-3.8474,-3.8421,-3.8086,-3.7737,-3.7316,-3.694,-3.6529,-3.6194,-3.6208,-3.61,-3.6085,-3.6101,-3.6226,-3.632,-3.632,-3.6398,-3.6492,-3.6492,-3.6492,-3.6492,-3.6492,-3.6492,-3.6492,-3.6492,-3.6492,-3.6492,-3.6492,-3.6492,-3.6523,-3.6554,-3.6585,-3.6616,-3.6616,-3.6616,-3.6445,-4.9018,-4.9001,-4.894,-4.894,-4.9001,-4.9018,-4.9018,-4.9018,-4.9018,-4.9018,-4.9018,-4.9018,-4.9018,-4.9001,-4.894,-4.8956,-4.8909,-4.8877,-4.8877,-4.8863,-4.8801,-4.8815,-4.8832,-4.8832,-4.8769,-4.8909,-4.8956,-4.8956,-4.8925,-4.8956,-4.8844,-4.8644,-4.8419,-4.8098,-4.7483,-4.6498,-4.5404,-4.497,-4.4654,-4.4615,-4.4598,-4.4598,-4.4598,-4.457,-4.4525,-4.4468,-4.4468,-4.444,-4.4076,-4.3469,-4.28,-4.2109,-4.1426,-4.0802,-4.047,-4.0436,-4.042,-4.0455,-4.0505,-4.0489,-4.047,-4.0436,-4.0436,-4.0436,-4.0436,-4.0401,-4.0261,-4.0331,-4.0277,-4.0137,-3.9975,-3.9884,-3.9768,-3.9577,-3.9465,-3.9228,-3.9258,-3.9198,-3.9164,-3.9063,-3.9048,-3.8977,-3.8666,-3.8269,-3.7831,-3.7334,-3.6776,-3.6457,-3.6334,-3.6182,-3.5894,-3.5958,-3.6053,-3.6116,-3.6148,-3.6242,-3.6352,-3.6352,-3.6352,-3.646,-3.646,-3.646,-3.6429,-3.6383,-3.6383,-3.646,-3.646,-3.6429,-3.646,-3.6492,-3.6523,-3.6554,-3.6554,-3.6554,-3.6554,-4.9001,-4.8987,-4.8863,-4.8863,-4.897,-4.9001,-4.897,-4.897,-4.9001,-4.9001,-4.8987,-4.9018,-4.8987,-4.8987,-4.8863,-4.8832,-4.8818,-4.8658,-4.8658,-4.8721,-4.8595,-4.8627,-4.8658,-4.8675,-4.8532,-4.8738,-4.8753,-4.8769,-4.869,-4.8769,-4.869,-4.8658,-4.8553,-4.8326,-4.7774,-4.6469,-4.5667,-4.5315,-4.484,-4.4581,-4.4412,-4.431,-4.4179,-4.4338,-4.4191,-4.4105,-4.4105,-4.4121,-4.3617,-4.2784,-4.2347,-4.1706,-4.099,-4.042,-4.0156,-4.0261,-4.0261,-4.0347,-4.0501,-4.0486,-4.0462,-4.0362,-4.0347,-4.0312,-4.0242,-4.0172,-4.0101,-4.0137,-4.0101,-3.9996,-3.9925,-3.9803,-3.9732,-3.961,-3.9517,-3.946,-3.9481,-3.9481,-3.9337,-3.9283,-3.9474,-3.954,-3.9202,-3.8852,-3.8376,-3.7813,-3.7134,-3.6788,-3.6652,-3.6336,-3.6051,-3.598,-3.6044,-3.5926,-3.599,-3.6101,-3.6211,-3.6211,-3.6242,-3.6289,-3.632,-3.6289,-3.6258,-3.6242,-3.6274,-3.6352,-3.6352,-3.6352,-3.6383,-3.6414,-3.6492,-3.6523,-3.6492,-3.6492,-3.6492,-4.8863,-4.8863,-4.8801,-4.8832,-4.8863,-4.8863,-4.8863,-4.8894,-4.894,-4.894,-4.8894,-4.8956,-4.8956,-4.8863,-4.8818,-4.8769,-4.8738,-4.8595,-4.8547,-4.8547,-4.8371,-4.8452,-4.85,-4.8388,-4.8146,-4.8032,-4.8177,-4.821,-4.777,-4.8226,-4.8515,-4.8564,-4.837,-4.827,-4.7729,-4.6922,-4.6448,-4.5353,-4.4643,-4.4105,-4.375,-4.3306,-4.3183,-4.368,-4.3529,-4.3436,-4.3453,-4.3423,-4.2892,-4.1997,-4.1526,-4.1127,-4.0543,-4.0011,-4.0076,-4.0132,-4.0147,-4.0345,-4.066,-4.0812,-4.0634,-4.0436,-4.0294,-4.0254,-4.0097,-4.0031,-3.9996,-4.0001,-4.0071,-3.9934,-3.9604,-3.9568,-3.9496,-3.9481,-3.9409,-3.9424,-3.9424,-3.9424,-3.9385,-3.937,-3.9466,-3.9517,-3.929,-3.92,-3.8827,-3.8502,-3.7886,-3.7421,-3.7192,-3.6712,-3.637,-3.6177,-3.6107,-3.5886,-3.5831,-3.5988,-3.6068,-3.6053,-3.6053,-3.61,-3.61,-3.6116,-3.6085,-3.6053,-3.6179,-3.6242,-3.6211,-3.6211,-3.6242,-3.6305,-3.6383,-3.646,-3.6492,-3.6492,-3.6492,-4.8707,-4.8707,-4.8595,-4.858,-4.8612,-4.8675,-4.8738,-4.8818,-4.8894,-4.8863,-4.8832,-4.8832,-4.8784,-4.8707,-4.8644,-4.8612,-4.8564,-4.8405,-4.8388,-4.8356,-4.8212,-4.826,-4.8292,-4.8163,-4.7836,-4.7539,-4.7556,-4.7622,-4.6884,-4.7622,-4.7885,-4.7934,-4.7951,-4.7473,-4.7142,-4.689,-4.6741,-4.5578,-4.4774,-4.385,-4.3256,-4.2683,-4.2347,-4.2645,-4.266,-4.255,-4.255,-4.2379,-4.2046,-4.1225,-4.0768,-4.0543,-4.0097,-4.0009,-4.0121,-4.0202,-4.0597,-4.0855,-4.121,-4.1273,-4.1098,-4.0912,-4.0622,-4.0586,-4.055,-4.0649,-4.0583,-4.048,-4.0293,-4.0049,-3.9865,-3.9798,-3.9694,-3.9694,-3.9484,-3.9463,-3.9433,-3.9433,-3.9388,-3.9424,-3.9409,-3.9388,-3.9388,-3.9373,-3.9215,-3.8945,-3.8661,-3.8177,-3.7714,-3.7225,-3.6806,-3.6693,-3.6442,-3.6237,-3.6049,-3.592,-3.5953,-3.591,-3.5894,-3.591,-3.5973,-3.599,-3.5926,-3.5926,-3.6037,-3.6085,-3.6053,-3.6053,-3.6116,-3.6179,-3.6242,-3.6352,-3.646,-3.6492,-3.6492,-4.8483,-4.8483,-4.8292,-4.8227,-4.8227,-4.842,-4.8595,-4.8769,-4.8769,-4.8769,-4.8769,-4.8595,-4.8515,-4.8468,-4.8292,-4.826,-4.8244,-4.8115,-4.8115,-4.8082,-4.7902,-4.8033,-4.8033,-4.7935,-4.7388,-4.7135,-4.7067,-4.6864,-4.6064,-4.6864,-4.7237,-4.7067,-4.7101,-4.6698,-4.6574,-4.6583,-4.6454,-4.5473,-4.4528,-4.3668,-4.2986,-4.231,-4.2166,-4.2266,-4.2217,-4.2087,-4.2071,-4.1972,-4.1491,-4.1,-4.0713,-4.0228,-4.0019,-4.0113,-4.0454,-4.082,-4.1412,-4.1615,-4.1805,-4.1753,-4.1836,-4.1753,-4.1761,-4.1723,-4.1483,-4.1212,-4.1137,-4.1167,-4.1085,-4.0785,-4.0561,-4.0397,-4.0232,-3.9993,-3.9664,-3.9604,-3.9559,-3.9514,-3.9403,-3.9388,-3.9388,-3.9388,-3.9388,-3.9388,-3.9388,-3.9269,-3.8979,-3.862,-3.8165,-3.7789,-3.7445,-3.7345,-3.7064,-3.666,-3.6412,-3.6225,-3.6062,-3.6094,-3.5763,-3.5735,-3.5799,-3.5799,-3.5782,-3.575,-3.5878,-3.591,-3.5894,-3.5926,-3.5958,-3.6022,-3.6116,-3.6242,-3.6352,-3.646,-3.6492,-4.8292,-4.8292,-4.8211,-4.8195,-4.8195,-4.826,-4.8388,-4.8564,-4.8595,-4.8515,-4.8356,-4.8483,-4.8403,-4.8292,-4.8227,-4.8195,-4.813,-4.8099,-4.8033,-4.7886,-4.7505,-4.7655,-4.7621,-4.7404,-4.6793,-4.6499,-4.6343,-4.6131,-4.5483,-4.6095,-4.6429,-4.6198,-4.6429,-4.6166,-4.5961,-4.6045,-4.5591,-4.5021,-4.4136,-4.3481,-4.2751,-4.2025,-4.2007,-4.2116,-4.2136,-4.205,-4.2031,-4.2062,-4.1684,-4.1255,-4.117,-4.0935,-4.0958,-4.101,-4.116,-4.1175,-4.1475,-4.1708,-4.2144,-4.2241,-4.2338,-4.2614,-4.2749,-4.2194,-4.1835,-4.1595,-4.1572,-4.1715,-4.1745,-4.1482,-4.1235,-4.1055,-4.0891,-4.0621,-4.0307,-4.0127,-4.0038,-3.9768,-3.9642,-3.9388,-3.9388,-3.9388,-3.9388,-3.9388,-3.9388,-3.9388,-3.9256,-3.889,-3.8646,-3.8275,-3.7957,-3.7823,-3.7609,-3.7191,-3.6907,-3.669,-3.6469,-3.6277,-3.5881,-3.5534,-3.5589,-3.5604,-3.5572,-3.5572,-3.5557,-3.5686,-3.5767,-3.5767,-3.5814,-3.5831,-3.5926,-3.6085,-3.6258,-3.6352,-3.646,-4.8115,-4.8115,-4.8115,-4.8115,-4.8065,-4.777,-4.7869,-4.826,-4.8356,-4.8292,-4.8227,-4.8276,-4.8227,-4.8147,-4.8115,-4.7935,-4.7588,-4.7869,-4.7853,-4.7337,-4.7015,-4.7186,-4.7152,-4.674,-4.5969,-4.5665,-4.541,-4.5153,-4.4646,-4.5095,-4.5536,-4.5332,-4.5773,-4.5374,-4.4915,-4.4644,-4.452,-4.4127,-4.3676,-4.3146,-4.2536,-4.1859,-4.1917,-4.2095,-4.2132,-4.2095,-4.2095,-4.2095,-4.1798,-4.146,-4.1422,-4.1422,-4.1482,-4.1602,-4.1998,-4.2111,-4.2291,-4.247,-4.2725,-4.277,-4.2985,-4.3155,-4.329,-4.2925,-4.2581,-4.2357,-4.2327,-4.2327,-4.2237,-4.2102,-4.1923,-4.1782,-4.1602,-4.1407,-4.1085,-4.0801,-4.0487,-4.0157,-3.9843,-3.9478,-3.9388,-3.9388,-3.9388,-3.9388,-3.9388,-3.9388,-3.9265,-3.895,-3.8825,-3.8733,-3.8375,-3.8156,-3.7955,-3.7689,-3.7416,-3.703,-3.6609,-3.62,-3.5661,-3.5414,-3.5424,-3.5264,-3.5103,-3.5118,-3.5198,-3.5329,-3.5509,-3.5604,-3.5636,-3.5686,-3.5735,-3.5863,-3.6053,-3.6179,-3.6289,-4.8001,-4.8001,-4.8001,-4.8001,-4.7886,-4.722,-4.7253,-4.7886,-4.7968,-4.813,-4.813,-4.8049,-4.8033,-4.8001,-4.7836,-4.7588,-4.7438,-4.7588,-4.7438,-4.6793,-4.6655,-4.6689,-4.6464,-4.5969,-4.5316,-4.4759,-4.4472,-4.451,-4.3888,-4.4282,-4.4796,-4.4434,-4.4662,-4.4396,-4.3834,-4.3693,-4.3642,-4.3613,-4.3472,-4.3191,-4.2635,-4.1976,-4.1534,-4.1715,-4.1745,-4.173,-4.17,-4.1617,-4.1534,-4.1564,-4.1594,-4.1683,-4.1916,-4.2186,-4.2716,-4.2955,-4.3015,-4.3035,-4.3095,-4.3125,-4.317,-4.3275,-4.329,-4.3185,-4.2991,-4.2886,-4.2841,-4.2826,-4.2791,-4.2686,-4.2521,-4.2432,-4.2297,-4.2043,-4.1743,-4.1534,-4.1309,-4.0861,-4.0322,-3.9993,-3.9768,-3.9672,-3.9316,-3.9301,-3.8922,-3.9119,-3.9083,-3.8775,-3.8472,-3.8473,-3.8495,-3.8206,-3.815,-3.7925,-3.767,-3.7225,-3.6672,-3.6172,-3.5656,-3.5371,-3.5425,-3.506,-3.4643,-3.4872,-3.51,-3.5133,-3.5264,-3.5264,-3.5329,-3.5587,-3.5636,-3.5671,-3.5799,-3.5958,-3.6116,-4.8001,-4.8001,-4.8001,-4.8001,-4.7886,-4.7135,-4.6896,-4.7067,-4.7118,-4.7422,-4.7951,-4.8001,-4.7935,-4.777,-4.7287,-4.7084,-4.7454,-4.7033,-4.6965,-4.6534,-4.6218,-4.5969,-4.5789,-4.5169,-4.4646,-4.4586,-4.4373,-4.4043,-4.363,-4.3927,-4.4182,-4.3771,-4.4004,-4.3966,-4.3369,-4.3305,-4.329,-4.3314,-4.3307,-4.3322,-4.3004,-4.3,-4.2841,-4.2821,-4.2751,-4.2677,-4.2716,-4.2776,-4.2781,-4.288,-4.2826,-4.2841,-4.2895,-4.303,-4.315,-4.326,-4.3305,-4.3305,-4.3305,-4.3305,-4.3305,-4.3305,-4.3305,-4.3305,-4.329,-4.3305,-4.3305,-4.3305,-4.326,-4.3155,-4.3105,-4.3045,-4.2955,-4.2656,-4.2402,-4.2252,-4.2141,-4.1542,-4.0913,-4.0531,-4.0232,-3.986,-3.9473,-3.9003,-3.8627,-3.8464,-3.8464,-3.8165,-3.7477,-3.7357,-3.7904,-3.7852,-3.8159,-3.8031,-3.7686,-3.7433,-3.6889,-3.6468,-3.6028,-3.5735,-3.5414,-3.4908,-3.4496,-3.485,-3.5085,-3.4839,-3.4691,-3.4758,-3.4905,-3.5198,-3.5344,-3.5299,-3.5412,-3.5574,-3.5799,-4.8001,-4.8001,-4.8001,-4.8001,-4.7787,-4.6809,-4.6499,-4.6638,-4.6095,-4.6218,-4.6981,-4.727,-4.7303,-4.705,-4.6464,-4.6253,-4.6636,-4.6394,-4.5953,-4.5681,-4.5536,-4.5243,-4.4849,-4.4396,-4.4066,-4.395,-4.3966,-4.3708,-4.3448,-4.3551,-4.3669,-4.3409,-4.3786,-4.3786,-4.3305,-4.3305,-4.3305,-4.3305,-4.3305,-4.3305,-4.3305,-4.3305,-4.3305,-4.3305,-4.3305,-4.3305,-4.3305,-4.3305,-4.329,-4.329,-4.3215,-4.3215,-4.3185,-4.3215,-4.326,-4.329,-4.3305,-4.3305,-4.3305,-4.3305,-4.3305,-4.3305,-4.3305,-4.3305,-4.3305,-4.3305,-4.3305,-4.3305,-4.3305,-4.3215,-4.3215,-4.317,-4.3155,-4.3015,-4.2865,-4.2746,-4.2485,-4.2021,-4.1467,-4.1048,-4.0666,-4.0218,-3.9757,-3.914,-3.8594,-3.7615,-3.763,-3.7285,-3.6649,-3.6387,-3.6922,-3.7323,-3.7567,-3.7337,-3.6729,-3.6878,-3.7121,-3.6708,-3.6214,-3.5632,-3.5052,-3.4601,-3.439,-3.4501,-3.4409,-3.409,-3.3973,-3.4177,-3.4428,-3.4725,-3.4839,-3.4905,-3.5004,-3.5037,-3.5121,-4.7935,-4.7853,-4.782,-4.7853,-4.7605,-4.6198,-4.5969,-4.6324,-4.5153,-4.4849,-4.5442,-4.6147,-4.6076,-4.5877,-4.5531,-4.511,-4.5036,-4.5426,-4.5095,-4.4834,-4.4662,-4.451,-4.4182,-4.3732,-4.3551,-4.3448,-4.3448,-4.3448,-4.3344,-4.3448,-4.3448,-4.3344,-4.3305,-4.3305,-4.3305,-4.3305,-4.3305,-4.3305,-4.3305,-4.3305,-4.3305,-4.3305,-4.3305,-4.3305,-4.3305,-4.3305,-4.3305,-4.3305,-4.3305,-4.3305,-4.3305,-4.3305,-4.3305,-4.3305,-4.3305,-4.3305,-4.3305,-4.3305,-4.3305,-4.3305,-4.3305,-4.3305,-4.3305,-4.3305,-4.3305,-4.3305,-4.3305,-4.3305,-4.3305,-4.3305,-4.3305,-4.3305,-4.3305,-4.329,-4.3185,-4.311,-4.2791,-4.25,-4.2081,-4.1579,-4.1188,-4.0751,-4.0091,-3.9416,-3.838,-3.7356,-3.661,-3.6162,-3.5896,-3.5896,-3.6136,-3.6452,-3.6649,-3.6308,-3.5936,-3.621,-3.6739,-3.6357,-3.5763,-3.5213,-3.4688,-3.4189,-3.3903,-3.3848,-3.3699,-3.3339,-3.3443,-3.3685,-3.3973,-3.4109,-3.4192,-3.4192,-3.4192,-3.4225,-3.4177,-4.7638,-4.705,-4.7033,-4.705,-4.6793,-4.539,-4.5169,-4.5697,-4.4924,-4.4259,-4.4143,-4.4624,-4.511,-4.5624,-4.4962,-4.4699,-4.4924,-4.4962,-4.4737,-4.4548,-4.4335,-4.4043,-4.3708,-4.3472,-4.3329,-4.3305,-4.3305,-4.3305,-4.3305,-4.3305,-4.3305,-4.3305,-4.3305,-4.3305,-4.3305,-4.3305,-4.3305,-4.3305,-4.3305,-4.3305,-4.3305,-4.3305,-4.3305,-4.3305,-4.3305,-4.3305,-4.3305,-4.3305,-4.3305,-4.3305,-4.3305,-4.3305,-4.3305,-4.3305,-4.3305,-4.3305,-4.3305,-4.3305,-4.3305,-4.3305,-4.3305,-4.3305,-4.3305,-4.3305,-4.3305,-4.3305,-4.3305,-4.3305,-4.3305,-4.3305,-4.3305,-4.3305,-4.3305,-4.3305,-4.3245,-4.323,-4.3105,-4.2916,-4.2707,-4.2363,-4.2055,-4.1436,-4.0746,-3.9722,-3.8377,-3.7358,-3.6357,-3.5886,-3.5261,-3.5317,-3.5413,-3.5588,-3.583,-3.5856,-3.5736,-3.5776,-3.6038,-3.5719,-3.5502,-3.5209,-3.4685,-3.3757,-3.3458,-3.3472,-3.3037,-3.2613,-3.2812,-3.3164,-3.3164,-3.3283,-3.3388,-3.3422,-3.3422,-3.3422,-3.3408]},{"header":{"parameterUnit":"m.s-1","parameterCategory":1,"la1":31.0,"la2":29.5877,"lo1":-88.7671,"lo2":-86.6584,"dy":0.0162,"dx":0.0185,"nx":115,"ny":88,"refTime":"2024-04-20T12:00:00:Z","depth":0,"parameterNumber":3,"parameterNumberName":"V-component_of_WINDS"},"data":[0.0,0.0,0.0,0.0,0.0,0.0,0.0,0.0,0.0,0.0,0.0,0.0,0.0,0.0,0.0,0.0,0.0,0.0,0.0,0.0,0.0,0.0,0.0,0.0,0.0,0.0,0.0,0.0,0.0,0.0,0.0,0.0,0.0,0.0,0.0,0.0,0.0,0.0,0.0,0.0,0.0,0.0,0.0,0.0,0.0,0.0,0.0,0.0,0.0,0.0,0.0,0.0,0.0,0.0,0.0,0.0,0.0,0.0,0.0,0.0,0.0,0.0,0.0,0.0,0.0,0.0,0.0,0.0,0.0,0.0,0.0,0.0,0.0,0.0,0.0,0.0,0.0,0.0,0.0,0.0,0.0,0.0,0.0,0.0,0.0,0.0,0.0,0.0,0.0,0.0,0.0,0.0,0.0,0.0,0.0,0.0,0.0,0.0,0.0,0.0,0.0,0.0,0.0,0.0,0.0,0.0,0.0,0.0,0.0,0.0,0.0,0.0,0.0,0.0,0.0,0.0,0.0,0.0,0.0,0.0,0.0,0.0,0.0,0.0,0.0,0.0,0.0,0.0,0.0,0.0,0.0,0.0,0.0,0.0,0.0,0.0,0.0,0.0,0.0,0.0,0.0,0.0,0.0,0.0,0.0,0.0,0.0,0.0,0.0,0.0,0.0,0.0,0.0,0.0,0.0,0.0,0.0,0.0,0.0,0.0,0.0,0.0,0.0,0.0,0.0,0.0,0.0,0.0,0.0,0.0,0.0,0.0,0.0,0.0,0.0,0.0,0.0,0.0,0.0,0.0,0.0,0.0,0.0,0.0,0.0,0.0,0.0,0.0,0.0,0.0,0.0,0.0,0.0,0.0,0.0,0.0,0.0,0.0,0.0,0.0,0.0,0.0,0.0,0.0,0.0,0.0,0.0,0.0,0.0,0.0,0.0,0.0,0.0,0.0,0.0,0.0,0.0,0.0,0.0,0.0,0.0,0.0,0.0,0.0,0.0,0.0,0.0,0.0,0.0,0.0,0.0,0.0,0.0,0.0,0.0,0.0,0.0,0.0,0.0,0.0,0.0,0.0,0.0,0.0,0.0,0.0,0.0,0.0,0.0,0.0,0.0,0.0,0.0,0.0,0.0,0.0,0.0,0.0,0.0,0.0,0.0,0.0,0.0,0.0,0.0,0.0,0.0,0.0,0.0,0.0,0.0,0.0,0.0,0.0,0.0,0.0,0.0,0.0,0.0,0.0,0.0,0.0,0.0,0.0,0.0,0.0,0.0,0.0,0.0,0.0,0.0,0.0,0.0,0.0,0.0,0.0,0.0,0.0,0.0,0.0,0.0,0.0,0.0,0.0,0.0,0.0,0.0,0.0,0.0,0.0,0.0,0.0,0.0,0.0,0.0,0.0,0.0,0.0,0.0,0.0,0.0,0.0,0.0,0.0,0.0,0.0,0.0,0.0,0.0,0.0,0.0,0.0,0.0,0.0,0.0,0.0,0.0,0.0,0.0,0.0,0.0,0.0,0.0,0.0,0.0,0.0,0.0,0.0,0.0,0.0,0.0,0.0,0.0,0.0,0.0,0.0,0.0,0.0,0.0,0.0,0.0,0.0,0.0,0.0,0.0,0.0,0.0,0.0,0.0,0.0,0.0,0.0,0.0,0.0,0.0,0.0,0.0,0.0,0.0,0.0,0.0,0.0,0.0,0.0,0.0,0.0,0.0,0.0,0.0,0.0,0.0,0.0,0.0,0.0,0.0,0.0,0.0,0.0,0.0,0.0,0.0,0.0,0.0,0.0,0.0,0.0,0.0,0.0,0.0,0.0,0.0,0.0,0.0,0.0,0.0,0.0,0.0,0.0,0.0,0.0,0.0,0.0,0.0,0.0,0.0,0.0,0.0,0.0,0.0,0.0,0.0,0.0,0.0,0.0,0.0,0.0,0.0,0.0,0.0,0.0,0.0,0.0,0.0,0.0,0.0,0.0,0.0,0.0,0.0,0.0,0.0,0.0,0.0,0.0,0.0,0.0,0.0,0.0,0.0,0.0,0.0,0.0,0.0,0.0,0.0,0.0,0.0,0.0,0.0,0.0,0.0,0.0,0.0,0.0,0.0,0.0,0.0,0.0,0.0,0.0,0.0,0.0,0.0,0.0,0.0,0.0,0.0,0.0,0.0,0.0,0.0,0.0,0.0,0.0,0.0,0.0,0.0,0.0,0.0,0.0,0.0,0.0,0.0,0.0,0.0,0.0,0.0,0.0,0.0,0.0,0.0,0.0,0.0,0.0,0.0,0.0,0.0,0.0,0.0,0.0,0.0,0.0,0.0,0.0,0.0,0.0,0.0,0.0,0.0,0.0,0.0,0.0,0.0,0.0,0.0,0.0,0.0,0.0,0.0,0.0,0.0,0.0,0.0,0.0,0.0,0.0,0.0,0.0,0.0,0.0,0.0,0.0,0.0,0.0,0.0,0.0,0.0,0.0,0.0,0.0,0.0,0.0,0.0,0.0,0.0,0.0,0.0,0.0,0.0,0.0,0.0,0.0,0.0,0.0,0.0,0.0,0.0,0.0,0.0,0.0,0.0,0.0,0.0,0.0,0.0,0.0,0.0,0.0,0.0,0.0,0.0,0.0,0.0,0.0,0.0,0.0,0.0,0.0,0.0,0.0,0.0,0.0,0.0,0.0,0.0,0.0,0.0,0.0,0.0,0.0,0.0,0.0,0.0,0.0,0.0,0.0,0.0,0.0,0.0,0.0,0.0,0.0,0.0,0.0,0.0,0.0,0.0,0.0,0.0,0.0,0.0,0.0,0.0,0.0,0.0,0.0,0.0,0.0,0.0,0.0,0.0,0.0,0.0,0.0,0.0,0.0,0.0,0.0,0.0,0.0,0.0,0.0,0.0,0.0,0.0,0.0,0.0,0.0,0.0,0.0,0.0,0.0,0.0,0.0,0.0,0.0,0.0,0.0,0.0,0.0,0.0,0.0,0.0,0.0,0.0,0.0,0.0,0.0,0.0,0.0,0.0,0.0,0.0,0.0,0.0,0.0,0.0,0.0,0.0,0.0,0.0,0.0,0.0,0.0,0.0,0.0,0.0,0.0,0.0,0.0,0.0,0.0,0.0,0.0,0.0,0.0,0.0,0.0,0.0,0.0,0.0,0.0,0.0,0.0,0.0,0.0,0.0,0.0,0.0,0.0,0.0,0.0,0.0,0.0,0.0,0.0,0.0,0.0,0.0,0.0,0.0,0.0,0.0,0.0,0.0,0.0,0.0,0.0,0.0,0.0,0.0,0.0,0.0,0.0,0.0,0.0,0.0,0.0,0.0,0.0,0.0,0.0,0.0,0.0,0.0,0.0,0.0,0.0,0.0,0.0,0.0,0.0,0.0,0.0,0.0,0.0,0.0,0.0,0.0,0.0,0.0,0.0,0.0,0.0,0.0,0.0,0.0,0.0,0.0,0.0,0.0,0.0,0.0,0.0,0.0,0.0,0.0,0.0,0.0,0.0,0.0,0.0,0.0,0.0,0.0,0.0,0.0,0.0,0.0,0.0,0.0,0.0,0.0,0.0,0.0,0.0,0.0,0.0,0.0,0.0,0.0,0.0,0.0,0.0,0.0,0.0,0.0,0.0,0.0,0.0,0.0,0.0,0.0,0.0,0.0,0.0,0.0,0.0,0.0,0.0,0.0,0.0,0.0,0.0,0.0,0.0,0.0,0.0,0.0,0.0,0.0,0.0,0.0,0.0,0.0,0.0,0.0,0.0,0.0,0.0,0.0,0.0,0.0,0.0,0.0,0.0,0.0,0.0,0.0,0.0,0.0,0.0,0.0,0.0,0.0,0.0,0.0,0.0,0.0,0.0,0.0,0.0,0.0,0.0,0.0,0.0,0.0,0.0,0.0,0.0,0.0,0.0,0.0,0.0,0.0,0.0,0.0,0.0,0.0,0.0,0.0,0.0,0.0,0.0,0.0,0.0,0.0,0.0,0.0,0.0,0.0,0.0,0.0,0.0,0.0,0.0,0.0,0.0,0.0,0.0,0.0,0.0,0.0,0.0,0.0,0.0,0.0,0.0,0.0,0.0,0.0,0.0,0.0,0.0,0.0,0.0,0.0,0.0,0.0,0.0,0.0,0.0,0.0,0.0,0.0,0.0,0.0,0.0,0.0,0.0,0.0,0.0,0.0,0.0,0.0,0.0,0.0,0.0,0.0,0.0,0.0,0.0,0.0,0.0,0.0,0.0,0.0,0.0,0.0,0.0,0.0,0.0,0.0,0.0,0.0,0.0,0.641,0.0,0.0,0.0,0.0,0.0,0.0,0.0,0.0,0.0,0.0,0.0,0.0,0.0,0.0,0.0,0.0,0.0,0.0,0.0,0.0,0.0,0.0,0.0,0.0,0.0,0.0,0.0,0.0,0.0,0.0,0.0,0.0,0.0,0.0,0.0,0.0,0.0,0.0,0.0,0.0,0.0,0.0,0.0,0.0,0.0,0.0,0.0,0.0,0.0,0.0,0.0,0.0,0.0,0.0,0.0,0.0,0.0,0.0,0.0,0.0,0.0,0.0,0.0,0.0,0.0,0.0,0.0,0.0,0.0,0.0,0.0,0.0,0.0,0.0,0.0,0.0,0.0,0.0,0.0,0.0,0.0,0.0,0.0,0.0,0.0,0.0,0.0,0.0,0.0,0.0,0.0,0.0,0.0,0.0,0.0,0.0,0.0,0.0,0.0,0.0,0.0,0.0,0.0,0.0,0.0,0.0,0.0,0.0,0.0,0.0,0.641,0.641,0.641,0.641,0.641,0.0,0.0,0.0,0.0,0.0,0.0,0.0,0.0,0.0,0.0,0.0,0.0,0.0,0.0,0.0,0.0,0.0,0.0,0.0,0.0,0.0,0.0,0.0,0.0,0.0,0.0,0.0,0.0,0.0,0.0,0.0,0.0,0.0,0.0,0.0,0.0,0.0,0.0,0.0,0.0,0.0,0.0,0.0,0.0,0.0,0.0,0.0,0.0,0.0,0.0,0.0,0.0,0.0,0.0,0.0,0.0,0.0,0.0,0.0,0.0,0.0,0.0,0.0,0.0,0.0,0.0,0.0,0.0,0.0,0.0,0.0,0.0,0.0,0.0,0.0,0.0,0.0,0.0,0.0,0.0,0.0,0.0,0.0,0.0,0.0,0.0,0.0,0.0,0.0,0.0,0.0,0.0,0.0,0.0,0.0,0.0,0.0,0.0,0.0,0.0,0.0,0.0,0.0,0.0,0.0,0.0,0.0,0.0,0.0,0.0,0.0,0.0,0.641,0.641,0.641,0.0,0.0,0.0,0.0,0.0,0.0,0.0,0.0,0.0,0.0,0.0,0.0,0.0,0.0,0.0,0.0,0.0,0.0,0.0,0.0,0.0,0.0,0.0,0.0,0.0,0.0,0.0,0.0,0.0,0.0,0.0,0.0,0.0,0.0,0.0,0.0,0.0,0.0,0.0,0.0,0.0,0.0,0.0,0.0,0.0,0.0,0.0,0.0,0.0,0.0,0.0,0.0,0.0,0.0,0.0,0.0,0.0,0.0,0.0,0.0,0.0,0.0,0.0,0.0,0.0,0.0,0.0,0.0,0.0,0.0,0.0,0.0,0.0,0.0,0.0,0.0,0.0,0.0,0.0,0.0,0.0,0.0,0.0,0.0,0.0,0.0,0.0,0.0,0.0,0.0,0.0,0.0,0.0,0.0,0.0,0.0,0.0,0.0,0.0,0.0,0.0,0.0,0.0,0.0,0.0,0.0,0.0,0.0,0.0,0.0,0.641,0.641,0.641,0.0,0.641,0.0,0.0,0.0,0.0,0.0,0.0,0.0,0.0,0.0,0.0,0.0,0.0,0.0,0.0,0.0,0.0,0.0,0.0,0.0,0.0,0.0,0.0,0.0,0.0,0.0,0.0,0.0,0.0,0.0,0.0,0.0,0.0,0.0,0.0,0.0,0.0,0.0,0.0,0.0,0.0,0.0,0.0,0.0,0.0,0.0,0.0,0.0,0.0,0.0,0.0,0.0,0.0,0.0,0.0,0.0,0.0,0.0,0.0,0.0,0.0,0.0,0.0,0.0,0.0,0.0,0.0,0.0,0.0,0.0,0.0,0.0,0.0,0.0,0.0,0.0,0.0,0.0,0.0,0.0,0.0,0.0,0.0,0.0,0.0,0.0,0.0,0.0,0.0,0.0,0.0,0.0,0.0,0.0,0.0,0.0,0.0,0.0,0.0,0.0,0.0,0.0,0.0,0.0,0.0,0.0,0.0,0.0,0.0,0.0,0.0,0.641,0.641,0.641,0.641,0.0,0.0,0.0,0.0,0.0,0.0,0.0,0.0,0.0,0.0,0.0,0.0,0.0,0.0,0.0,0.0,0.0,0.0,0.0,0.0,0.0,0.0,0.0,0.0,0.0,0.0,0.0,0.0,0.0,0.0,0.0,0.0,0.0,0.0,0.0,0.0,0.0,0.0,0.0,0.0,0.0,0.0,0.0,0.0,0.0,0.0,0.0,0.0,0.0,0.0,0.0,0.0,0.0,0.0,0.0,0.0,0.0,0.0,0.0,0.0,0.0,0.0,0.0,0.0,0.0,0.0,0.0,0.0,0.0,0.0,0.0,0.0,0.0,0.0,0.0,0.0,0.0,0.0,0.0,0.0,0.0,0.0,0.0,0.0,0.0,0.0,0.0,0.0,0.0,0.0,0.0,0.0,0.0,0.0,0.0,0.0,0.0,0.0,0.0,0.0,0.0,0.0,0.0,0.0,0.0,0.0,0.0,0.0,0.0,0.0,0.6635,0.6577,0.6526,0.6498,0.6489,0.6416,0.0,0.0,0.0,0.0,0.0,0.0,0.0,0.0,0.0,0.0,0.0,0.0,0.0,0.0,0.0,0.0,0.0,0.0,0.0,0.0,0.0,0.0,0.0,0.0,0.0,0.0,0.0,0.0,0.0,0.0,0.0,0.0,0.0,0.0,0.0,0.0,0.0,0.0,0.0,0.0,0.0,0.0,0.0,0.0,0.0,0.0,0.0,0.0,0.0,0.0,0.0,0.0,0.0,0.0,0.0,0.0,0.0,0.0,0.0,0.0,0.0,0.0,0.0,0.0,0.0,0.0,0.0,0.0,0.0,0.0,0.0,0.0,0.0,0.0,0.0,0.0,0.0,0.0,0.0,0.0,0.0,0.0,0.0,0.0,0.0,0.0,0.0,0.0,0.0,0.0,0.0,0.0,0.0,0.0,0.0,0.0,0.0,0.0,0.0,0.0,0.0,0.0,0.0,0.0,0.0,0.0,0.0,0.0,0.7164,0.7158,0.7042,0.6805,0.677,0.6655,0.0,0.0,0.0,0.0,0.0,0.0,0.0,0.0,0.0,0.0,0.0,0.0,0.0,0.0,0.0,0.0,0.0,0.0,0.0,0.0,0.0,0.0,0.0,0.0,0.0,0.0,0.0,0.0,0.0,0.0,0.0,0.0,0.0,0.0,0.0,0.0,0.0,0.0,0.0,0.0,0.0,0.0,0.0,0.0,0.0,0.0,0.0,0.0,0.0,0.0,0.0,0.0,0.0,0.0,0.0,0.0,0.0,0.0,0.0,0.0,0.0,0.0,0.0,0.0,0.0,0.0,0.0,0.0,0.0,0.0,0.0,0.0,0.0,0.0,0.0,0.0,0.0,0.0,0.0,0.0,0.0,0.0,0.0,0.0,0.0,0.0,0.0,0.0,0.0,0.0,0.0,0.0,0.0,0.0,0.0,0.0,0.0,0.0,0.0,0.0,0.0,0.0,0.0,0.0,0.0,0.0,0.0,0.0,0.0,0.72,0.72,0.7158,0.7066,0.706,0.6916,0.0,0.0,0.0,0.0,0.0,0.0,0.0,0.0,0.0,0.0,0.0,0.0,0.0,0.0,0.0,0.0,0.0,0.0,0.0,0.0,0.0,0.0,0.0,0.0,0.0,0.0,0.0,0.0,0.0,0.0,0.0,0.0,0.0,0.0,0.0,0.0,0.0,0.0,0.0,0.0,0.0,0.0,0.0,0.0,0.0,0.0,0.0,0.0,0.0,0.0,0.0,0.0,0.0,0.0,0.0,0.0,0.0,0.0,0.0,0.0,0.0,0.0,0.0,0.0,0.0,0.0,0.0,0.0,0.0,0.0,0.0,0.0,0.0,0.0,0.0,0.0,0.0,0.0,0.0,0.0,0.0,0.0,0.0,0.0,0.0,0.0,0.0,0.0,0.0,0.0,0.0,0.0,0.0,0.0,0.0,0.0,0.0,0.0,0.0,0.0,0.0,0.0,0.0,0.0,0.0,0.0,0.0,0.0,0.0,0.7436,0.0,0.7394,0.7334,0.7328,0.7206,0.0,0.0,0.0,0.0,0.0,0.0,0.0,0.0,0.0,0.0,0.0,0.0,0.0,0.0,0.0,0.0,0.0,0.0,0.0,0.0,0.0,0.0,0.0,0.0,0.0,0.0,0.0,0.0,0.0,0.0,0.0,0.0,0.0,0.0,0.0,0.0,0.0,0.0,0.0,0.0,0.0,0.0,0.0,0.0,0.0,0.0,0.0,0.0,0.0,0.0,0.0,0.0,0.0,0.0,0.0,0.0,0.0,0.0,0.0,0.0,0.0,0.0,0.0,0.0,0.0,0.0,0.0,0.0,0.0,0.0,0.0,0.0,0.0,0.0,0.0,0.0,0.0,0.0,0.0,0.0,0.0,0.0,0.0,0.0,0.0,0.0,0.0,0.0,0.0,0.0,0.0,0.0,0.0,0.0,0.0,0.0,0.0,0.0,0.0,0.0,0.0,0.0,0.0,0.0,0.0,0.0,0.0,0.0,0.7889,0.7895,0.7889,0.7772,0.7613,0.7595,0.7473,0.0,0.0,0.0,0.0,0.0,0.0,0.0,0.0,0.0,0.0,0.0,0.0,0.0,0.0,0.0,0.0,0.0,0.0,0.0,0.0,0.0,0.0,0.0,0.0,0.0,0.0,0.0,0.0,0.0,0.0,0.0,0.0,0.0,0.0,0.0,0.0,0.0,0.0,0.0,0.0,0.0,0.0,0.0,0.0,0.0,0.0,0.0,0.0,0.0,0.0,0.0,0.0,0.0,0.0,0.0,0.0,0.0,0.0,0.0,0.0,0.0,0.0,0.0,0.0,0.0,0.0,0.0,0.0,0.0,0.0,0.0,0.0,0.0,0.0,0.0,0.0,0.0,0.0,0.0,0.0,0.0,0.0,0.0,0.0,0.0,0.0,0.0,0.0,0.0,0.0,0.0,0.0,0.0,0.0,0.0,0.0,0.0,0.0,0.0,0.0,0.0,0.0,0.0,0.0,0.0,0.0,0.0,0.0,0.0,0.7901,0.7901,0.7859,0.7802,0.7802,0.7701,0.0,0.0,0.0,0.0,0.0,0.0,0.0,0.0,0.0,0.0,0.0,0.0,0.0,0.0,0.0,0.0,0.0,0.0,0.0,0.0,0.0,0.0,0.0,0.0,0.0,0.0,0.0,0.0,0.0,0.0,0.0,0.0,0.0,0.0,0.0,0.0,0.0,0.0,0.0,0.0,0.0,0.0,0.0,0.0,0.0,0.0,0.0,0.0,0.0,0.0,0.0,0.0,0.0,0.0,0.0,0.0,0.0,0.0,0.0,0.0,0.0,0.0,0.0,0.0,0.0,0.0,0.0,0.0,0.0,0.0,0.0,0.0,0.0,0.0,0.0,0.0,0.0,0.0,0.0,0.0,0.0,0.0,0.0,0.0,0.0,0.0,0.0,0.0,0.0,0.0,0.0,0.0,0.0,0.0,0.0,0.0,0.0,0.0,0.0,0.0,0.0,0.0,0.0,0.0,0.0,0.0,0.0,0.0,0.0,0.8072,0.8045,0.8045,0.8051,0.8045,0.7946,0.7707,0.0,0.0,0.0,0.0,0.0,0.0,0.0,0.0,0.0,0.0,0.0,0.0,0.0,0.0,0.0,0.0,0.0,0.0,0.0,0.0,0.0,0.0,0.0,0.0,0.0,0.0,0.0,0.0,0.0,0.0,0.0,0.0,0.0,0.0,0.0,0.0,0.0,0.0,0.0,0.0,0.0,0.0,0.0,0.0,0.0,0.0,0.0,0.0,0.0,0.0,0.0,0.0,0.0,0.0,0.0,0.0,0.0,0.0,0.0,0.0,0.0,0.0,0.0,0.0,0.0,0.0,0.0,0.0,0.0,0.0,0.0,0.0,0.0,0.0,0.0,0.0,0.0,0.0,0.0,0.0,0.0,0.0,0.0,0.0,0.0,0.0,0.0,0.0,0.0,0.0,0.0,0.0,0.0,0.0,0.0,0.0,0.0,0.0,0.0,0.0,0.0,0.0,0.0,0.0,0.0,0.0,0.0,0.0,0.8309,0.8327,0.8355,0.8309,0.8319,0.8171,0.0,0.0,0.0,0.0,0.0,0.0,0.0,0.0,0.0,0.0,0.0,0.0,0.0,0.0,0.0,0.0,0.0,0.0,0.0,0.0,0.0,0.0,0.0,0.0,0.0,0.0,0.0,0.0,0.0,0.0,0.0,0.0,0.0,0.0,0.0,0.0,0.0,0.0,0.0,0.0,0.0,0.0,0.0,0.0,0.0,0.0,0.0,0.0,0.0,0.0,0.0,0.0,0.0,0.0,0.0,0.0,0.0,0.0,0.0,0.0,0.0,0.0,0.0,0.0,0.0,0.0,0.0,0.0,0.0,0.0,0.0,0.0,0.0,0.0,0.0,0.0,0.0,0.0,0.0,0.0,0.0,0.0,0.0,0.0,0.0,0.0,0.0,0.0,0.0,0.0,0.0,0.0,0.0,0.0,0.0,0.0,0.0,0.0,0.0,0.0,0.0,0.0,0.0,0.0,0.0,0.0,0.0,0.0,0.0,0.8602,0.8788,0.88,0.8579,0.8393,0.8255,0.0,0.0,0.0,0.0,0.0,0.0,0.0,0.0,0.0,0.0,0.0,0.0,0.0,0.0,0.0,0.0,0.0,0.0,0.0,0.0,0.0,0.0,0.0,0.0,0.0,0.0,0.0,0.0,0.0,0.0,0.0,0.0,0.0,0.0,0.0,0.0,0.0,0.0,0.0,0.0,0.0,0.0,0.0,0.0,0.0,0.0,0.0,0.0,0.0,0.0,0.0,0.0,0.0,0.0,0.0,0.0,0.0,0.0,0.0,0.0,0.0,0.0,0.0,0.0,0.0,0.0,0.0,0.0,0.0,0.0,0.0,0.0,0.0,0.0,0.0,0.0,0.0,0.0,0.0,0.0,0.0,0.0,0.0,0.0,0.0,0.0,0.0,0.0,0.0,0.0,0.0,0.0,0.0,0.0,0.0,0.0,0.0,0.0,0.0,0.0,0.0,0.0,0.0,0.0,0.0,0.0,0.0,0.0,0.8554,0.871,0.9077,0.9197,0.9047,0.868,0.8427,0.0,0.0,0.0,0.0,0.0,0.0,0.0,0.0,0.0,0.0,0.0,0.0,0.0,0.0,0.0,0.0,0.0,0.0,0.0,0.0,0.0,0.0,0.0,0.0,0.0,0.0,0.0,0.0,0.0,0.0,0.0,0.0,0.0,0.0,0.0,0.0,0.0,0.0,0.0,0.0,0.0,0.0,0.0,0.0,0.0,0.0,0.0,0.0,0.0,0.0,0.0,0.0,0.0,0.0,0.0,0.0,0.0,0.0,0.0,0.0,0.0,0.0,0.0,0.0,0.0,0.0,0.0,0.0,0.0,0.0,0.0,0.0,0.0,0.0,0.0,0.0,0.0,0.0,0.0,0.0,0.0,0.0,0.0,0.0,0.0,0.0,0.0,0.0,0.0,0.0,0.0,0.0,0.0,0.0,0.0,0.0,0.0,0.0,0.0,0.0,0.0,0.0,0.0,0.0,0.0,0.0,0.0,0.0,0.8722,0.8758,0.9245,0.9478,0.9466,0.8993,0.8596,0.0,0.0,0.0,0.0,0.0,0.0,0.0,0.0,0.0,0.0,0.0,0.0,0.0,0.0,0.0,0.0,0.0,0.0,0.0,0.0,0.0,0.0,0.0,0.0,0.0,0.0,0.0,0.0,0.0,0.0,0.0,0.0,0.0,0.0,0.0,0.0,0.0,0.0,0.0,0.0,0.0,0.0,0.0,0.0,0.0,0.0,0.0,0.0,0.0,0.0,0.0,0.0,0.0,0.0,0.0,0.0,0.0,0.0,0.0,0.0,0.0,0.0,0.0,0.0,0.0,0.0,0.0,0.0,0.0,0.0,0.0,0.0,0.0,0.0,0.0,0.0,0.0,0.0,0.0,0.0,0.0,0.0,0.0,0.0,0.0,0.0,0.0,0.0,0.0,0.0,0.0,0.0,0.0,0.0,0.0,0.0,0.0,0.0,0.0,0.0,0.0,0.0,0.0,0.0,0.0,0.0,0.0,0.0,0.8812,0.9017,0.9348,0.9478,0.9478,0.8962,0.868,0.0,0.0,0.0,0.0,0.0,0.0,0.0,0.0,0.0,0.0,0.0,0.0,0.0,0.0,0.0,0.0,0.0,0.0,0.0,0.0,0.0,0.0,0.0,0.0,0.0,0.0,0.0,0.0,0.0,0.0,0.0,0.0,0.0,0.0,0.0,0.0,0.0,0.0,0.0,0.0,0.0,0.0,0.0,0.0,0.0,0.0,0.0,0.0,0.7108,0.0,0.0,0.0,0.0,0.0,0.0,0.0,0.0,0.0,0.0,0.0,0.0,0.0,0.0,0.0,0.0,0.0,0.0,0.0,0.0,0.0,0.0,0.0,0.0,0.0,0.0,0.0,0.0,0.0,0.0,0.0,0.0,0.0,0.0,0.0,0.0,0.0,0.0,0.0,0.0,0.0,0.0,0.0,0.0,0.0,0.0,0.0,0.0,0.0,0.0,0.0,0.0,0.0,0.0,0.0,0.0,0.0,0.0,0.0,0.883,0.9095,0.9372,0.9478,0.9466,0.9107,0.883,0.0,0.0,0.0,0.0,0.0,0.0,0.0,0.0,0.0,0.0,0.0,0.0,0.0,0.0,0.0,0.0,0.0,0.0,0.0,0.0,0.0,0.0,0.0,0.0,0.0,0.0,0.0,0.0,0.0,0.0,0.0,0.0,0.0,0.0,0.0,0.0,0.0,0.0,0.0,0.0,0.0,0.0,0.0,0.0,0.0,0.0,0.0,0.0,0.0,0.0,0.0,0.0,0.0,0.0,0.0,0.0,0.0,0.0,0.0,0.0,0.0,0.0,0.0,0.0,0.0,0.0,0.0,0.0,0.0,0.0,0.0,0.0,0.0,0.0,0.0,0.0,0.0,0.0,0.0,0.0,0.0,0.0,0.0,0.0,0.0,0.0,0.0,0.0,0.0,0.0,0.0,0.0,0.0,0.0,0.0,0.0,0.0,0.0,0.0,0.0,0.0,0.0,0.0,0.0,0.0,0.0,0.0,0.8693,0.8975,0.9275,0.9516,0.9636,0.963,0.933,0.9041,0.8776,0.0,0.0,0.0,0.0,0.0,0.0,0.0,0.0,0.0,0.0,0.0,0.0,0.0,0.0,0.0,0.0,0.0,0.0,0.0,0.0,0.0,0.0,0.0,0.0,0.0,0.0,0.0,0.0,0.0,0.0,0.0,0.0,0.0,0.0,0.0,0.0,0.0,0.0,0.5198,0.549,0.0,0.0,0.0,0.0,0.0,0.0,0.0,0.0,0.7288,0.0,0.0,0.0,0.0,0.0,0.0,0.0,0.0,0.0,0.0,0.0,0.0,0.0,0.0,0.0,0.0,0.0,0.0,0.0,0.0,0.0,0.0,0.0,0.0,0.0,0.0,0.0,0.0,0.0,0.0,0.0,0.0,0.0,0.0,0.0,0.0,0.0,0.0,0.0,0.0,0.0,0.0,0.0,0.0,0.0,0.0,0.0,0.0,0.0,0.0,0.0,0.0,0.0,0.0,0.0,0.0,0.9274,0.9328,0.9618,1.0081,1.0142,1.0166,1.0154,0.9697,0.9318,0.9029,0.0,0.0,0.0,0.0,0.0,0.0,0.0,0.0,0.0,0.0,0.0,0.0,0.0,0.0,0.0,0.0,0.0,0.0,0.0,0.0,0.0,0.0,0.0,0.0,0.0,0.0,0.0,0.0,0.0,0.0,0.0,0.0,0.0,0.0,0.0,0.0,0.0,0.0,0.0,0.5798,0.5913,0.0,0.0,0.0,0.0,0.0,0.0,0.0,0.0,0.7241,0.0,0.0,0.0,0.0,0.0,0.0,0.0,0.0,0.0,0.0,0.0,0.0,0.0,0.0,0.0,0.0,0.0,0.0,0.0,0.0,0.0,0.0,0.0,0.0,0.0,0.0,0.0,0.0,0.0,0.0,0.0,0.0,0.0,0.0,0.0,0.0,0.0,0.0,0.0,0.0,0.0,0.0,0.0,0.0,0.0,0.0,0.0,0.0,0.0,0.0,0.0,0.0,0.0,0.0,0.0,0.9492,0.9648,0.9874,1.028,1.0333,1.0333,1.0286,0.9919,0.9624,0.0,0.0,0.0,0.0,0.0,0.0,0.0,0.0,0.0,0.0,0.0,0.0,0.0,0.0,0.0,0.0,0.0,0.0,0.0,0.0,0.0,0.0,0.0,0.0,0.0,0.0,0.0,0.0,0.0,0.0,0.0,0.0,0.0,0.0,0.0,0.0,0.0,0.0,0.0,0.0,0.6331,0.6438,0.6887,0.0,0.0,0.0,0.0,0.0,0.0,0.7772,0.7724,0.0,0.0,0.0,0.0,0.0,0.0,0.0,0.0,0.0,0.0,0.0,0.0,0.0,0.0,0.0,0.0,0.0,0.0,0.0,0.0,0.0,0.0,0.0,0.0,0.0,0.0,0.0,0.0,0.0,0.0,0.0,0.0,0.0,0.0,0.0,0.0,0.0,0.0,0.0,0.0,0.0,0.0,0.0,0.0,0.0,0.0,0.0,0.0,0.0,0.0,0.0,0.0,0.0,0.0,0.0,0.9666,0.9931,1.019,1.0436,1.0454,1.0448,1.0448,1.01,0.9937,0.0,0.0,0.0,0.0,0.0,0.0,0.0,0.0,0.0,0.0,0.0,0.0,0.0,0.0,0.0,0.0,0.0,0.0,0.0,0.0,0.0,0.0,0.0,0.0,0.0,0.0,0.0,0.0,0.0,0.0,0.0,0.0,0.0,0.0,0.0,0.0,0.0,0.0,0.0,0.0,0.0,0.6953,0.7366,0.7564,0.0,0.0,0.0,0.0,0.7743,0.8122,0.0,0.0,0.0,0.0,0.0,0.0,0.0,0.0,0.0,0.0,0.0,0.0,0.0,0.0,0.0,0.0,0.0,0.0,0.0,0.0,0.0,0.0,0.0,0.0,0.0,0.0,0.0,0.0,0.0,0.0,0.0,0.0,0.0,0.0,0.0,0.0,0.0,0.0,0.0,0.0,0.0,0.0,0.0,0.0,0.0,0.0,0.0,0.0,0.0,0.0,0.0,0.0,0.0,0.0,0.0,0.0,1.0196,1.0466,1.0761,1.1003,1.1021,1.0984,1.1009,1.0286,1.011,0.0,0.0,0.0,0.0,0.0,0.0,0.0,0.0,0.0,0.0,0.0,0.0,0.0,0.0,0.0,0.0,0.0,0.0,0.0,0.0,0.0,0.0,0.0,0.0,0.0,0.0,0.0,0.0,0.0,0.0,0.0,0.0,0.0,0.0,0.0,0.0,0.0,0.0,0.0,0.0,0.0,0.7227,0.8353,0.8286,0.8106,0.0,0.0,0.0,0.8556,0.8844,0.0,0.0,0.0,0.0,0.0,0.0,0.0,0.0,0.0,0.0,0.0,0.0,0.0,0.0,0.0,0.0,0.0,0.0,0.0,0.0,0.0,0.0,0.0,0.0,0.0,0.0,0.0,0.0,0.0,0.0,0.0,0.0,0.0,0.0,0.0,0.0,0.0,0.0,0.0,0.0,0.0,0.0,0.0,0.0,0.0,0.0,0.0,0.0,0.0,0.0,0.0,0.0,0.0,0.0,0.0,1.0069,1.0298,1.0695,1.0997,1.1105,1.1117,1.1117,1.1111,1.0566,1.0288,0.0,0.0,0.0,0.0,0.0,0.0,0.0,0.0,0.0,0.0,0.0,0.0,0.0,0.0,0.0,0.0,0.0,0.0,0.0,0.0,0.0,0.0,0.0,0.0,0.0,0.0,0.0,0.0,0.0,0.0,0.0,0.0,0.0,0.0,0.0,0.0,0.0,0.0,0.0,0.0,0.0,0.0,0.8569,0.8591,0.0,0.0,0.0,0.8642,0.8436,0.0,0.0,0.0,0.0,0.0,0.0,0.0,0.0,0.0,0.0,0.0,0.0,0.0,0.0,0.0,0.0,0.0,0.0,0.0,0.0,0.0,0.0,0.0,0.0,0.0,0.0,0.0,0.0,0.0,0.0,0.0,0.0,0.0,0.0,0.0,0.0,0.0,0.0,0.0,0.0,0.0,0.0,0.0,0.0,0.0,0.0,0.0,0.0,0.0,0.0,0.0,0.0,0.0,0.0,0.0,0.0,0.0,1.0304,1.0846,1.1117,1.1117,1.1117,1.1117,1.1105,1.0808,0.0,0.0,0.0,0.0,0.0,0.0,0.0,0.0,0.0,0.0,0.0,0.0,0.0,0.0,0.0,0.0,0.0,0.0,0.0,0.0,0.0,0.0,0.0,0.0,0.0,0.0,0.0,0.8393,0.0,0.0,0.0,0.0,0.0,0.0,0.0,0.0,0.0,0.0,0.0,0.0,0.0,0.0,0.8193,0.8638,0.8708,0.8721,0.0,0.0,0.8657,0.8495,0.8919,0.9065,0.0,0.0,0.0,0.0,0.0,0.0,0.0,0.0,0.0,0.0,0.0,0.0,0.0,0.0,0.0,0.0,0.0,0.0,0.0,0.0,0.0,0.0,0.0,0.0,0.0,0.0,0.0,0.0,0.0,0.0,0.0,0.0,0.0,0.0,0.0,0.0,0.0,0.0,0.0,0.0,0.0,0.0,0.0,0.0,0.0,0.0,0.0,0.0,0.0,0.0,0.0,0.0,0.0,0.0,0.0,1.031,1.0809,1.1117,1.1117,1.1117,1.1117,1.1105,1.0834,1.0845,0.0,0.0,0.0,0.0,0.0,0.0,0.0,0.0,0.0,0.0,0.0,0.0,0.0,0.0,0.0,0.0,0.0,0.0,0.0,0.0,0.0,0.0,0.0,0.0,0.0,0.0,0.0,0.0,0.0,0.0,0.0,0.0,0.0,0.0,0.0,0.0,0.0,0.0,0.0,0.0,0.0,0.8311,0.8638,0.8708,0.8818,0.0,0.0,0.878,0.909,0.9372,0.9347,0.8758,0.0,0.0,0.0,0.0,0.0,0.0,0.0,0.0,0.0,0.0,0.0,0.0,0.0,0.0,0.0,0.0,0.0,0.0,0.0,0.0,0.0,0.0,0.0,0.0,0.0,0.0,0.0,0.0,0.0,0.0,0.0,0.0,0.0,0.0,0.0,0.0,0.0,0.0,0.0,0.0,0.0,0.0,0.0,0.0,0.0,0.0,0.0,0.0,0.0,0.0,0.0,0.0,0.0,1.0333,1.0339,1.0955,1.1304,1.1292,1.1409,1.1446,1.1484,1.1331,1.1201,0.0,0.0,0.0,0.0,0.0,0.0,0.0,0.0,0.0,0.0,0.0,0.0,0.0,0.0,0.0,0.0,0.0,0.0,0.0,0.0,0.0,0.0,0.0,0.0,0.0,0.0,0.0,0.0,0.915,0.9128,0.8929,0.0,0.0,0.0,0.0,0.0,0.0,0.0,0.0,0.0,0.0,0.8807,0.9069,0.9195,0.0,0.0,0.9163,0.9076,0.8906,0.9163,0.9148,0.8494,0.8385,0.0,0.0,0.0,0.0,0.0,0.0,0.0,0.0,0.0,0.0,0.0,0.0,0.0,0.0,0.0,0.0,0.0,0.0,0.0,0.0,0.0,0.0,0.0,0.0,0.0,0.0,0.0,0.0,0.0,0.0,0.0,0.0,0.0,0.0,0.0,0.0,0.0,0.0,0.0,0.0,0.0,0.0,0.0,0.0,0.0,0.0,0.0,0.0,0.0,0.0,0.0,0.0,1.0674,1.0674,1.131,1.1652,1.1659,1.1676,1.1706,1.17,1.1668,1.1472,0.0,0.0,0.0,0.0,0.0,0.0,0.0,0.0,0.0,0.0,0.0,0.0,0.0,0.0,0.0,0.0,0.0,0.0,0.0,0.0,0.0,0.0,0.0,0.0,0.0,0.0,0.0,0.0,0.9191,0.9159,0.8929,0.0,0.0,0.0,0.0,0.0,0.0,0.0,0.0,0.0,0.0,0.9234,0.929,0.9469,0.953,0.9308,0.939,0.9337,0.9089,0.9161,0.9087,0.8591,0.0,0.0,0.0,0.0,0.0,0.0,0.0,0.0,0.0,0.0,0.0,0.0,0.0,0.0,0.0,0.0,0.0,0.0,0.0,0.0,0.0,0.0,0.0,0.0,0.0,0.0,0.0,0.0,0.0,0.0,0.9653,0.0,0.0,0.0,0.0,0.0,0.0,0.0,0.0,0.0,0.0,0.0,0.0,0.0,0.0,0.0,0.0,0.0,0.0,0.0,0.0,0.0,0.0,0.0,1.1471,1.1948,1.219,1.2177,1.1865,1.1726,1.1713,1.17,1.1676,1.1608,0.0,0.0,0.0,0.0,0.0,0.0,0.0,0.0,0.0,0.0,0.0,0.0,0.0,0.0,0.0,0.0,0.0,0.0,0.0,0.0,0.0,0.0,0.0,0.0,0.0,0.0,0.8489,0.8715,0.8921,0.0,0.0,0.0,0.0,0.0,0.0,0.0,0.0,0.0,0.0,0.9268,0.953,0.9081,0.9341,0.9594,0.9521,0.9562,0.9619,0.9736,0.956,0.9333,0.0,0.0,0.0,0.0,0.0,0.0,0.0,0.0,0.0,0.0,0.0,0.0,0.0,0.0,0.0,0.0,0.0,0.0,0.0,0.0,0.0,0.0,0.0,0.0,0.0,0.0,0.0,1.0154,0.998,0.0,0.0,0.0,0.0,0.0,0.0,0.0,0.0,0.0,0.0,0.0,1.1464,1.1564,0.0,0.0,0.0,0.0,0.0,0.0,0.0,0.0,0.0,0.0,0.0,0.0,1.1571,1.1701,1.2344,1.2674,1.2667,1.2694,1.2614,1.2447,1.2447,1.2439,1.248,0.0,0.0,0.0,0.0,0.0,0.0,0.0,0.0,0.0,0.0,0.0,0.0,0.0,0.0,0.0,0.0,0.0,0.0,0.0,0.0,0.0,0.0,0.0,0.0,0.0,0.8858,0.0,0.0,0.0,0.0,0.0,0.0,0.0,0.0,0.0,0.0,0.0,0.8955,0.9146,0.9375,0.9455,0.9349,0.9744,1.0018,0.0,0.0,0.0,0.0,0.0,0.0,0.0,0.0,0.0,0.0,0.0,0.0,0.0,0.0,0.8245,0.7852,0.7609,0.7259,0.673,0.0,0.0,0.0,0.0,0.0,0.0,0.0,0.0,0.0,0.0,0.0,0.0,0.0,0.0,0.0,0.0,1.0835,0.0,0.0,0.0,0.0,0.0,0.0,0.0,0.0,1.167,1.1946,1.2208,1.2214,1.2234,0.0,1.221,1.1919,0.0,0.0,0.0,0.0,0.0,0.0,0.0,0.0,1.205,1.2183,1.2792,1.316,1.3153,1.318,1.312,1.2951,1.2844,1.2828,1.2869,1.2662,1.2875,0.0,0.0,0.0,0.0,0.0,0.0,0.0,0.0,0.0,0.0,0.0,0.0,0.0,0.0,0.0,0.0,0.0,0.0,0.0,0.0,0.0,0.0,0.0,0.931,0.0,0.0,0.0,0.0,0.0,0.0,0.0,0.0,0.0,0.931,0.9366,0.9533,0.9763,0.9874,0.9897,0.9662,0.0,0.0,0.0,0.0,0.0,0.0,0.0,0.9457,0.9536,0.943,0.9405,0.9766,0.9604,0.9363,0.9173,0.0,0.0,0.8473,0.8184,0.7885,0.7505,0.7284,0.6924,0.6088,0.5844,0.5692,0.0,0.0,0.0,0.0,0.0,0.0,0.0,0.0,1.2298,1.2131,0.0,1.2158,0.0,0.0,0.0,0.0,0.0,0.0,0.0,0.0,1.2879,1.3079,1.2817,1.2817,1.2817,1.2849,1.2518,1.2525,1.279,1.2198,0.0,0.0,0.0,0.0,0.0,0.0,1.2896,1.2942,1.3386,1.3613,1.3606,1.3347,1.3194,1.322,1.2965,1.2829,1.2833,1.2919,1.2946,1.3015,1.3606,0.0,0.0,0.0,0.0,0.0,0.0,0.0,0.0,0.0,0.0,0.0,0.0,0.0,0.0,0.0,0.0,0.0,0.0,0.0,0.0,0.9922,0.0,0.0,0.0,0.0,0.0,0.0,0.0,0.0,0.0,0.0,0.9969,1.0232,1.0472,1.0456,0.0,0.0,0.0,0.0,1.078,1.0079,1.0185,1.0298,1.0139,0.9986,1.003,1.0388,0.0,0.0,1.0574,1.0242,0.9967,0.9944,1.0018,0.9826,0.8965,0.8492,0.816,0.8061,0.7714,0.7206,0.6693,0.6523,0.6311,1.3514,0.0,0.0,0.0,0.0,1.2271,1.2382,1.2656,1.2656,1.2616,1.2536,1.2616,0.0,0.0,0.0,0.0,0.0,0.0,1.2412,1.2656,1.2837,1.3099,1.3387,1.334,1.3494,1.3694,1.3614,1.3621,1.3735,1.3532,1.3101,1.238,0.0,0.0,0.0,0.0,1.3074,1.3399,1.3766,1.3961,1.3961,1.3881,1.3734,1.348,1.3233,1.3238,1.3568,1.3614,1.3882,1.4512,1.4732,0.0,0.0,0.0,0.0,0.0,0.0,0.0,0.0,0.0,0.0,0.0,0.0,0.0,0.0,0.0,0.0,0.0,0.0,0.0,0.9978,1.0357,1.0423,0.0,0.0,0.0,0.0,0.0,0.0,0.0,0.0,0.0,1.1034,1.047,1.0056,0.0,0.0,1.0111,0.9807,1.0574,1.1173,1.1143,0.0,0.0,0.0,1.1705,1.1432,1.1403,1.1285,1.1115,1.0992,1.1048,1.1043,1.0806,1.0662,1.0513,1.0255,1.0038,0.9647,0.9084,0.8811,0.8475,0.7671,0.722,0.6854,1.483,1.4412,1.3786,1.3514,1.3427,1.326,1.3353,1.3668,1.3668,1.3541,1.3326,1.344,1.3132,1.2516,1.2516,0.0,0.0,0.0,1.2993,1.3313,1.332,1.3474,1.3801,1.3814,1.3915,1.4082,1.4088,1.4088,1.4082,1.3968,1.3606,1.2929,0.0,0.0,1.2797,1.3035,1.3305,1.3606,1.3935,1.4088,1.4088,1.4088,1.4001,1.378,1.35,1.3486,1.3751,1.3841,1.4126,1.4664,1.5016,1.5168,0.0,0.0,0.0,0.0,0.0,0.0,0.0,0.0,0.0,0.0,0.0,1.2355,0.0,0.0,0.0,0.0,1.1485,1.1183,1.0772,1.0899,0.0,0.0,0.0,0.0,0.0,0.0,0.0,1.0902,1.1268,1.1543,1.1662,1.1146,1.0785,1.0947,1.0971,1.0944,1.0871,0.0,1.2005,1.2024,1.2081,1.2282,1.2554,1.2436,1.2327,1.2422,1.2367,1.2298,1.2134,1.2096,1.1996,1.1819,1.1501,1.1329,1.1322,1.1182,1.0821,0.9996,0.9813,0.9555,0.8767,0.8355,0.7995,1.5852,1.5745,1.4676,1.4369,1.4589,1.4569,1.4703,1.5008,1.5001,1.4707,1.4188,1.4436,1.3948,1.2971,1.2965,0.0,0.0,1.3706,1.3895,1.4162,1.4155,1.4155,1.4162,1.4197,1.4155,1.4204,1.4155,1.4155,1.4148,1.382,1.366,1.364,1.3613,1.346,1.324,1.3433,1.358,1.3606,1.3915,1.4068,1.4088,1.4088,1.4088,1.4082,1.3862,1.3783,1.3791,1.3991,1.4095,1.4216,1.4877,1.5274,1.5265,0.0,0.0,0.0,0.0,0.0,0.0,0.0,0.0,0.0,0.0,0.0,0.0,0.0,0.0,0.0,1.2378,0.0,1.2078,1.154,0.0,0.0,0.0,1.1235,1.1511,1.1575,1.1555,1.1527,0.0,0.0,0.0,0.0,1.2242,1.2662,1.2646,1.259,1.259,1.2877,1.3044,1.271,1.2578,1.2508,1.2672,1.2699,1.2891,1.3304,1.3524,1.3488,1.3448,1.3135,1.2866,1.2819,1.2474,1.218,1.2204,1.2048,1.1659,1.0902,1.0667,1.0466,0.985,0.9635,0.9247,1.6128,1.6055,1.5578,1.5331,1.517,1.495,1.4948,1.5008,1.5015,1.4928,1.4807,1.483,1.4747,1.4479,1.4479,1.4559,1.4693,1.4656,1.4689,1.475,1.4794,1.48,1.4756,1.475,1.4794,1.48,1.4794,1.48,1.4736,1.4456,1.4195,1.3981,1.3713,1.346,1.3227,1.328,1.3387,1.3606,1.3673,1.3861,1.4075,1.4088,1.4088,1.4088,1.4671,1.5126,1.5481,1.5558,1.5912,1.66,1.622,1.5982,1.6028,1.5729,0.0,0.0,0.0,0.0,0.0,0.0,0.0,0.0,0.0,1.2883,1.2294,0.0,1.2869,0.0,1.2576,1.2691,1.2748,1.2614,0.0,0.0,1.2191,1.2055,1.1916,1.2114,1.2191,1.1892,1.2168,1.2471,1.2821,1.283,1.306,1.364,1.3092,1.259,1.2606,1.3124,1.3474,1.3402,1.3733,1.4029,1.3981,1.3768,1.3655,1.3913,1.3689,1.3475,1.3584,1.3371,1.3242,1.3358,1.3121,1.2968,1.3051,1.2935,1.2578,1.2019,1.1433,1.085,1.0473,1.0042,0.963,1.6772,1.6566,1.6333,1.6034,1.5765,1.5471,1.5351,1.5351,1.5351,1.5323,1.5196,1.5068,1.5015,1.5015,1.5015,1.5015,1.5015,1.5015,1.5015,1.5015,1.5015,1.5015,1.5015,1.5015,1.5015,1.5015,1.5015,1.5015,1.5001,1.4796,1.4629,1.4519,1.4309,1.4021,1.3607,1.3347,1.3287,1.3407,1.3533,1.3746,1.4075,1.4088,1.4028,1.3895,1.4331,1.472,1.5001,1.5257,1.5675,1.6342,1.6113,1.6002,1.6023,1.5652,1.5331,0.0,0.0,0.0,0.0,0.0,0.0,0.0,0.0,0.0,0.0,0.0,1.3247,0.0,1.3223,0.0,1.3076,1.2874,1.2763,1.272,1.272,1.2754,1.2903,1.31,1.3194,1.3199,1.3279,1.3453,1.3753,1.3677,1.3735,1.4275,1.3846,1.3489,1.3513,1.3831,1.4053,1.4077,1.4359,1.4605,1.4605,1.4375,1.4241,1.4296,1.4092,1.3965,1.4019,1.3824,1.3695,1.3781,1.3569,1.3367,1.3441,1.3341,1.3112,1.2813,1.23,1.17,1.1151,1.0773,1.0474,1.7405,1.715,1.684,1.6626,1.6453,1.61,1.5899,1.5825,1.5825,1.5685,1.5438,1.5184,1.5122,1.5115,1.5077,1.5115,1.5115,1.5122,1.5122,1.5122,1.5122,1.5122,1.5122,1.5077,1.507,1.5122,1.5122,1.5122,1.5115,1.5082,1.5042,1.5008,1.493,1.468,1.4088,1.3581,1.3287,1.322,1.3494,1.3726,1.4015,1.3995,1.3848,1.3567,1.3662,1.3812,1.3957,1.4361,1.4775,1.5206,1.5524,1.5738,1.5835,1.5423,1.5221,0.0,1.4909,0.0,0.0,0.0,0.0,0.0,0.0,0.0,0.0,1.3963,1.3693,1.3886,1.4102,1.4007,1.3468,1.3124,1.3035,1.3298,1.3371,1.358,1.417,1.4233,1.4371,1.4741,1.4537,1.4472,1.4762,1.4551,1.4511,1.4721,1.48,1.4776,1.4708,1.4676,1.466,1.4716,1.4732,1.4819,1.4787,1.4724,1.4676,1.4668,1.4589,1.4605,1.4565,1.4336,1.4145,1.4122,1.3924,1.3733,1.3719,1.365,1.3549,1.346,1.3137,1.2642,1.1966,1.165,1.1437,1.7548,1.7406,1.7158,1.7124,1.7266,1.697,1.6474,1.5832,1.5825,1.5751,1.5745,1.5691,1.5665,1.5665,1.5665,1.5671,1.5665,1.5665,1.5671,1.5671,1.5665,1.5665,1.5665,1.5665,1.5665,1.5618,1.5665,1.5665,1.5658,1.5424,1.5243,1.5008,1.4723,1.4436,1.4102,0.0,0.0,0.0,1.3453,1.3626,1.3673,1.346,1.3347,1.3293,1.3954,0.0,1.5272,1.5393,1.5811,1.648,1.5939,0.0,0.0,0.0,0.0,0.0,0.0,0.0,0.0,0.0,0.0,0.0,1.5074,1.4659,1.4524,1.4382,1.4471,1.4814,1.489,1.4991,1.5196,1.516,1.511,1.5183,1.5192,1.5128,1.5033,1.4977,1.5061,1.517,1.5129,1.5223,1.5539,1.5783,1.5822,1.5569,1.5786,1.5799,1.5543,1.5282,1.5189,1.5411,1.5419,1.5459,1.5483,1.5245,1.5078,1.5054,1.4779,1.4637,1.4621,1.4474,1.4395,1.4451,1.4375,1.4277,1.4356,1.4407,1.4226,1.387,1.3754,1.3484,1.2725,1.2229,1.1883,1.8358,0.0,1.7705,1.7542,0.0,1.7232,1.6851,1.6405,1.6161,1.5965,1.5825,1.5825,1.5825,1.5825,1.5825,1.5825,1.5825,1.5825,1.5825,1.5825,1.5825,1.5825,1.5825,1.5825,1.5825,1.5825,1.5825,1.5825,1.5771,1.5678,1.5538,1.5391,1.5192,1.5017,1.4743,1.4596,1.4229,1.3647,1.3788,1.3868,1.3854,1.4117,1.4202,1.4048,0.0,0.0,0.0,0.0,0.0,0.0,0.0,0.0,0.0,0.0,0.0,1.6872,1.634,1.6083,1.6266,1.6111,1.6083,1.6276,1.6101,1.5735,1.5139,1.546,1.578,1.5964,1.5817,1.579,1.5973,1.5817,1.5689,1.5689,1.5689,1.5707,1.5734,1.5746,1.5833,1.603,1.6079,1.6166,1.6305,1.6534,1.661,1.6395,1.6501,1.6627,1.6522,1.591,1.5507,1.565,1.5674,1.5666,1.5658,1.5593,1.5465,1.5433,1.5276,1.5094,1.4935,1.4838,1.4754,1.466,1.4533,1.4533,1.4569,1.4605,1.4514,1.4285,1.4202,1.405,1.3631,1.3029,1.2516,1.9234,1.8926,1.8455,1.8056,1.7788,1.7482,1.7301,1.7182,0.0,0.0,0.0,1.5939,1.5905,1.5899,1.5804,1.5825,1.5825,1.5825,1.5825,1.5825,1.5825,1.5825,1.5825,1.5825,1.5825,1.5825,1.5825,1.5825,1.5825,1.5825,1.5825,1.5825,1.5825,1.5705,1.5478,1.5283,1.499,1.4593,1.43,1.4142,1.4137,1.4768,1.4914,1.4597,1.5501,1.6087,1.6263,1.6413,1.6685,1.7002,1.7009,1.7046,1.7119,1.7055,1.7073,1.7202,1.6853,1.6752,1.6982,1.6707,1.6633,1.689,1.6908,1.6615,1.5978,1.6523,1.6908,1.6908,1.6606,1.6422,1.6389,1.612,1.59,1.59,1.59,1.6074,1.6425,1.6489,1.6663,1.7003,1.7117,1.7089,1.7106,1.725,1.727,1.7194,1.7289,1.7346,1.741,1.669,1.6029,1.5967,1.596,1.5896,1.5864,1.5847,1.5785,1.5769,1.5705,1.557,1.5393,1.5268,1.5125,1.4824,1.47,1.4676,1.4621,1.4605,1.4605,1.4605,1.4533,1.4433,1.4386,1.3882,1.3324,1.9535,1.9217,1.9167,1.8942,1.8693,1.8369,1.795,1.749,1.7139,1.6826,1.6567,1.6319,1.6213,1.6192,1.5945,1.5825,1.5825,1.5825,1.5825,0.0,1.5825,1.5825,1.5825,1.5825,1.5825,1.5825,1.5825,1.5825,1.5825,1.5825,1.5825,1.5825,1.5825,1.5805,1.5765,1.5725,1.5949,1.6443,1.5143,1.4342,1.4095,1.3959,1.373,1.3486,1.4366,1.5087,1.5755,1.6552,1.7053,1.7395,1.7413,1.7578,1.7917,1.7623,1.7715,1.8366,1.8082,1.7706,1.744,1.7367,1.7202,1.6936,1.6908,1.6853,1.6752,1.6844,1.6908,1.6908,1.6844,1.6826,1.6826,1.6752,1.6707,1.6725,1.6734,1.6899,1.7257,1.7312,1.7449,1.7798,1.7953,1.7925,1.7915,1.8187,1.8278,1.8092,1.8183,1.8316,1.7926,1.7518,1.7041,1.6668,1.6547,1.6547,1.6484,1.6309,1.6158,1.6134,1.5896,1.5729,1.5672,1.561,1.5491,1.5165,1.5102,1.499,1.47,1.4605,1.4621,1.4621,1.4569,1.4569,1.4533,1.4399,1.4116,1.9981,1.974,1.9399,1.9256,1.9105,1.8776,1.8411,1.8057,1.7867,1.7465,1.6907,1.6616,1.6513,1.65,1.6366,1.6306,1.6306,1.6299,1.6219,1.6072,1.6072,1.5985,1.5838,1.5825,1.5825,1.5825,1.5825,1.5825,1.5825,1.5825,1.5825,1.5825,1.5825,1.5825,1.5825,1.5825,1.5987,1.6258,1.5431,1.5376,1.6143,1.5725,1.5688,1.6118,1.6764,1.7257,1.7648,1.8046,1.8323,1.8476,1.8476,1.8568,1.8742,1.8577,1.8641,1.899,1.866,1.8319,1.8174,1.7743,1.7413,1.7238,1.7027,1.6908,1.6908,1.6908,1.6908,1.6908,1.6908,1.6908,1.6917,1.7101,1.722,1.722,1.7413,1.7642,1.7798,1.7834,1.7917,1.8072,1.8274,1.8402,1.8402,1.8788,1.8996,1.881,1.8951,1.8873,1.8442,1.825,1.7838,1.7229,1.6853,1.6689,1.6722,1.657,1.65,1.6451,1.6357,1.6174,1.6023,1.596,1.5817,1.5531,1.5489,1.5316,1.4998,1.4935,1.4827,1.4621,1.4605,1.4605,1.4605,1.4605,1.4442,2.0424,2.027,1.9812,1.9524,1.9313,1.9333,1.9031,1.8541,1.8624,1.8208,1.7397,1.6992,1.6807,1.68,1.6734,1.6857,1.7007,1.6807,1.6736,1.6772,1.6513,1.6253,1.5984,1.5965,1.5932,1.5919,1.5818,1.5825,1.5825,1.5825,1.5927,1.615,1.6339,1.6339,1.6109,1.6157,1.6251,1.6419,1.6064,1.6428,1.7603,1.7459,1.7679,1.8263,1.8827,1.9114,1.9024,1.9222,1.9292,1.9292,1.9292,1.9292,1.9292,1.9292,1.9292,1.9265,1.9017,1.8806,1.8678,1.8045,1.7642,1.7623,1.7358,1.7183,1.7183,1.7183,1.7138,1.7064,1.7055,1.7092,1.7229,1.7458,1.7633,1.766,1.7917,1.8128,1.82,1.8219,1.8302,1.8356,1.866,1.8852,1.8898,1.9109,1.9265,1.9274,1.9292,1.9152,1.8891,1.8772,1.8371,1.7878,1.7302,1.7057,1.6976,1.6935,1.6878,1.6861,1.6755,1.6563,1.6389,1.6325,1.6182,1.5896,1.5793,1.565,1.538,1.5205,1.507,1.4811,1.4692,1.4605,1.4605,1.4605,1.4561,2.0913,2.0698,2.057,2.0069,1.9463,2.0287,1.9956,1.8995,1.9294,1.9057,1.8282,1.7486,1.721,1.7125,1.684,1.7234,1.8066,1.72,1.7243,1.8001,1.7158,1.6647,1.6715,1.6451,1.6281,1.6296,1.6068,1.5947,1.5947,1.5879,1.6244,1.7185,1.8056,1.801,1.7279,1.7185,1.7598,1.8465,1.7615,1.7074,1.7025,1.7782,1.7946,1.7433,1.8246,1.848,1.8282,1.8895,1.9292,1.9292,1.9292,1.9292,1.9292,1.9292,1.9292,1.9292,1.9256,1.91,1.8742,1.8311,1.8027,1.8027,1.7972,1.7963,1.7935,1.7944,1.7834,1.7559,1.7449,1.7587,1.7917,1.7999,1.8064,1.8073,1.8109,1.8219,1.8577,1.866,1.8788,1.9155,1.9155,1.9246,1.921,1.9256,1.9283,1.9292,1.9292,1.9262,1.9183,1.8922,1.8732,1.8531,1.817,1.7919,1.7789,1.7554,1.7351,1.7278,1.6984,1.6731,1.6635,1.6578,1.6531,1.6246,1.615,1.6023,1.5736,1.5449,1.5229,1.5125,1.4882,1.4621,1.4605,1.4605,1.4569,2.113,2.0991,2.0801,2.0354,1.9961,2.0295,1.9957,1.9254,1.9994,1.9978,1.948,1.9683,1.8972,1.7499,1.7437,1.764,1.7935,1.83,1.8499,1.8677,1.8755,1.8808,1.8663,1.8544,1.8518,1.839,1.7517,1.7039,1.7003,1.68,1.6904,1.7326,1.8288,1.8603,1.8195,1.8195,1.8427,1.8796,1.8972,1.9029,1.8928,1.9047,1.9284,1.9531,1.9448,1.932,1.9133,1.9239,1.9292,1.9292,1.9292,1.9292,1.9292,1.9292,1.9292,1.9292,1.9292,1.9237,1.9072,1.8696,1.8476,1.8438,1.8219,1.8081,1.8081,1.8081,1.81,1.8192,1.7999,1.7917,1.8091,1.8292,1.8476,1.8466,1.863,1.888,1.9026,1.9054,1.9136,1.9274,1.9292,1.9301,1.9292,1.9292,1.9292,1.9292,1.9301,1.9338,1.9271,1.9152,1.9082,1.9042,1.8873,1.8554,1.8161,1.7878,1.7676,1.7432,1.7229,1.7066,1.6771,1.6689,1.6626,1.6483,1.6451,1.6357,1.6055,1.5904,1.5745,1.5531,1.5205,1.4874,1.4653,1.4605,1.4605,2.215,2.2055,2.1545,2.1155,2.0856,2.0801,2.0288,1.9793,2.097,2.1068,2.0392,2.1399,2.0727,1.8916,1.8878,1.8826,1.8871,1.9709,2.0095,1.995,2.0438,2.0518,2.0237,2.0166,2.0134,1.9924,1.9003,1.8267,1.8026,1.8291,1.8109,1.7947,1.898,1.9476,1.9247,1.9209,1.9201,1.9293,1.9985,2.0393,2.0584,2.0402,2.0518,2.0985,2.0515,2.0168,2.0049,1.9797,1.9586,1.9476,1.9467,1.9421,1.9311,1.9292,1.9292,1.9292,1.9292,1.9292,1.9292,1.9036,1.8871,1.8852,1.8595,1.8449,1.8411,1.8449,1.8568,1.8788,1.8614,1.842,1.8447,1.8705,1.8861,1.8898,1.9146,1.9292,1.9283,1.9292,1.9338,1.9439,1.9512,1.9522,1.9613,1.9668,1.9696,1.9696,1.9668,1.9632,1.9632,1.9668,1.9628,1.9622,1.9527,1.919,1.8509,1.8282,1.804,1.7838,1.7725,1.7392,1.6976,1.6894,1.6771,1.6716,1.6706,1.6618,1.6397,1.6293,1.6087,1.5769,1.5475,1.5205,1.4903,1.4779,1.47,2.4561,2.4339,2.3335,2.268,2.2371,2.2269,2.1478,2.0535,2.2277,2.2331,2.1244,2.204,2.2041,2.1497,2.1342,2.1293,2.1379,2.1285,2.1726,2.2373,2.1736,2.1151,2.0872,2.0546,2.0486,2.0702,2.0232,1.9268,1.8215,1.9721,2.0062,1.892,2.0501,2.1042,2.0348,2.0212,2.0249,2.0303,2.0393,2.0754,2.1499,2.1579,2.1361,2.1172,2.1053,2.0833,2.0497,2.0433,2.0283,1.9875,1.9857,1.9692,1.9375,1.932,1.9329,1.9301,1.9301,1.9292,1.9292,1.9256,1.9246,1.9256,1.9222,1.9258,1.9176,1.9166,1.9203,1.9256,1.9219,1.921,1.921,1.9191,1.9246,1.9274,1.9292,1.9329,1.9347,1.943,1.9503,1.9797,1.9857,1.9966,2.0356,2.0466,2.0383,2.0374,2.042,2.0393,2.0421,2.0425,2.0365,2.0333,2.009,1.9729,1.9301,1.8873,1.87,1.846,1.8089,1.7838,1.7595,1.731,1.7098,1.6894,1.6853,1.6788,1.6651,1.6452,1.6142,1.5888,1.5769,1.5515,1.5213,1.5173,1.5062,2.4014,2.4663,2.4283,2.3986,2.3933,2.3861,2.3442,2.2966,2.4312,2.4518,2.4044,2.4839,2.486,2.4099,2.4509,2.3611,2.1903,2.245,2.2953,2.3194,2.3461,2.3569,2.3443,2.3309,2.3206,2.2897,2.2065,2.0905,1.9726,2.0473,2.0771,2.0609,2.1257,2.1508,2.123,2.1177,2.1275,2.1454,2.1445,2.1678,2.2043,2.2052,2.188,2.1732,2.1332,2.1034,2.0897,2.0659,2.0457,2.0259,2.0301,2.0287,2.0287,2.0086,1.9777,1.9506,1.9381,1.9292,1.9292,1.9429,1.9469,1.9508,1.9627,1.9694,1.9666,1.9587,1.9518,1.9524,1.9626,1.9687,1.9641,1.9467,1.9412,1.961,1.9714,1.9806,2.0017,2.009,2.0154,2.0232,2.0259,2.0332,2.0512,2.053,2.0521,2.0521,2.053,2.0717,2.1034,2.0815,2.0735,2.0973,2.0694,2.0214,2.0095,1.9465,1.9042,1.8772,1.8491,1.821,1.7968,1.7838,1.7635,1.727,1.7139,1.6927,1.6805,1.6602,1.6317,1.6134,1.6015,1.5872,1.557,1.5523,1.5332,2.4799,2.5726,2.5452,2.5278,2.5232,2.4837,2.4581,2.4576,2.5622,2.5903,2.5792,2.6753,2.6727,2.6088,2.65,2.5614,2.3615,2.4172,2.4253,2.4007,2.4677,2.499,2.4883,2.4892,2.4784,2.4492,2.3752,2.2505,2.1309,2.1691,2.1784,2.1426,2.1907,2.2039,2.1937,2.1865,2.1963,2.2141,2.2141,2.2185,2.2353,2.2264,2.2185,2.2138,2.1764,2.1484,2.1397,2.1182,2.097,2.0911,2.0883,2.0819,2.089,2.0729,2.0448,2.0145,2.0028,1.9857,1.9857,2.0037,2.0086,2.0037,2.0198,2.0339,2.0309,2.0188,2.0148,2.0143,2.0138,2.025,2.0236,2.0033,1.9905,2.0072,2.0076,2.0177,2.0433,2.0512,2.0567,2.0695,2.086,2.0906,2.0906,2.0924,2.09,2.0872,2.0863,2.1215,2.1726,2.1632,2.1386,2.1834,2.1485,2.1029,2.067,2.014,1.9651,1.9345,1.9151,1.8837,1.8463,1.8325,1.8097,1.7725,1.7432,1.7139,1.6935,1.6771,1.6562,1.6404,1.6357,1.6261,1.6039,1.5864,1.5704,2.7133,2.7906,2.7015,2.6527,2.6354,2.5452,2.4829,2.518,2.6091,2.6432,2.633,2.7237,2.7428,2.7097,2.7065,2.6888,2.6538,2.6138,2.5683,2.5339,2.5351,2.5244,2.5047,2.5,2.499,2.4892,2.4864,2.4042,2.2735,2.3428,2.3221,2.2151,2.2602,2.274,2.2381,2.2213,2.2185,2.2309,2.2274,2.2274,2.2397,2.2388,2.2388,2.2397,2.2359,2.2208,2.2104,2.2041,2.1914,2.1753,2.1601,2.131,2.1104,2.1117,2.1172,2.1097,2.1125,2.107,2.0885,2.0963,2.0976,2.0893,2.1084,2.1132,2.1104,2.1091,2.1059,2.1049,2.0968,2.0941,2.1066,2.0992,2.0815,2.0563,2.0605,2.0675,2.0604,2.0567,2.0686,2.1062,2.1383,2.1641,2.1659,2.1682,2.169,2.1699,2.1796,2.2086,2.2766,2.2746,2.2761,2.2771,2.2466,2.2064,2.1399,2.0778,2.0393,2.004,1.9857,1.9584,1.9111,1.8842,1.8579,1.823,1.7725,1.7432,1.7098,1.6894,1.6771,1.6644,1.666,1.662,1.6517,1.638,1.6125,2.796,2.8237,2.7906,2.7736,2.7682,2.7349,2.7168,2.7178,2.7628,2.7659,2.7617,2.7927,2.8008,2.792,2.7891,2.7734,2.7461,2.7253,2.6929,2.648,2.6179,2.5983,2.5876,2.5575,2.5333,2.5186,2.499,2.4767,2.4452,2.4362,2.4041,2.3768,2.3285,2.3064,2.2893,2.2513,2.2441,2.2662,2.2627,2.2662,2.2838,2.275,2.2662,2.2662,2.2485,2.2441,2.2574,2.2397,2.2287,2.2242,2.2155,2.2019,2.185,2.1849,2.1738,2.1419,2.1256,2.1182,2.115,2.1326,2.147,2.1419,2.1595,2.1668,2.1658,2.1543,2.146,2.1447,2.148,2.1542,2.1622,2.1806,2.172,2.1252,2.1566,2.1679,2.1444,2.1397,2.1357,2.1467,2.1614,2.1687,2.182,2.2052,2.2353,2.2485,2.2731,2.329,2.396,2.3734,2.3767,2.4039,2.3576,2.3024,2.2327,2.1791,2.1403,2.0945,2.0666,2.0241,1.9734,1.9561,1.9219,1.8614,1.814,1.7716,1.7351,1.7106,1.6976,1.6812,1.6731,1.6806,1.696,1.6822,1.6564,2.7906,2.8291,2.8301,2.8301,2.8301,2.8301,2.8291,2.8301,2.8301,2.8301,2.8291,2.8291,2.8301,2.8301,2.8301,2.8154,2.7963,2.7953,2.7754,2.7422,2.6865,2.6631,2.6572,2.6182,2.5722,2.5352,2.5235,2.5235,2.5274,2.4976,2.4852,2.4687,2.415,2.3671,2.3367,2.299,2.2834,2.292,2.2847,2.2891,2.3013,2.2969,2.2935,2.2882,2.275,2.274,2.2882,2.275,2.2652,2.2652,2.2662,2.2572,2.2438,2.2495,2.2403,2.2148,2.1996,2.1878,2.1826,2.2024,2.2071,2.209,2.2217,2.2363,2.2321,2.2155,2.2103,2.2119,2.215,2.2193,2.2318,2.2402,2.2343,2.2038,2.2207,2.2452,2.2429,2.2799,2.2877,2.2877,2.2633,2.2432,2.2397,2.2353,2.275,2.2925,2.3256,2.394,2.4466,2.4466,2.468,2.4765,2.4414,2.3836,2.327,2.2829,2.2431,2.1934,2.1475,2.0857,2.0297,2.0452,2.0359,1.925,1.8562,1.8106,1.7757,1.7432,1.7229,1.7066,1.6984,1.7033,1.7155,1.718,1.7,2.7295,2.8237,2.8301,2.8301,2.8301,2.8301,2.8301,2.8301,2.8301,2.8301,2.8301,2.8301,2.8301,2.8301,2.8301,2.8262,2.8281,2.8242,2.8213,2.7998,2.749,2.71,2.6904,2.6514,2.6044,2.5575,2.5576,2.5547,2.5382,2.5489,2.5527,2.5128,2.4972,2.4678,2.3981,2.3612,2.3297,2.3149,2.2964,2.2925,2.3091,2.3101,2.3091,2.3101,2.3047,2.3047,2.3057,2.3057,2.3057,2.3091,2.3057,2.295,2.2862,2.3003,2.2989,2.293,2.3062,2.2882,2.2843,2.2824,2.2887,2.2746,2.2868,2.3091,2.2974,2.2916,2.2882,2.2901,2.2926,2.3008,2.3129,2.3246,2.3115,2.2994,2.2872,2.3042,2.3823,2.4542,2.45,2.4349,2.4102,2.3714,2.3343,2.3071,2.3169,2.343,2.3691,2.4413,2.4807,2.5147,2.5031,2.5031,2.5105,2.4712,2.4145,2.3767,2.3371,2.2906,2.2452,2.1982,2.1202,2.1297,2.1266,2.014,1.9282,1.8762,1.8316,1.8108,1.7831,1.7627,1.7546,1.7432,1.7432,1.7522,1.7587,2.8023,2.8301,2.8301,2.8301,2.8301,2.8301,2.8301,2.8301,2.8301,2.8301,2.8301,2.8301,2.8301,2.8301,2.8301,2.8301,2.8301,2.8301,2.8301,2.8271,2.8096,2.7568,2.7041,2.6602,2.6288,2.6073,2.5869,2.5645,2.5586,2.5645,2.5625,2.5557,2.5234,2.499,2.4687,2.4075,2.367,2.3584,2.3193,2.3067,2.3091,2.3101,2.3101,2.3101,2.3101,2.3101,2.3101,2.3101,2.3101,2.3101,2.3101,2.3091,2.3013,2.3047,2.3101,2.3101,2.3101,2.3101,2.3057,2.3057,2.3057,2.3057,2.3047,2.3101,2.3101,2.3101,2.3101,2.3222,2.3604,2.4026,2.4198,2.4573,2.4861,2.4893,2.4135,2.4049,2.5115,2.5263,2.5041,2.4925,2.4882,2.4713,2.4628,2.4766,2.4999,2.5253,2.5505,2.5841,2.5893,2.5988,2.5946,2.5915,2.5863,2.5516,2.5094,2.468,2.4294,2.3833,2.3543,2.3426,2.2616,2.2134,2.1863,2.1208,2.0671,2.0143,1.9551,1.9133,1.8753,1.8319,1.7919,1.7765,1.8049,1.817,1.817,2.8301,2.8301,2.8301,2.8301,2.8301,2.8301,2.8301,2.8301,2.8301,2.8301,2.8301,2.8301,2.8301,2.8301,2.8301,2.8301,2.8301,2.8301,2.8301,2.8301,2.8271,2.79,2.7363,2.7002,2.6748,2.6377,2.6143,2.5869,2.5713,2.5684,2.5684,2.5645,2.5488,2.5254,2.5047,2.4675,2.4121,2.3818,2.3516,2.334,2.312,2.3101,2.3101,2.3101,2.3101,2.3101,2.3101,2.3101,2.3101,2.3101,2.3101,2.3101,2.3101,2.3101,2.3101,2.3101,2.3101,2.3101,2.3101,2.3101,2.3101,2.3101,2.3101,2.3101,2.3101,2.3101,2.3101,2.3178,2.3993,2.4413,2.4669,2.5295,2.5913,2.6163,2.5694,2.5621,2.6569,2.6607,2.6442,2.6329,2.6121,2.5902,2.5735,2.5955,2.6133,2.6268,2.6393,2.6599,2.6723,2.6775,2.6775,2.6704,2.6622,2.6351,2.5966,2.5547,2.5137,2.4691,2.4467,2.4386,2.3905,2.3119,2.2687,2.2322,2.1935,2.1476,2.0883,2.0205,1.9543,1.9079,1.8493,1.8308,1.8598,1.8612,1.8612,2.8301,2.8301,2.8301,2.8301,2.8301,2.8301,2.8301,2.8301,2.8301,2.8301,2.8301,2.8301,2.8301,2.8301,2.8301,2.8301,2.8301,2.8301,2.8301,2.8301,2.8271,2.8066,2.7816,2.762,2.7207,2.6689,2.6484,2.6172,2.5918,2.5752,2.5684,2.5674,2.5664,2.5527,2.5234,2.5096,2.4639,2.4131,2.3916,2.3643,2.3315,2.3237,2.3208,2.3101,2.3101,2.3101,2.3101,2.3101,2.3101,2.3101,2.3101,2.3101,2.3101,2.3101,2.3101,2.3101,2.3101,2.3101,2.3101,2.3101,2.3101,2.3101,2.3101,2.3178,2.3299,2.3387,2.3474,2.3724,2.4284,2.5041,2.5368,2.583,2.6494,2.7133,2.7255,2.7307,2.747,2.8018,2.8351,2.8002,2.7534,2.7144,2.6764,2.6423,2.6287,2.7092,2.7226,2.7267,2.7319,2.7278,2.7278,2.7237,2.7196,2.7196,2.6764,2.637,2.5955,2.5537,2.5295,2.5157,2.4904,2.4294,2.3771,2.3337,2.3001,2.2613,2.2154,2.1445,2.0627,2.0033,1.9598,1.9317,1.9123,1.8949,1.8882,2.8301,2.8301,2.8301,2.8301,2.8301,2.8301,2.8301,2.8301,2.8301,2.8301,2.8301,2.8301,2.8301,2.8301,2.8301,2.8301,2.8301,2.8301,2.8301,2.8301,2.8301,2.8262,2.8076,2.7861,2.7578,2.7226,2.667,2.6357,2.6191,2.5918,2.5684,2.5693,2.5674,2.5635,2.5557,2.5244,2.5067,2.4783,2.4453,2.4072,2.3721,2.3603,2.3447,2.314,2.3101,2.3101,2.3101,2.3101,2.3101,2.3101,2.3101,2.3101,2.3101,2.3101,2.3101,2.3101,2.3101,2.3101,2.3101,2.3101,2.3101,2.3101,2.3135,2.343,2.4155,2.4155,2.4488,2.5158,2.6049,2.6682,2.7255,2.7725,2.7886,2.8047,2.8139,2.8139,2.8219,2.8379,2.8443,2.8351,2.8231,2.8139,2.8047,2.7846,2.7834,2.8007,2.7966,2.7938,2.7857,2.7748,2.7736,2.7725,2.7603,2.7563,2.7482,2.7051,2.664,2.6299,2.6102,2.5935,2.5694,2.5504,2.4976,2.4524,2.4169,2.3732,2.3308,2.2684,2.1904,2.1339,2.0727,2.0339,1.9941,1.9583,1.9231,2.8301,2.8301,2.8301,2.8301,2.8301,2.8301,2.8301,2.8301,2.8301,2.8301,2.8301,2.8301,2.8301,2.8301,2.8301,2.8301,2.8301,2.8301,2.8301,2.8301,2.8301,2.8301,2.8271,2.8076,2.7881,2.7637,2.7246,2.6836,2.6426,2.6162,2.5898,2.5703,2.5684,2.5674,2.5684,2.5488,2.5283,2.5096,2.4853,2.4512,2.415,2.3867,2.3584,2.3179,2.3101,2.3101,2.3101,2.3101,2.3101,2.3101,2.3101,2.3101,2.3101,2.3101,2.3101,2.3101,2.3101,2.3101,2.3101,2.3101,2.3101,2.3101,2.3101,2.3647,2.4241,2.4488,2.4914,2.5746,2.6629,2.7522,2.8391,2.8471,2.851,2.851,2.851,2.851,2.851,2.851,2.851,2.851,2.8471,2.8471,2.851,2.851,2.8471,2.8259,2.8259,2.8231,2.8271,2.8151,2.8151,2.8099,2.7978,2.7938,2.803,2.7736,2.7278,2.6981,2.6764,2.6652,2.6547,2.6393,2.6216,2.5646,2.5048,2.4798,2.4347,2.3732,2.3135,2.2446,2.1836,2.132,2.0878,2.0516,2.011,2.8301,2.8301,2.8301,2.8301,2.8301,2.8301,2.8301,2.8301,2.8301,2.8301,2.8301,2.8301,2.8301,2.8301,2.8301,2.8301,2.8301,2.8301,2.8301,2.8301,2.8301,2.8301,2.8281,2.8223,2.8096,2.7826,2.766,2.7258,2.6777,2.6426,2.6172,2.584,2.5693,2.5693,2.5684,2.5674,2.5557,2.5264,2.5205,2.4951,2.457,2.4219,2.3887,2.3491,2.3276,2.3266,2.3237,2.3169,2.3101,2.3101,2.3101,2.3101,2.3101,2.3101,2.3101,2.3101,2.3101,2.3101,2.3101,2.3101,2.3101,2.3101,2.3309,2.3777,2.4488,2.5084,2.5663,2.6287,2.7133,2.7753,2.8391,2.851,2.851,2.851,2.851,2.851,2.851,2.851,2.851,2.851,2.851,2.851,2.851,2.851,2.851,2.851,2.851,2.851,2.851,2.8471,2.8431,2.8391,2.8271,2.8179,2.8271,2.8231,2.7777,2.7534,2.7319,2.7226,2.7156,2.6899,2.6652,2.6385,2.5891,2.5599,2.5293,2.4817,2.419,2.3481,2.2945,2.2429,2.1947,2.1469,2.1025,2.8301,2.8301,2.8301,2.8301,2.8301,2.8301,2.8301,2.8301,2.8301,2.8301,2.8301,2.8301,2.8301,2.8301,2.8301,2.8301,2.8301,2.8301,2.8301,2.8301,2.8301,2.8301,2.8301,2.8291,2.8232,2.8115,2.7943,2.762,2.7297,2.6777,2.6445,2.624,2.5947,2.5732,2.5693,2.5684,2.5654,2.5557,2.5537,2.5332,2.5019,2.4795,2.4521,2.4102,2.3809,2.3701,2.3594,2.3305,2.3101,2.3101,2.3101,2.312,2.3188,2.3188,2.3159,2.3135,2.3222,2.3266,2.3266,2.3222,2.3135,2.3266,2.381,2.4659,2.5495,2.6216,2.6794,2.7551,2.7966,2.8339,2.8471,2.851,2.851,2.851,2.851,2.851,2.851,2.851,2.851,2.851,2.851,2.851,2.851,2.851,2.851,2.851,2.851,2.851,2.851,2.851,2.8471,2.8471,2.8471,2.8431,2.8471,2.8431,2.8219,2.795,2.7736,2.7563,2.7482,2.7255,2.7021,2.6951,2.6663,2.6257,2.5994,2.569,2.5229,2.4504,2.4033,2.3546,2.3074,2.2575,2.1959,2.8301,2.8301,2.8301,2.8301,2.8301,2.8301,2.8301,2.8301,2.8301,2.8301,2.8301,2.8301,2.8301,2.8301,2.8301,2.8301,2.8301,2.8301,2.8301,2.8301,2.8301,2.8301,2.8301,2.8301,2.8301,2.8242,2.8076,2.7842,2.7656,2.7285,2.6807,2.6406,2.6152,2.5977,2.5732,2.5684,2.5684,2.5684,2.5664,2.5586,2.5391,2.5225,2.49,2.4482,2.4258,2.4131,2.4072,2.3965,2.3773,2.3773,2.3764,2.3799,2.3779,2.3695,2.3594,2.3306,2.3557,2.3831,2.395,2.4188,2.4573,2.4573,2.4978,2.5579,2.634,2.6969,2.769,2.8255,2.851,2.851,2.851,2.8534,2.851,2.851,2.851,2.851,2.851,2.851,2.851,2.851,2.851,2.851,2.851,2.851,2.851,2.851,2.851,2.851,2.851,2.851,2.851,2.851,2.851,2.851,2.851,2.8471,2.8471,2.8231,2.8111,2.7938,2.7898,2.7765,2.7805,2.7846,2.747,2.6928,2.6505,2.613,2.581,2.5506,2.4882,2.4367,2.4115,2.3698,2.3099,2.8301,2.8301,2.8301,2.8301,2.8301,2.8301,2.8301,2.8301,2.8301,2.8301,2.8301,2.8301,2.8301,2.8301,2.8301,2.8301,2.8301,2.8301,2.8301,2.8301,2.8301,2.8301,2.8301,2.8301,2.8301,2.8291,2.8262,2.8115,2.7871,2.7679,2.7187,2.6709,2.6475,2.6172,2.5781,2.5684,2.5684,2.5684,2.5684,2.5684,2.5596,2.5391,2.5059,2.4697,2.46,2.4541,2.4541,2.4375,2.4326,2.4326,2.4346,2.4375,2.4404,2.4414,2.4183,2.389,2.4431,2.4681,2.5004,2.5626,2.6011,2.6022,2.6284,2.6819,2.7364,2.7851,2.8234,2.8662,2.8883,2.8931,2.8979,2.8763,2.8715,2.8667,2.8619,2.851,2.851,2.851,2.851,2.851,2.851,2.851,2.851,2.851,2.851,2.851,2.851,2.851,2.851,2.851,2.851,2.851,2.851,2.851,2.851,2.851,2.8471,2.8431,2.8351,2.8271,2.8351,2.8351,2.8391,2.8299,2.8047,2.751,2.7021,2.6652,2.6445,2.6113,2.5569,2.5367,2.5376,2.4979,2.4325,2.8301,2.8301,2.8301,2.8301,2.8301,2.8301,2.8301,2.8301,2.8301,2.8301,2.8301,2.8301,2.8301,2.8301,2.8301,2.8301,2.8301,2.8301,2.8301,2.8301,2.8301,2.8301,2.8301,2.8301,2.8301,2.8301,2.8301,2.8281,2.8105,2.7894,2.7461,2.6992,2.6582,2.6191,2.582,2.5713,2.5684,2.5684,2.5684,2.5684,2.5674,2.5606,2.5518,2.5391,2.5205,2.499,2.4951,2.4756,2.457,2.4521,2.4482,2.4443,2.4424,2.4424,2.4935,2.5304,2.5678,2.5757,2.5996,2.6791,2.7345,2.7506,2.7917,2.8374,2.8642,2.9105,2.9505,2.9851,2.9845,2.9761,2.9617,2.9424,2.9268,2.9116,2.8972,2.8779,2.8683,2.9012,2.8964,2.8679,2.8727,2.8595,2.8483,2.8522,2.851,2.851,2.851,2.851,2.851,2.851,2.851,2.851,2.851,2.851,2.851,2.851,2.851,2.851,2.851,2.851,2.851,2.851,2.851,2.8391,2.8219,2.8099,2.7696,2.7371,2.7156,2.6775,2.631,2.6487,2.6905,2.6298,2.5455,2.8301,2.8301,2.8301,2.8301,2.8301,2.8301,2.8301,2.8301,2.8301,2.8301,2.8301,2.8301,2.8301,2.8301,2.8301,2.8301,2.8301,2.8301,2.8301,2.8301,2.8301,2.8301,2.8301,2.8301,2.8301,2.8301,2.8301,2.8291,2.8213,2.8105,2.7812,2.7363,2.6953,2.6553,2.6064,2.5801,2.5713,2.5684,2.5684,2.5684,2.5684,2.5684,2.5684,2.5684,2.5527,2.5449,2.5371,2.5312,2.5118,2.5251,2.5563,2.6013,2.619,2.6527,2.7108,2.7419,2.8103,2.811,2.7789,2.8441,2.8778,2.897,2.9324,2.9466,2.9586,2.9857,3.0134,3.0074,3.0086,3.0122,3.0134,2.9881,2.988,2.9753,2.9576,2.9569,2.9472,2.9516,2.9588,2.9253,2.8943,2.8911,2.8791,2.8671,2.8634,2.851,2.851,2.851,2.851,2.851,2.851,2.851,2.851,2.851,2.851,2.851,2.851,2.851,2.851,2.851,2.851,2.851,2.851,2.851,2.8391,2.8271,2.8203,2.795,2.7574,2.7278,2.701,2.7185,2.736,2.7098,2.6375,2.8301,2.8301,2.8301,2.8301,2.8301,2.8301,2.8301,2.8301,2.8301,2.8301,2.8301,2.8301,2.8301,2.8301,2.8301,2.8301,2.8301,2.8301,2.8301,2.8301,2.8301,2.8301,2.8301,2.8301,2.8301,2.8301,2.8301,2.8301,2.8301,2.8223,2.8037,2.7728,2.7386,2.6865,2.6426,2.6103,2.5908,2.5684,2.5684,2.5684,2.5684,2.5684,2.5684,2.5684,2.5684,2.5684,2.5684,2.5645,2.5645,2.5809,2.6509,2.6913,2.7065,2.7738,2.8492,2.8907,2.95,2.978,2.9686,3.0075,3.044,3.0482,3.0482,3.0541,3.0536,3.0482,3.0494,3.0615,3.0603,3.0567,3.0489,3.0453,3.0435,3.0488,3.0438,3.0504,3.0479,3.0394,3.0284,3.0012,2.9735,2.9544,2.9375,2.8992,2.8783,2.8558,2.851,2.855,2.855,2.859,2.8578,2.8618,2.851,2.851,2.851,2.851,2.851,2.851,2.851,2.851,2.851,2.851,2.851,2.851,2.851,2.8471,2.8363,2.8151,2.795,2.7777,2.7644,2.7563,2.7563,2.7429,2.7175,2.8301,2.8301,2.8301,2.8301,2.8301,2.8301,2.8301,2.8301,2.8301,2.8301,2.8301,2.8301,2.8301,2.8301,2.8301,2.8301,2.8301,2.8301,2.8301,2.8301,2.8291,2.8291,2.8291,2.8301,2.8301,2.8301,2.8301,2.8301,2.8301,2.8291,2.8037,2.7748,2.763,2.708,2.665,2.6367,2.6035,2.5771,2.5684,2.5684,2.5684,2.5684,2.5684,2.5684,2.5684,2.5684,2.5684,2.5684,2.5868,2.5917,2.6867,2.7558,2.7887,2.868,2.9464,3.0022,3.0272,3.0627,3.0961,3.1169,3.1468,3.156,3.15,3.1368,3.132,3.15,3.156,3.1416,3.1339,3.1436,3.1395,3.1361,3.1199,3.1259,3.1222,3.1183,3.1134,3.1036,3.0913,3.0712,3.0506,3.0313,3.0053,2.9732,2.9286,2.9088,2.8681,2.8709,2.8776,2.8776,2.8764,2.8724,2.8578,2.855,2.855,2.851,2.851,2.851,2.851,2.851,2.851,2.851,2.851,2.851,2.851,2.851,2.851,2.8351,2.8231,2.8311,2.8231,2.8018,2.7938,2.7938,2.7646,2.8301,2.8301,2.8301,2.8301,2.8301,2.8301,2.8301,2.8301,2.8301,2.8301,2.8301,2.8301,2.8301,2.8291,2.8291,2.8301,2.8301,2.8301,2.8291,2.8354,2.8461,2.8398,2.8408,2.8408,2.8461,2.8344,2.8291,2.8301,2.8301,2.8301,2.8232,2.8027,2.7865,2.7601,2.7148,2.6621,2.6162,2.5869,2.5693,2.5684,2.5684,2.5684,2.5684,2.5684,2.5684,2.5684,2.5684,2.5684,2.6052,2.6696,2.7568,2.8215,2.8958,2.9886,3.0543,3.1003,3.1059,3.1294,3.1528,3.1705,3.1705,3.1705,3.1693,3.1717,3.1717,3.1705,3.1805,3.1825,3.1906,3.1893,3.2052,3.2005,3.1969,3.2038,3.1988,3.1888,3.1831,3.1757,3.1628,3.1462,3.1225,3.1043,3.0773,3.0491,3.0017,2.9581,2.9187,2.8919,2.8995,2.8973,2.8961,2.891,2.8816,2.8697,2.8697,2.863,2.851,2.851,2.851,2.851,2.851,2.851,2.851,2.851,2.851,2.851,2.851,2.851,2.8471,2.8431,2.8391,2.8351,2.8351,2.8351,2.8092,2.8301,2.8291,2.8398,2.8398,2.8291,2.8301,2.8301,2.8301,2.8301,2.8301,2.8301,2.8301,2.8301,2.8291,2.8398,2.8408,2.8451,2.8504,2.8504,2.8568,2.8674,2.8611,2.8621,2.8621,2.8727,2.8451,2.8408,2.8408,2.8461,2.8408,2.8485,2.8439,2.8166,2.798,2.7483,2.6846,2.628,2.6094,2.5781,2.5693,2.5684,2.5684,2.5684,2.5732,2.5771,2.5868,2.5868,2.5917,2.6418,2.7295,2.8262,2.928,3.0306,3.1238,3.1761,3.1805,3.1793,3.1749,3.1717,3.1705,3.1761,3.1805,3.1805,3.1805,3.1805,3.1849,3.2025,3.1937,3.2038,3.2213,3.2444,3.237,3.242,3.2407,3.2605,3.2554,3.2578,3.2529,3.2356,3.2201,3.1974,3.1845,3.1732,3.1476,3.084,3.0367,2.9847,2.9588,2.9554,2.9431,2.9197,2.9118,2.9,2.8922,2.8882,2.8764,2.8657,2.8657,2.8657,2.855,2.855,2.855,2.859,2.8618,2.8618,2.855,2.855,2.859,2.855,2.851,2.8471,2.8431,2.8431,2.8431,2.8431,2.8291,2.8354,2.8568,2.8568,2.8344,2.8291,2.8344,2.8344,2.8291,2.8291,2.8354,2.8301,2.8354,2.8354,2.8568,2.8621,2.8684,2.8877,2.8877,2.8771,2.8983,2.893,2.8877,2.8887,2.9089,2.8781,2.8717,2.8727,2.8824,2.8727,2.8824,2.8877,2.8671,2.8325,2.7721,2.6896,2.6566,2.6626,2.6084,2.6064,2.5965,2.61,2.6284,2.6052,2.6225,2.637,2.637,2.638,2.7057,2.8251,2.8901,2.9886,3.0958,3.1793,3.2157,3.2025,3.2025,3.195,3.1785,3.1773,3.1898,3.1962,3.195,3.1994,3.2081,3.2169,3.2257,3.2213,3.2257,3.2388,3.2475,3.2593,3.268,3.2797,3.2939,3.3038,3.2982,3.2982,3.2789,3.2671,3.2685,3.2667,3.2677,3.2456,3.1776,3.117,3.0611,3.0325,3.0214,2.9953,2.9653,2.9462,2.9384,2.9157,2.9079,2.891,2.8803,2.8803,2.8764,2.8736,2.8697,2.8736,2.8776,2.8764,2.8724,2.8657,2.8657,2.8657,2.8618,2.8578,2.851,2.8471,2.851,2.851,2.851,2.8568,2.8568,2.8674,2.8621,2.8568,2.8568,2.8568,2.8514,2.8398,2.8398,2.8514,2.8408,2.8408,2.8568,2.8684,2.8727,2.8781,2.8983,2.9026,2.9026,2.928,2.9185,2.9142,2.929,2.9649,2.9723,2.9523,2.9471,3.0068,2.9481,2.9079,2.9036,2.9207,2.8575,2.8185,2.7708,2.7702,2.7251,2.7291,2.7493,2.7139,2.7589,2.7709,2.703,2.72,2.7274,2.7284,2.7332,2.8121,2.9407,3.0102,3.0711,3.1605,3.24,3.2381,3.2281,3.2293,3.2453,3.256,3.2682,3.2467,3.2308,3.2267,3.2379,3.2325,3.2344,3.2388,3.2537,3.2667,3.2773,3.2865,3.2909,3.2995,3.2982,3.3068,3.3081,3.3081,3.3081,3.2975,3.2963,3.297,3.2939,3.2968,3.2893,3.2364,3.2022,3.151,3.1123,3.1001,3.0601,3.0248,3.0022,2.9831,2.9516,2.9275,2.9143,2.9013,2.9,2.9,2.8973,2.8973,2.8922,2.8961,2.9,2.8843,2.8764,2.8803,2.8803,2.8764,2.8685,2.8618,2.855,2.851,2.851,2.851,2.8834,2.8834,2.8983,2.9046,2.8993,2.8887,2.8781,2.8684,2.8514,2.8568,2.8621,2.8621,2.8664,2.8834,2.894,2.8993,2.9036,2.93,2.929,2.9343,2.9617,2.9501,2.9448,2.9659,3.0109,3.0432,3.0442,3.0338,3.1327,3.0338,2.9995,2.9953,2.989,3.0099,2.9673,2.9229,2.8503,2.8342,2.8593,2.8476,2.8563,2.8858,2.8901,2.8495,2.8437,2.8566,2.8566,2.8855,2.9372,3.0644,3.1282,3.1605,3.2325,3.2835,3.2853,3.2846,3.2948,3.3158,3.3371,3.3572,3.3355,3.3056,3.3042,3.3086,3.313,3.3286,3.3306,3.3369,3.3289,3.3308,3.3376,3.3395,3.3307,3.3307,3.3131,3.3187,3.3162,3.3162,3.3124,3.3081,3.3068,3.3124,3.3124,3.3111,3.2905,3.2679,3.2441,3.2106,3.1716,3.1235,3.0884,3.0653,3.0376,3.0072,2.9717,2.9413,2.931,2.9209,2.9197,2.9209,2.9131,2.9079,2.9157,2.9157,2.9052,2.8961,2.9,2.9,2.8922,2.8843,2.8764,2.8657,2.855,2.851,2.851,2.9132,2.9132,2.9448,2.9554,2.9554,2.9237,2.8983,2.8727,2.8727,2.8727,2.8727,2.8983,2.9079,2.9195,2.9448,2.9501,2.9564,2.9774,2.9774,2.9827,3.0078,2.9869,2.9869,3.0026,3.0774,3.1124,3.1227,3.1462,3.2555,3.1462,3.097,3.1227,3.1176,3.1498,3.1193,3.0614,2.988,3.0027,3.0105,3.0083,3.031,3.0249,3.0216,3.0009,3.0044,3.0159,3.0148,3.0285,3.0842,3.1461,3.1737,3.2286,3.2916,3.3658,3.3645,3.3724,3.3835,3.3925,3.4156,3.4342,3.4487,3.4342,3.4425,3.4471,3.4272,3.42,3.4138,3.4163,3.417,3.4072,3.4035,3.3897,3.3759,3.3558,3.3282,3.3232,3.3194,3.3156,3.3136,3.3124,3.3124,3.3124,3.3124,3.3124,3.3124,3.3023,3.2852,3.2912,3.2453,3.1779,3.149,3.1336,3.1032,3.0693,3.0351,2.9995,2.9793,2.9754,2.9481,2.9392,2.9314,2.9314,2.9365,2.9404,2.9248,2.9209,2.9197,2.9157,2.9118,2.904,2.8922,2.8764,2.8657,2.855,2.851,2.9448,2.9448,2.9544,2.9606,2.9606,2.9501,2.929,2.9036,2.8983,2.9079,2.9343,2.9132,2.9227,2.9448,2.9554,2.9606,2.9711,2.9837,2.9942,3.0141,3.063,3.0432,3.0484,3.0785,3.1637,3.2033,3.2224,3.2527,3.3426,3.2577,3.2134,3.2499,3.2134,3.2476,3.2632,3.2241,3.2072,3.1965,3.1993,3.2028,3.2288,3.2466,3.2233,3.2026,3.1968,3.2048,3.2106,3.213,3.2714,3.3408,3.3637,3.4045,3.414,3.4412,3.4385,3.4397,3.4495,3.4612,3.4973,3.5132,3.529,3.5599,3.5712,3.5249,3.4948,3.4748,3.4806,3.4848,3.4873,3.4731,3.46,3.4449,3.4311,3.4085,3.3822,3.3671,3.3596,3.337,3.3338,3.3124,3.3124,3.3124,3.3124,3.3124,3.3124,3.3124,3.3159,3.3289,3.3153,3.2474,3.2275,3.2162,3.1628,3.1276,3.1037,3.0718,3.0465,3.0238,3.0041,2.9817,2.9599,2.9611,2.965,2.965,2.9638,2.9482,2.9353,2.9353,2.9326,2.9275,2.9157,2.8961,2.8776,2.8657,2.855,2.9774,2.9774,2.9774,2.9774,2.9816,3.0214,3.0057,2.9501,2.9343,2.9448,2.9554,2.9511,2.9554,2.9722,2.9774,3.0026,3.0463,3.013,3.0193,3.0888,3.1341,3.1084,3.1135,3.175,3.2789,3.3178,3.3525,3.3871,3.4569,3.3981,3.3388,3.3697,3.3028,3.3575,3.4154,3.4412,3.4316,3.409,3.3971,3.4014,3.4215,3.4429,3.4019,3.386,3.3814,3.386,3.386,3.386,3.4226,3.4635,3.468,3.468,3.4731,3.4831,3.524,3.5257,3.5408,3.5558,3.5771,3.5809,3.6069,3.6292,3.6405,3.6019,3.573,3.5542,3.5516,3.5516,3.5441,3.5328,3.5177,3.4981,3.4831,3.4668,3.4474,3.4236,3.3972,3.3696,3.3432,3.3199,3.3124,3.3124,3.3124,3.3124,3.3124,3.3124,3.324,3.3488,3.3454,3.3081,3.3139,3.3242,3.2488,3.1836,3.1675,3.1557,3.1267,3.1055,3.0932,3.065,3.0189,2.9985,3.0114,3.0126,3.0062,2.9908,2.9664,2.9611,2.9573,2.9482,2.9392,2.9236,2.9,2.8843,2.8736,2.9994,2.9994,2.9994,2.9994,3.0141,3.1032,3.0981,3.0141,2.9973,2.9711,2.9711,2.9879,2.9942,2.9994,3.0183,3.0536,3.0733,3.0536,3.0733,3.1637,3.1841,3.179,3.2083,3.2789,3.3685,3.4422,3.4824,3.4775,3.5619,3.5066,3.4374,3.4872,3.4581,3.4921,3.5655,3.5858,3.5736,3.5554,3.5046,3.4742,3.5146,3.5144,3.4851,3.4848,3.4873,3.4861,3.4835,3.4843,3.4851,3.4876,3.4901,3.4977,3.5094,3.532,3.5843,3.6044,3.6094,3.6191,3.6241,3.6267,3.6304,3.6392,3.6405,3.6317,3.6153,3.6065,3.6028,3.6015,3.5906,3.5818,3.568,3.5604,3.5491,3.5278,3.5027,3.4851,3.4663,3.4286,3.3834,3.3558,3.337,3.3363,3.321,3.3197,3.3611,3.3411,3.3454,3.3781,3.4037,3.3888,3.3833,3.41,3.3457,3.2823,3.2818,3.2645,3.209,3.1861,3.1824,3.1293,3.0727,3.0611,3.0582,3.0381,3.0177,3.0139,2.9985,2.9985,2.9908,2.9663,2.9573,2.947,2.9314,2.9118,2.8922,2.9994,2.9994,2.9994,2.9994,3.0141,3.1124,3.1483,3.1227,3.1187,3.0722,3.0036,2.9994,3.0099,3.0287,3.0929,3.1238,3.0744,3.1278,3.1381,3.1982,3.2437,3.2789,3.3039,3.3883,3.4569,3.4678,3.4981,3.5427,3.5966,3.5571,3.5223,3.5763,3.5475,3.5523,3.631,3.6417,3.6405,3.6345,3.6018,3.5633,3.5925,3.6081,3.6028,3.5931,3.5952,3.5889,3.5843,3.5893,3.5977,3.5981,3.6015,3.6028,3.5994,3.6107,3.6207,3.638,3.6417,3.6417,3.6417,3.6417,3.6417,3.6417,3.6417,3.6417,3.6405,3.6417,3.6417,3.6417,3.638,3.6292,3.6169,3.6119,3.6044,3.5793,3.5579,3.5454,3.5282,3.4781,3.4254,3.401,3.3759,3.3595,3.3417,3.3607,3.3949,3.4105,3.4105,3.4439,3.5101,3.5142,3.4581,3.4609,3.4358,3.3944,3.4007,3.3705,3.3142,3.2908,3.287,3.2176,3.1332,3.1225,3.1129,3.0495,3.0165,3.0419,3.0558,3.0482,3.0343,3.0062,2.9921,2.9883,2.978,2.9586,2.9314,2.9994,2.9994,2.9994,2.9994,3.0297,3.1648,3.2033,3.183,3.2577,3.2437,3.1392,3.0991,3.094,3.1289,3.2083,3.2387,3.1902,3.2185,3.2778,3.3189,3.3388,3.3784,3.4337,3.4921,3.5367,3.5511,3.5523,3.587,3.6216,3.6061,3.5918,3.6263,3.5775,3.5775,3.6417,3.6417,3.6417,3.6417,3.6417,3.6417,3.6417,3.6417,3.6417,3.6417,3.6417,3.6417,3.6417,3.6417,3.6405,3.6405,3.6342,3.6342,3.6317,3.6342,3.638,3.6405,3.6417,3.6417,3.6417,3.6417,3.6417,3.6417,3.6417,3.6417,3.6417,3.6417,3.6417,3.6417,3.6417,3.6342,3.6342,3.6304,3.6292,3.6094,3.5968,3.5868,3.5571,3.5182,3.4718,3.4367,3.4274,3.435,3.4257,3.4401,3.475,3.4924,3.4937,3.5305,3.5936,3.6229,3.5655,3.5264,3.5032,3.5277,3.5546,3.4996,3.4164,3.4007,3.3992,3.3155,3.2402,3.2055,3.1651,3.1065,3.0846,3.1169,3.1267,3.1044,3.0796,3.052,3.0419,3.0343,3.0228,3.019,3.0063,3.0099,3.0193,3.0245,3.0193,3.0547,3.2499,3.2789,3.2286,3.3871,3.4337,3.3549,3.2538,3.2639,3.2951,3.3461,3.3993,3.4091,3.3537,3.3981,3.4325,3.4581,3.4775,3.5223,3.581,3.6061,3.6216,3.6216,3.6216,3.637,3.6216,3.6216,3.637,3.6417,3.6417,3.6417,3.6417,3.6417,3.6417,3.6417,3.6417,3.6417,3.6417,3.6417,3.6417,3.6417,3.6417,3.6417,3.6417,3.6417,3.6417,3.6417,3.6417,3.6417,3.6417,3.6417,3.6417,3.6417,3.6417,3.6417,3.6417,3.6417,3.6417,3.6417,3.6417,3.6417,3.6417,3.6417,3.6417,3.6417,3.6417,3.6417,3.6417,3.6417,3.6405,3.6317,3.6254,3.5906,3.5583,3.5232,3.4889,3.4868,3.4959,3.5005,3.518,3.5478,3.5683,3.5976,3.6399,3.6688,3.6688,3.6452,3.6136,3.5936,3.6308,3.6649,3.6131,3.517,3.534,3.5221,3.4303,3.3498,3.3088,3.2455,3.1633,3.1563,3.1915,3.1806,3.1549,3.1267,3.1119,3.1057,3.1057,3.1057,3.102,3.1044,3.0495,3.1289,3.1278,3.1289,3.1637,3.3586,3.3883,3.3201,3.4239,3.5126,3.5271,3.4629,3.3993,3.33,3.419,3.4532,3.4239,3.419,3.4483,3.4727,3.503,3.5427,3.587,3.6156,3.6358,3.6417,3.6417,3.6417,3.6417,3.6417,3.6417,3.6417,3.6417,3.6417,3.6417,3.6417,3.6417,3.6417,3.6417,3.6417,3.6417,3.6417,3.6417,3.6417,3.6417,3.6417,3.6417,3.6417,3.6417,3.6417,3.6417,3.6417,3.6417,3.6417,3.6417,3.6417,3.6417,3.6417,3.6417,3.6417,3.6417,3.6417,3.6417,3.6417,3.6417,3.6417,3.6417,3.6417,3.6417,3.6417,3.6417,3.6417,3.6417,3.6417,3.6367,3.6355,3.6169,3.6091,3.5915,3.5625,3.5445,3.539,3.5264,3.5687,3.6339,3.6552,3.6756,3.7161,3.7648,3.7461,3.7236,3.7014,3.678,3.6727,3.6844,3.6805,3.6274,3.6507,3.6364,3.5363,3.4534,3.4053,3.3385,3.2536,3.2395,3.2684,3.2456,3.2096,3.2096,3.2001,3.1892,3.1856,3.1856,3.1856,3.1842]}]]